[[{"header":{"parameterUnit":"m.s-1","parameterCategory":1,"la1":30.6,"la2":29.2853,"lo1":-89.7004,"lo2":-87.6739,"dy":0.0162,"dx":0.0183,"nx":112,"ny":82,"refTime":"2026-05-22T12:00:00:Z","depth":0,"parameterNumber":2,"parameterNumberName":"U-component_of_WINDS"},"data":[0.0,0.0,0.0,0.0,0.0,0.0,0.0,0.0,0.0,0.0,0.0,0.0,0.0,0.0,0.0,0.0,0.0,0.0,0.0,0.0,0.0,0.0,0.0,0.0,0.0,0.0,0.0,0.0,0.0,0.0,0.0,0.0,0.0,0.0,0.0,0.0,0.0,0.0,0.0,0.0,0.0,0.0,0.0,0.0,0.0,0.0,0.0,0.0,0.0,0.0,0.0,0.0,0.0,0.0,0.0,0.0,0.0,0.0,0.0,0.0,0.0,0.0,0.0,0.0,0.0,0.0,0.0,0.0,0.0,0.0,0.0,0.0,0.0,0.0,0.0,0.0,0.0,0.0,0.0,0.0,0.0,0.0,0.0,0.0,0.0,0.0,0.0,0.0,0.0,0.0,-1.2603,-1.5484,-1.7731,-1.8716,-1.7955,-1.7727,-1.6167,-1.2737,0.0,0.0,0.0,0.0,0.0,0.0,0.0,0.0,0.0,0.0,0.0,0.0,0.0,0.0,0.0,0.0,0.0,0.0,0.0,0.0,0.0,0.0,0.0,0.0,0.0,0.0,0.0,0.0,0.0,0.0,0.0,0.0,0.0,0.0,0.0,0.0,0.0,0.0,0.0,0.0,0.0,0.0,0.0,0.0,0.0,0.0,0.0,0.0,0.0,0.0,0.0,0.0,0.0,0.0,0.0,0.0,0.0,0.0,0.0,0.0,0.0,0.0,0.0,0.0,0.0,0.0,0.0,0.0,0.0,0.0,0.0,0.0,0.0,0.0,0.0,0.0,0.0,0.0,0.0,0.0,0.0,0.0,0.0,0.0,0.0,0.0,0.0,0.0,0.0,0.0,0.0,0.0,0.0,0.0,0.0,0.0,0.0,0.0,0.0,0.0,0.0,0.0,0.0,0.0,-1.3075,-1.7168,-1.7949,-1.8103,-1.7917,-1.7208,-1.558,-1.2768,0.0,0.0,0.0,0.0,0.0,0.0,0.0,0.0,0.0,0.0,0.0,0.0,0.0,0.0,0.0,0.0,0.0,0.0,0.0,0.0,0.0,0.0,0.0,0.0,0.0,0.0,0.0,0.0,0.0,0.0,0.0,0.0,0.0,0.0,0.0,0.0,0.0,0.0,0.0,0.0,0.0,0.0,0.0,0.0,0.0,0.0,0.0,0.0,0.0,0.0,0.0,0.0,0.0,0.0,0.0,0.0,0.0,0.0,0.0,0.0,0.0,0.0,0.0,0.0,0.0,0.0,0.0,0.0,0.0,0.0,0.0,0.0,0.0,0.0,0.0,0.0,0.0,0.0,0.0,0.0,0.0,0.0,0.0,0.0,0.0,0.0,0.0,0.0,0.0,0.0,0.0,0.0,0.0,0.0,0.0,0.0,0.0,0.0,0.0,0.0,0.0,0.0,0.0,-1.3255,-1.5252,-1.7734,-1.8848,-1.9004,-1.8044,-1.7554,-1.5974,-1.2849,-1.2085,0.0,0.0,0.0,0.0,0.0,0.0,0.0,0.0,0.0,0.0,0.0,0.0,0.0,0.0,0.0,0.0,0.0,0.0,0.0,0.0,0.0,0.0,0.0,0.0,0.0,0.0,0.0,0.0,0.0,0.0,0.0,0.0,0.0,0.0,0.0,0.0,0.0,0.0,0.0,0.0,0.0,0.0,0.0,0.0,0.0,0.0,0.0,0.0,0.0,0.0,0.0,0.0,0.0,0.0,0.0,0.0,0.0,0.0,0.0,0.0,0.0,0.0,0.0,0.0,0.0,0.0,0.0,0.0,0.0,0.0,0.0,0.0,0.0,0.0,0.0,0.0,0.0,0.0,0.0,0.0,0.0,0.0,0.0,0.0,0.0,0.0,0.0,0.0,0.0,0.0,0.0,0.0,0.0,0.0,0.0,0.0,0.0,0.0,0.0,0.0,0.0,0.0,-1.5799,-1.7344,-1.8203,-1.9687,-1.998,-1.8437,-1.7874,-1.6281,-1.3226,-1.1519,0.0,0.0,0.0,0.0,0.0,0.0,0.0,0.0,0.0,0.0,0.0,0.0,0.0,0.0,0.0,0.0,0.0,0.0,0.0,0.0,0.0,0.0,0.0,0.0,0.0,0.0,0.0,0.0,0.0,0.0,0.0,0.0,0.0,0.0,0.0,0.0,0.0,0.0,0.0,0.0,0.0,0.0,0.0,0.0,0.0,0.0,0.0,0.0,0.0,0.0,0.0,0.0,0.0,0.0,0.0,0.0,0.0,0.0,0.0,0.0,0.0,0.0,0.0,0.0,0.0,0.0,0.0,0.0,0.0,0.0,0.0,0.0,0.0,0.0,0.0,0.0,0.0,0.0,0.0,0.0,0.0,0.0,0.0,0.0,0.0,0.0,0.0,0.0,0.0,0.0,0.0,0.0,0.0,0.0,0.0,0.0,0.0,0.0,0.0,0.0,0.0,0.0,-1.6327,-1.8242,-1.9121,-2.0039,-2.0215,-1.9297,-1.7662,-1.5922,-1.4129,-1.0835,0.0,0.0,0.0,0.0,0.0,0.0,0.0,0.0,0.0,0.0,0.0,0.0,0.0,0.0,0.0,0.0,0.0,0.0,0.0,0.0,0.0,0.0,0.0,0.0,0.0,0.0,0.0,0.0,0.0,0.0,0.0,0.0,0.0,0.0,0.0,0.0,0.0,0.0,0.0,0.0,0.0,0.0,0.0,0.0,0.0,0.0,0.0,0.0,0.0,0.0,0.0,0.0,0.0,0.0,0.0,0.0,0.0,0.0,0.0,0.0,0.0,0.0,0.0,0.0,0.0,0.0,0.0,0.0,0.0,0.0,0.0,0.0,0.0,0.0,0.0,0.0,0.0,0.0,0.0,0.0,0.0,0.0,0.0,0.0,0.0,0.0,0.0,0.0,0.0,0.0,0.0,0.0,0.0,0.0,0.0,0.0,0.0,0.0,0.0,0.0,0.0,0.0,-1.5918,-1.7734,0.0,-2.0078,-2.0254,-1.9375,-1.8148,-1.6465,-1.4248,0.0,0.0,0.0,0.0,0.0,0.0,0.0,0.0,0.0,0.0,0.0,0.0,0.0,0.0,0.0,0.0,0.0,0.0,0.0,0.0,0.0,0.0,0.0,0.0,0.0,0.0,0.0,0.0,0.0,0.0,0.0,0.0,0.0,0.0,0.0,0.0,0.0,0.0,0.0,0.0,0.0,0.0,0.0,0.0,0.0,0.0,0.0,0.0,0.0,0.0,0.0,0.0,0.0,0.0,0.0,0.0,0.0,0.0,0.0,0.0,0.0,0.0,0.0,0.0,0.0,0.0,0.0,0.0,0.0,0.0,0.0,0.0,0.0,0.0,0.0,0.0,0.0,0.0,0.0,0.0,0.0,0.0,0.0,0.0,0.0,0.0,0.0,0.0,0.0,0.0,0.0,0.0,0.0,0.0,0.0,0.0,0.0,0.0,0.0,0.0,0.0,0.0,-1.4062,-1.6035,-1.7773,0.0,-2.0234,-2.0352,-1.9766,-1.8344,-1.664,-1.464,0.0,0.0,0.0,0.0,0.0,0.0,0.0,0.0,0.0,0.0,0.0,0.0,0.0,0.0,0.0,0.0,0.0,0.0,0.0,0.0,0.0,0.0,0.0,0.0,0.0,0.0,0.0,0.0,0.0,0.0,0.0,0.0,0.0,0.0,0.0,0.0,0.0,0.0,0.0,0.0,0.0,0.0,0.0,0.0,0.0,0.0,0.0,0.0,0.0,0.0,0.0,0.0,0.0,0.0,0.0,0.0,0.0,0.0,0.0,0.0,0.0,0.0,0.0,0.0,0.0,0.0,0.0,0.0,0.0,0.0,0.0,0.0,0.0,0.0,0.0,0.0,0.0,0.0,0.0,0.0,0.0,0.0,0.0,0.0,0.0,0.0,0.0,0.0,0.0,0.0,0.0,0.0,0.0,0.0,0.0,0.0,0.0,0.0,0.0,0.0,0.0,0.0,-1.4961,-1.6914,-1.8672,-2.041,-2.0605,-2.0605,-2.0605,-1.8152,-1.6275,0.0,0.0,0.0,0.0,0.0,0.0,0.0,0.0,0.0,0.0,0.0,0.0,0.0,0.0,0.0,0.0,0.0,0.0,0.0,0.0,0.0,0.0,0.0,0.0,0.0,0.0,0.0,0.0,0.0,0.0,0.0,0.0,0.0,0.0,0.0,0.0,0.0,0.0,0.0,0.0,0.0,0.0,0.0,0.0,0.0,0.0,0.0,0.0,0.0,0.0,0.0,0.0,0.0,0.0,0.0,0.0,0.0,0.0,0.0,0.0,0.0,0.0,0.0,0.0,0.0,0.0,0.0,0.0,0.0,0.0,0.0,0.0,0.0,0.0,0.0,0.0,0.0,0.0,0.0,0.0,0.0,0.0,0.0,0.0,0.0,0.0,0.0,0.0,0.0,0.0,0.0,0.0,0.0,0.0,0.0,0.0,0.0,0.0,0.0,0.0,0.0,0.0,0.0,-1.4961,-1.6914,-1.8672,-2.041,-2.0605,-2.0605,-2.0605,-1.8715,-1.6914,-1.5481,0.0,0.0,0.0,0.0,0.0,0.0,0.0,0.0,0.0,0.0,0.0,0.0,0.0,0.0,0.0,0.0,0.0,0.0,0.0,0.0,0.0,0.0,0.0,0.0,0.0,0.0,0.0,0.0,0.0,0.0,0.0,0.0,0.0,0.0,0.0,0.0,0.0,0.0,0.0,0.0,0.0,0.0,0.0,0.0,0.0,0.0,0.0,0.0,0.0,0.0,0.0,0.0,0.0,0.0,0.0,0.0,0.0,0.0,0.0,0.0,0.0,0.0,0.0,0.0,0.0,0.0,0.0,0.0,0.0,0.0,0.0,0.0,0.0,0.0,0.0,0.0,0.0,0.0,0.0,0.0,0.0,0.0,0.0,0.0,0.0,0.0,0.0,0.0,0.0,0.0,0.0,0.0,0.0,0.0,0.0,0.0,0.0,0.0,0.0,0.0,0.0,0.0,-1.5059,-1.7227,-1.9043,-2.0449,-2.0605,-2.0605,-2.0605,-1.8948,-1.7321,-1.5965,0.0,0.0,0.0,0.0,0.0,0.0,0.0,0.0,0.0,0.0,0.0,0.0,0.0,0.0,0.0,0.0,0.0,0.0,0.0,0.0,0.0,0.0,0.0,0.0,0.0,0.0,0.0,0.0,0.0,0.0,0.0,0.0,0.0,0.0,0.0,0.0,0.0,0.0,0.0,0.0,0.0,0.0,0.0,0.0,0.0,0.0,0.0,0.0,0.0,0.0,0.0,0.0,0.0,0.0,0.0,0.0,0.0,0.0,0.0,0.0,0.0,0.0,0.0,0.0,0.0,0.0,0.0,0.0,0.0,0.0,0.0,0.0,0.0,0.0,0.0,0.0,0.0,0.0,0.0,0.0,0.0,0.0,0.0,0.0,0.0,0.0,0.0,0.0,0.0,0.0,0.0,0.0,0.0,0.0,0.0,0.0,0.0,0.0,0.0,0.0,0.0,0.0,-1.5293,-1.7734,-1.9629,-2.0508,-2.0605,-2.0605,-2.0605,-1.8948,-1.7534,-1.6662,0.0,0.0,0.0,0.0,0.0,0.0,0.0,0.0,0.0,0.0,0.0,0.0,0.0,0.0,0.0,0.0,0.0,0.0,0.0,0.0,0.0,0.0,0.0,0.0,0.0,0.0,0.0,0.0,0.0,0.0,0.0,0.0,0.0,0.0,0.0,0.0,0.0,0.0,0.0,0.0,0.0,0.0,0.0,0.0,0.0,0.0,0.0,0.0,0.0,0.0,0.0,0.0,0.0,0.0,0.0,0.0,0.0,0.0,0.0,0.0,-1.9634,0.0,0.0,0.0,0.0,0.0,0.0,0.0,0.0,0.0,0.0,0.0,0.0,0.0,0.0,0.0,0.0,0.0,0.0,0.0,0.0,0.0,0.0,0.0,0.0,0.0,0.0,0.0,0.0,0.0,0.0,0.0,0.0,0.0,0.0,0.0,0.0,0.0,0.0,0.0,0.0,0.0,-1.6113,-1.8105,-1.9629,-2.0508,-2.0605,-2.0605,-2.0605,-1.8948,-1.7534,-1.6662,-1.3334,0.0,0.0,0.0,0.0,0.0,0.0,0.0,0.0,0.0,0.0,0.0,0.0,0.0,0.0,0.0,0.0,0.0,0.0,0.0,0.0,0.0,0.0,0.0,0.0,0.0,0.0,0.0,0.0,0.0,0.0,0.0,0.0,0.0,0.0,0.0,0.0,0.0,0.0,0.0,0.0,0.0,0.0,0.0,0.0,0.0,0.0,0.0,0.0,0.0,0.0,0.0,0.0,0.0,0.0,0.0,0.0,0.0,0.0,0.0,0.0,-1.8916,0.0,0.0,0.0,0.0,0.0,0.0,0.0,0.0,0.0,0.0,0.0,0.0,0.0,0.0,0.0,0.0,0.0,0.0,0.0,0.0,0.0,0.0,0.0,0.0,0.0,0.0,0.0,0.0,0.0,0.0,0.0,0.0,0.0,0.0,0.0,0.0,0.0,0.0,0.0,0.0,-1.6484,-1.8594,-2.0098,-2.0547,-2.0605,-2.0605,-2.0605,-1.9316,-1.8152,-1.7282,-1.4719,0.0,0.0,0.0,0.0,0.0,0.0,0.0,0.0,0.0,0.0,0.0,0.0,0.0,0.0,0.0,0.0,0.0,0.0,0.0,0.0,0.0,0.0,0.0,0.0,0.0,0.0,0.0,0.0,0.0,0.0,0.0,0.0,0.0,0.0,0.0,0.0,0.0,0.0,0.0,0.0,0.0,0.0,0.0,0.0,0.0,0.0,0.0,0.0,0.0,0.0,0.0,0.0,0.0,-2.8154,-2.7888,-2.483,-2.4117,-2.3524,-2.3006,-2.1119,-2.0344,-2.0349,-1.9323,0.0,0.0,0.0,0.0,0.0,0.0,0.0,0.0,0.0,0.0,0.0,0.0,0.0,0.0,0.0,0.0,0.0,0.0,0.0,0.0,0.0,0.0,0.0,0.0,-2.1074,-2.0898,-1.6426,0.0,0.0,0.0,0.0,0.0,0.0,0.0,0.0,0.0,0.0,0.0,-1.7012,-1.918,-2.0605,-2.0605,-2.0605,-2.0605,-2.0585,-1.9738,-1.8825,-1.7957,-1.621,-1.4522,0.0,0.0,0.0,0.0,0.0,0.0,0.0,0.0,0.0,0.0,0.0,0.0,0.0,0.0,0.0,0.0,0.0,0.0,0.0,0.0,0.0,0.0,0.0,0.0,0.0,0.0,0.0,0.0,0.0,0.0,0.0,0.0,-0.5987,-0.9084,0.0,0.0,0.0,0.0,0.0,0.0,0.0,0.0,0.0,0.0,0.0,0.0,0.0,-1.9656,-1.9635,-1.9635,-2.1538,-2.5308,-2.5769,-2.7217,-2.9465,-2.7936,-2.7195,-2.7113,-2.6819,0.0,-2.0543,-2.0219,0.0,0.0,0.0,0.0,0.0,0.0,0.0,0.0,0.0,0.0,0.0,0.0,0.0,0.0,0.0,0.0,0.0,0.0,0.0,0.0,0.0,0.0,-2.2617,-2.2676,-2.2852,-2.2637,0.0,-1.918,-1.7363,-1.6387,-1.4883,0.0,0.0,0.0,0.0,0.0,0.0,0.0,-1.875,-1.9922,-2.0605,-2.0605,-2.0605,-2.0585,-2.0514,-1.9704,-1.884,-1.7959,-1.6258,-1.4844,-1.3861,-1.2324,0.0,0.0,0.0,0.0,0.0,0.0,0.0,0.0,0.0,0.0,0.0,0.0,0.0,0.0,0.0,0.0,0.0,0.0,0.0,0.0,0.0,0.0,0.0,0.0,0.0,0.0,0.0,0.0,0.0,-0.7016,-0.8022,-1.2435,-1.2962,-1.1635,0.0,0.0,0.0,0.0,0.0,0.0,0.0,0.0,0.0,-1.8138,-2.1346,-2.3115,-2.3115,-2.3115,-2.3846,-2.5327,-2.725,-2.8462,-2.9006,-2.9217,-2.9313,-2.9313,-2.9313,-2.8082,-2.5948,-2.3936,-2.3115,-2.2769,0.0,0.0,0.0,0.0,-1.7269,-2.2904,-2.1404,-2.2827,-2.5,-2.3096,0.0,0.0,0.0,0.0,0.0,0.0,0.0,0.0,0.0,0.0,-2.3848,-2.3867,-2.4258,-2.4375,-2.3496,-2.2402,-2.1055,0.0,-1.748,-1.6133,-1.5644,0.0,0.0,0.0,0.0,-1.7871,-1.9141,-2.0059,-2.0605,-2.0605,-2.0605,-2.0565,-2.051,-2.0127,-1.9301,-1.7975,-1.7146,-1.6101,-1.4784,-1.3563,-1.2474,0.0,0.0,0.0,0.0,0.0,0.0,0.0,0.0,0.0,0.0,0.0,0.0,0.0,0.0,0.0,0.0,0.0,0.0,0.0,0.0,0.0,0.0,0.0,0.0,0.0,0.0,0.0,0.0,-0.9023,-0.984,-1.4196,-1.5628,-1.511,0.0,0.0,0.0,0.0,0.0,0.0,-2.4404,-2.5481,-2.4423,-2.1043,-2.3788,-2.5308,-2.5308,-2.6173,-2.6596,-2.6635,-2.9173,-2.975,-2.8588,-2.9921,-3.0537,-3.0509,-3.0433,-3.0404,-3.0192,-2.7654,-2.6596,-2.6269,-2.2904,-2.0019,-1.7788,-1.7788,-2.0981,-2.5308,-2.5308,-2.5308,-2.4885,-2.2385,-2.3269,-2.5308,-2.5308,0.0,0.0,0.0,0.0,-2.3144,-2.293,-2.3965,-2.5019,-2.4785,-2.5234,-2.5527,-2.4863,-2.4551,-2.3789,0.0,-2.0039,-1.8789,-1.8144,0.0,0.0,0.0,0.0,-1.8984,-1.9844,-2.0332,-2.0605,-2.0605,-2.0605,-2.0564,-2.048,-2.044,-1.9799,-1.8305,-1.7963,-1.7171,-1.5718,-1.4819,-1.3937,-1.3041,0.0,0.0,0.0,0.0,0.0,0.0,0.0,0.0,0.0,0.0,0.0,0.0,0.0,0.0,0.0,0.0,0.0,0.0,0.0,0.0,0.0,0.0,0.0,0.0,0.0,0.0,0.0,0.0,0.0,-1.3124,-1.6777,0.0,0.0,0.0,0.0,-1.4919,-2.1058,-2.425,-2.299,-2.601,-2.6202,-2.2778,-2.4385,-2.5308,-2.5308,-2.8519,-3.0135,-3.0154,-3.0327,-3.0365,-3.0287,-3.0687,-3.0878,-3.0856,-3.0531,-3.0404,-3.0385,-3.0212,-3.0135,-2.9808,-2.6385,-2.4942,-2.4788,-2.4788,-2.5019,-2.5308,-2.5308,-2.5308,-2.5269,-2.5096,-2.5154,-2.5308,-2.5308,-2.6515,0.0,0.0,-2.7344,-2.6543,-2.5723,-2.6191,-2.666,-2.582,-2.5664,-2.5684,-2.5644,-2.498,-2.4141,0.0,-2.2324,-2.1699,-2.1641,0.0,-2.0625,-2.1445,-2.0937,-2.0781,-2.166,-2.1074,-2.0605,-2.0605,-2.0605,-2.0541,-2.0422,-2.047,-2.0082,-1.9099,-1.8315,-1.7516,-1.6663,-1.5783,-1.4883,-1.395,-1.2294,0.0,0.0,0.0,0.0,0.0,0.0,0.0,0.0,0.0,0.0,0.0,0.0,0.0,0.0,0.0,0.0,0.0,0.0,0.0,0.0,0.0,0.0,0.0,0.0,0.0,0.0,0.0,0.0,-1.5076,-1.7746,0.0,-2.0148,-1.7826,-1.7362,-1.9907,-2.5365,-2.7673,-2.5615,-2.7024,-2.7337,-2.6125,-2.5577,-2.6365,-2.8558,-2.9788,-3.051,-3.0722,-3.0722,-3.0722,-3.0724,-3.0854,-3.0774,-3.0576,-3.0455,-3.0404,-3.0577,-3.2769,-3.2385,-3.0288,-2.9058,-2.8577,-2.8577,-2.8577,-2.8577,-2.8577,-2.8577,-2.8577,-2.8577,-2.8577,-2.8733,-2.8853,-2.8652,-2.8446,-2.8535,-2.9668,-2.9219,-2.8242,-2.7559,-2.7598,-2.7754,-2.7441,-2.6934,-2.6543,-2.6543,-2.5859,-2.5156,-2.4863,-2.3652,-2.2695,-2.2734,-2.2441,-2.2148,-2.1934,-2.2109,-2.2187,-2.1934,-2.1621,-2.1211,-2.0664,-2.0605,-2.0564,-2.0476,-2.0482,-1.987,-1.8424,-1.8067,-1.7285,-1.5922,-1.557,-1.5232,-1.4901,-1.3722,-1.2415,0.0,0.0,0.0,0.0,0.0,0.0,0.0,0.0,0.0,0.0,0.0,0.0,0.0,0.0,0.0,0.0,0.0,0.0,0.0,0.0,0.0,0.0,0.0,0.0,0.0,0.0,-1.6187,-1.6881,-1.9126,-2.084,-2.1403,-2.0425,-2.0812,-2.3342,-2.7286,-2.8904,-2.7385,-2.7678,-2.7621,-2.7044,-2.7019,-2.8155,-3.0552,-3.0572,-3.0689,-3.0898,-3.0898,-3.0898,-3.0898,-3.0898,-3.0717,-3.0462,-3.1615,-3.2115,-3.2308,-3.4577,-3.4154,-3.2058,-3.1462,-3.0904,-3.0404,-3.0404,-3.0404,-3.0404,-3.0404,-3.0404,-3.0404,-3.0404,-3.0579,-3.0776,-3.061,-2.992,-2.9414,-3.0566,-3.0351,-2.9609,-2.8926,-2.873,-2.8652,-2.8379,-2.7637,-2.707,-2.7383,-2.6523,-2.5781,-2.6074,-2.4961,-2.3984,-2.4043,-2.4004,-2.3809,-2.3262,-2.3418,-2.3398,-2.2812,-2.2246,-2.168,-2.1094,-2.0781,-2.0565,-2.051,-2.0236,-1.9682,-1.8839,-1.7979,-1.7133,-1.6301,-1.5716,-1.5401,-1.5395,-1.4488,-1.3176,-1.149,0.0,0.0,0.0,0.0,0.0,0.0,0.0,0.0,0.0,0.0,0.0,0.0,0.0,0.0,0.0,0.0,0.0,0.0,0.0,0.0,0.0,0.0,0.0,-1.362,-1.6139,-1.8054,-1.8371,-2.091,-2.2182,-2.1033,-2.3199,-2.4763,-2.5025,-2.6866,-2.7953,-2.7895,-2.7953,-2.7198,-2.5519,-2.8673,-3.0564,-3.0898,-3.0898,-3.0898,-3.0898,-3.0898,-3.0957,-3.1055,-3.1054,-3.0864,-3.075,-3.4058,-3.55,-3.55,-3.55,-3.55,-3.5327,-3.3641,-3.1987,-3.0558,-3.05,-3.0442,-3.0404,-3.0404,-3.0404,-3.0404,-3.0404,-3.05,-3.0633,-3.0834,-3.0898,-3.0898,-3.0898,-3.0898,-3.0703,-2.9863,-2.9648,-2.9434,-2.8574,-2.7715,-2.7305,-2.8164,-2.6992,-2.6016,-2.6836,-2.6328,-2.5723,-2.5703,-2.5703,-2.5703,-2.5703,-2.498,0.0,-2.4394,-2.2969,-2.1934,-2.1894,-2.1113,-2.0565,-2.0511,-1.9732,-1.9595,-2.041,-1.8129,-1.7122,-1.7969,-1.6348,-1.5447,-1.5434,-1.4482,-1.3184,-1.1533,0.0,0.0,0.0,0.0,0.0,0.0,0.0,0.0,0.0,0.0,0.0,0.0,0.0,0.0,0.0,0.0,0.0,0.0,0.0,0.0,0.0,-1.8369,-1.9076,-1.7374,-1.8166,-1.9387,-2.0683,-2.2573,-2.3685,-2.3502,-2.5046,-2.6081,-2.6141,-2.8369,-2.9179,-2.7953,-2.9044,-2.9481,-2.9019,-2.9904,-3.0564,-3.0898,-3.0898,-3.0898,-3.0898,-3.0898,-3.2207,-3.459,-3.4347,-3.4191,-3.4154,-3.5096,-3.55,-3.55,-3.55,-3.55,-3.5442,-3.4962,-3.45,-3.3942,-3.2679,-3.1442,-3.0404,-3.0404,-3.0404,-3.0404,-3.0404,-3.0516,-3.0674,-3.0678,-3.0783,-3.0898,-3.0898,-3.0898,-3.084,-3.0605,-3.0547,-3.0488,-3.0234,-2.9512,-2.8945,-2.9199,-2.8379,-2.7461,-2.707,-2.6816,-2.6445,-2.5801,-2.5703,-2.5703,-2.5703,-2.5508,0.0,-2.4473,-2.3457,-2.2559,-2.1953,-2.1113,-2.0586,-2.0565,-2.035,-2.0036,-1.9596,-1.8355,-1.7728,-1.7913,-1.6855,-1.6274,-1.6268,-1.478,-1.3496,0.0,0.0,0.0,0.0,0.0,0.0,0.0,0.0,0.0,0.0,0.0,0.0,0.0,0.0,0.0,0.0,0.0,0.0,0.0,0.0,0.0,0.0,-2.0827,-2.167,-2.0831,-2.087,-2.1356,-2.2388,-2.3959,-2.5039,-2.5231,-2.6638,-2.7503,-2.7491,-2.9288,-2.9962,-2.9006,-2.9865,-3.0404,-3.0404,-3.0404,-3.1251,-3.3027,-3.3047,-3.3047,-3.3047,-3.3047,-3.4082,-3.5996,-3.5808,-3.564,-3.55,-3.55,-3.55,-3.55,-3.55,-3.55,0.0,0.0,0.0,0.0,0.0,-3.25,-3.1481,-3.1731,-3.1827,-3.1788,-3.1519,-3.1577,-3.1595,-3.0828,-3.0747,-3.0898,-3.0898,-3.0898,-3.0898,-3.0898,-3.0898,-3.0898,-3.0898,-3.0234,-2.9707,-3.0078,-2.918,-2.8144,-2.7637,-2.7246,0.0,-2.5859,-2.5703,-2.5703,-2.5703,-2.5703,-2.5527,-2.5019,-2.3887,-2.2949,-2.2458,-2.1328,-2.0586,-2.0563,-2.0227,0.0,0.0,0.0,-1.7907,-1.7853,-1.7401,0.0,0.0,0.0,0.0,0.0,0.0,0.0,0.0,-1.3306,-1.3496,0.0,0.0,0.0,0.0,0.0,0.0,0.0,0.0,0.0,0.0,0.0,0.0,0.0,0.0,0.0,0.0,-2.207,-2.2405,-2.362,-2.3714,-2.3675,-2.3778,-2.5163,-2.6256,-2.6556,-2.7993,-2.8919,-2.8893,-2.9827,-3.0404,-3.0404,0.0,0.0,0.0,0.0,-3.2239,-3.5957,-3.5996,-3.5996,-3.5996,-3.5996,-3.5996,-3.5996,-3.5976,-3.5808,-3.55,-3.55,-3.55,-3.55,-3.55,-3.55,-3.55,-3.55,-3.4885,-3.3981,-3.3981,-3.3654,-3.3256,-3.3654,0.0,0.0,-3.3108,-3.305,-3.2924,-3.1432,-3.1043,-3.1094,-3.1094,-3.1094,-3.1055,-3.0937,-3.0898,-3.0898,-3.0898,-3.0312,-2.9961,-3.0723,-2.9687,-2.8555,-2.8476,-2.7734,-2.6875,-2.5996,-2.5762,-2.5703,-2.5703,-2.5703,-2.5703,-2.5703,-2.4238,-2.3163,-2.3113,0.0,0.0,-2.051,-1.9779,-1.9674,-2.0443,-1.8962,-1.8033,-1.7944,-1.8009,-1.8031,-1.8038,-1.7948,-1.7895,-1.7919,-1.7903,-1.7951,-1.7991,-1.5635,-1.5323,0.0,0.0,0.0,0.0,0.0,0.0,0.0,0.0,0.0,0.0,0.0,0.0,0.0,0.0,0.0,-2.1796,-2.315,-2.415,-2.3833,-2.4905,-2.5675,-2.5536,-2.6382,-2.7316,-2.8235,-2.9146,-2.9787,-3.004,-3.0288,-3.0404,-3.0404,-3.0404,-3.0404,-3.0404,-3.0653,-3.2473,-3.5976,-3.5996,-3.5996,-3.5996,0.0,0.0,-3.5996,-3.5838,-3.5666,-3.55,-3.55,-3.55,-3.55,-3.55,-3.55,-3.55,-3.55,-3.5365,-3.5173,-3.5173,-3.5096,-3.4885,-3.4077,-3.3808,-3.3718,-3.3227,-3.3125,-3.3222,-3.3388,-3.2874,0.0,-3.2266,-3.2266,-3.2051,-3.1133,-3.0898,-3.0898,-3.0898,-3.0762,-3.0684,-3.0859,-3.0644,-3.0195,-2.9492,-2.8633,-2.7773,-2.6894,-2.6172,-2.5703,-2.5703,-2.5703,-2.5703,-2.5703,-2.4238,-2.3164,-2.3105,-2.1557,-2.0512,-2.0508,-2.0302,-2.0239,-2.0404,-2.0046,-1.9533,-1.8875,-1.8807,-1.8805,-1.8873,-1.824,-1.7921,-1.7988,-1.7987,-1.8338,-1.9002,-1.7744,-1.7347,0.0,0.0,0.0,0.0,0.0,0.0,0.0,0.0,0.0,0.0,0.0,-1.4561,-1.6538,0.0,-2.2636,-2.3346,-2.4033,-2.4517,-2.4549,-2.5655,-2.6412,-2.6314,-2.7408,-2.8363,-2.89,-2.9672,-3.0228,-3.0398,-3.0404,-3.0404,-3.0404,-3.1192,-3.1697,-3.1809,-3.288,-3.4277,-3.5976,-3.5996,-3.5996,-3.5996,-3.5996,-3.5996,-3.5996,-3.5902,-3.5743,-3.5554,-3.5554,-3.5527,-3.55,-3.55,-3.55,-3.55,-3.55,-3.55,-3.55,-3.55,-3.55,-3.5417,-3.4891,-3.4708,-3.4679,-3.4475,-3.4478,-3.4596,-3.4863,-3.4339,-3.3496,-3.2793,-3.25,-3.2168,-3.1152,-3.0898,-3.0898,-3.0898,-3.0898,-3.0898,-3.0898,-3.0857,-3.0559,-2.9719,-2.884,-2.7961,-2.7102,-2.6248,-2.5703,-2.5703,-2.5703,-2.5703,-2.5703,-2.459,-2.3613,-2.314,-2.1922,-2.0951,-2.0485,-2.04,-2.0349,-2.0352,-2.0328,-2.0127,-1.9712,-1.9709,-1.9728,-1.9741,-1.9419,-1.927,-1.9297,-1.9297,-1.9512,-1.9941,-1.9471,-1.9254,0.0,0.0,0.0,0.0,0.0,0.0,0.0,0.0,-1.5712,-1.5846,-1.6038,-1.675,-1.8596,-2.0692,-2.2788,-2.475,-2.4639,-2.4567,-2.5212,-2.6058,-2.6601,-2.6601,-2.8082,-2.9165,-2.9338,-2.9981,-3.0404,-3.0404,-3.0404,-3.05,-3.0712,-3.1979,-3.2894,-3.3343,-3.4841,-3.5741,-3.5996,-3.5996,-3.5996,-3.5996,-3.5996,-3.5996,-3.5996,-3.5995,-3.5864,-3.5667,-3.562,-3.5557,-3.55,-3.55,-3.55,-3.55,-3.55,-3.55,-3.55,-3.55,-3.55,-3.5508,-3.5577,-3.5611,-3.5616,-3.5716,-3.5807,-3.5882,-3.5859,-3.5418,-3.4648,-3.3164,-3.2598,-3.2207,-3.1172,-3.0898,-3.0898,-3.0898,-3.0898,-3.0898,-3.0898,-3.0676,-3.0325,-2.9835,-2.8756,-2.7756,-2.7234,-2.6339,-2.5683,-2.5703,-2.5703,-2.5703,-2.5703,-2.4941,-2.4061,-2.3188,-2.2302,-2.1402,-2.0461,-2.0324,-2.0295,-2.0292,-2.0308,-2.0308,-2.0308,-2.0349,-2.0398,-2.0408,-2.0514,-2.0586,-2.0605,-2.0605,-2.0605,-2.0605,-2.0605,-2.0605,-1.1365,-1.1331,-1.1594,-1.1457,-1.4448,-1.7372,0.0,0.0,-1.7561,-1.8115,-1.9019,-1.9808,-2.0058,-2.1523,-2.3047,-2.4067,-2.4755,-2.5192,-2.5288,-2.6058,-2.6601,-2.6601,-2.8082,-2.939,-3.0173,-3.0346,-3.0404,-3.0404,-3.0404,-3.0846,-3.1865,-3.1916,-3.254,-3.3871,-3.4177,-3.4866,-3.5996,-3.5996,-3.5996,-3.5996,-3.5996,-3.5996,-3.5996,-3.5944,-3.5882,-3.5862,-3.5674,-3.5568,-3.55,-3.55,-3.55,-3.55,-3.55,-3.55,-3.55,-3.55,-3.55,-3.5508,-3.5577,-3.5611,-3.5631,-3.5816,-3.5898,-3.591,-3.5953,-3.5918,-3.5508,-3.3789,-3.3281,-3.2891,-3.1309,-3.0898,-3.0898,-3.0898,-3.0898,-3.0898,-3.0898,-3.0228,-2.9821,-3.0443,-2.862,-2.7197,-2.7933,-2.6696,-2.5633,-2.5683,-2.5703,-2.5703,-2.5703,-2.4941,-2.4061,-2.3188,-2.2262,-2.1335,-2.0399,-2.0292,-2.03,-2.0308,-2.0308,-2.0308,-2.0308,-2.0315,-2.0335,-2.0408,-2.0476,-2.054,-2.0605,-2.0605,-2.0605,-2.0605,-2.0605,-2.0605,-1.3734,-1.3806,-1.3945,0.0,-1.6135,-1.7699,-1.7699,-1.8084,-1.853,-1.8776,-1.9619,-2.0596,-2.1581,-2.2336,-2.324,0.0,-2.5077,-2.5308,-2.5308,-2.6058,-2.6601,-2.6601,-2.8082,-2.9242,-2.9602,-3.0096,-3.0404,-3.0404,-3.1019,-3.1538,-3.1846,-3.2758,-3.357,-3.4271,-3.4849,-3.5411,-3.5996,-3.5996,-3.5996,-3.5996,-3.5996,-3.5996,-3.5996,-3.5973,-3.5893,-3.5789,-3.5648,-3.5562,-3.55,-3.55,-3.55,-3.55,-3.55,-3.55,-3.55,-3.55,-3.55,-3.5521,-3.5611,-3.5659,-3.5694,-3.5893,-3.5951,-3.5952,-3.5996,-3.5996,-3.5644,-3.3887,-3.3398,-3.3008,-3.1348,-3.0898,-3.0898,-3.0898,-3.0898,-3.0898,-3.0898,-3.0509,-3.0107,-2.9973,-2.8613,-2.745,-2.7348,-2.6365,-2.5605,-2.5635,-2.5682,-2.5703,-2.5703,-2.5371,-2.4606,-2.3185,-2.2192,-2.1287,-2.0381,-2.0308,-2.0308,-2.0308,-2.0306,-2.029,-2.0292,-2.0373,-2.0418,-2.0408,-2.0509,-2.0565,-2.0605,-2.0605,-2.0859,-2.1367,-2.1367,-2.1602,-1.4916,-1.5145,0.0,-1.6302,-1.724,-1.7968,-1.8045,-1.8738,-1.9354,-1.9354,-1.985,-2.0731,-2.2177,-2.2447,-2.3004,-2.4697,-2.4962,-2.5058,-2.5269,-2.5846,-2.6327,-2.6563,-2.7871,-2.8857,-2.9088,-2.989,-3.0404,-3.0404,-3.1385,-3.2,-3.2025,-3.3509,-3.4509,-3.4815,-3.5541,-3.5948,-3.5996,-3.5996,-3.5996,-3.5996,-3.5996,-3.5996,-3.5996,-3.5996,-3.5905,-3.5755,-3.5659,-3.5585,-3.5534,-3.5501,-3.55,-3.55,-3.55,-3.55,-3.55,-3.55,-3.55,-3.5515,-3.5655,-3.5707,-3.5732,-3.5931,-3.5996,-3.5996,-3.5996,-3.5996,-3.5684,-3.418,-3.3594,-3.3066,-3.1621,-3.1074,-3.0898,-3.0898,-3.0898,-3.0898,-3.0898,-3.0573,-3.0158,-2.9791,-2.8574,-2.751,-2.7113,-2.6221,-2.5552,-2.5566,-2.5633,-2.5683,-2.5703,-2.5467,-2.4711,-2.3178,-2.2131,-2.1234,-2.0373,-2.0308,-2.0308,-2.0308,-2.0297,-2.0304,-2.0292,-2.0407,-2.0443,-2.0391,-2.0538,-2.0605,-2.0605,-2.084,-2.1289,-2.1914,-2.2129,-2.2676,-1.429,0.0,-1.55,-1.6303,-1.7542,-1.8638,-1.8895,-1.9623,-2.025,-2.025,-2.0288,-2.0558,-2.1389,-2.1543,-2.21,-2.386,-2.4149,-2.4413,-2.5192,-2.5327,-2.5654,-2.6505,-2.739,-2.8242,0.0,-2.989,-3.0404,-3.0404,-3.1212,-3.2045,-3.2814,-3.3908,-3.4851,-3.5648,-3.5882,-3.5996,-3.5996,-3.5996,-3.5996,-3.5996,-3.5996,-3.5996,-3.5996,-3.5996,-3.5952,-3.5898,-3.5758,-3.5663,-3.559,-3.5534,-3.55,-3.55,-3.55,-3.55,-3.55,-3.55,-3.55,-3.5515,-3.5655,-3.5707,-3.5732,-3.5931,-3.5996,-3.5996,-3.5996,-3.5996,-3.5801,-3.4902,-3.4043,-3.3203,-3.2383,-3.1523,-3.0898,-3.0898,-3.0898,-3.0898,-3.0898,-3.0127,-2.9658,-3.0411,-2.8442,-2.6916,-2.7813,-2.6529,-2.5431,-2.5484,-2.5559,-2.5632,-2.5683,-2.4915,-2.4006,-2.3093,-2.2104,-2.1177,-2.0365,-2.0308,-2.0308,-2.0308,-2.0292,-2.0292,-2.0308,-2.0363,-2.0391,-2.0408,-2.0538,-2.0605,-2.0605,-2.1445,-2.1875,-2.1914,-2.2695,-2.3535,-1.5818,0.0,-1.7899,-1.8158,-1.8981,-1.975,-1.9831,-2.01,-2.0308,-2.0308,-2.0308,-2.0558,-2.135,-2.1504,-2.2062,-2.3821,-2.411,-2.4375,-2.5192,-2.5808,-2.6269,-2.6563,-2.7832,0.0,0.0,0.0,0.0,-3.0404,-3.1698,-3.2602,-3.2891,-3.4413,-3.5415,-3.5687,-3.5901,-3.5996,-3.5996,-3.5996,-3.5996,-3.5996,-3.5996,-3.5996,-3.5996,-3.5996,-3.5952,-3.59,-3.5761,-3.5667,-3.56,-3.5534,-3.55,-3.55,-3.55,-3.55,-3.55,-3.55,-3.55,-3.5515,-3.5655,-3.5707,-3.5732,-3.5931,-3.5996,-3.5996,-3.5996,-3.5996,-3.5703,-3.4258,-3.3633,-3.3086,-3.1699,-3.1113,-3.0898,-3.0898,-3.0898,-3.0898,-3.0898,-3.0534,-3.0119,-2.985,-2.896,-2.8002,-2.7215,-2.6612,-2.6094,-2.5648,-2.5594,-2.5605,-2.5633,-2.4859,-2.396,-2.3082,-2.2141,-2.1237,-2.0441,-2.0366,-2.0366,-2.0366,-2.0366,-2.0344,-2.0308,-2.0366,-2.0408,-2.0408,-2.0483,-2.0836,-2.1465,-2.1758,-2.2461,-2.3555,-2.3784,-2.4364,-1.736,-1.8238,-1.904,-1.9424,-1.9927,-2.0308,-2.0308,-2.0308,-2.0212,-1.9908,-1.9831,-1.9908,-2.01,-2.0404,-2.1173,-2.2893,-2.3432,-2.4125,-2.5558,-2.625,-2.6813,-2.7428,-2.8434,-2.9223,0.0,0.0,0.0,-3.0846,-3.2141,-3.3045,-3.3353,-3.4854,-3.5707,-3.5707,-3.5901,-3.5996,-3.5996,-3.5996,-3.5996,-3.5996,-3.5996,-3.5996,-3.5996,-3.5996,-3.5974,-3.5921,-3.5772,-3.569,-3.5626,-3.554,-3.55,-3.55,-3.55,-3.55,-3.55,-3.55,-3.55,-3.5521,-3.5621,-3.5675,-3.5729,-3.59,-3.5975,-3.5996,-3.5996,-3.5996,-3.5703,-3.4277,-3.3633,-3.3086,-3.1719,-3.1133,-3.0898,-3.0898,-3.0898,-3.0898,-3.0898,-3.0749,-3.045,-2.9928,-2.9193,-2.8338,-2.7255,-2.6588,-2.6041,-2.5598,-2.5535,-2.5549,-2.5598,-2.5081,-2.4289,-2.3117,-2.2457,-2.1648,-2.0504,-2.0408,-2.0408,-2.0408,-2.037,-2.034,-2.0291,-2.0337,-2.0359,-2.0359,-2.0446,-2.0945,-2.1853,-2.2187,-2.3047,-2.4414,-2.4683,-2.5083,-1.8748,-1.8993,-1.9026,-2.0042,-2.0308,-2.0296,-2.0296,-2.0273,-2.0004,-1.9172,-1.8976,-1.8684,-1.7853,0.0,-1.9554,-2.1231,-2.2235,-2.3697,-2.6236,-2.664,-2.7274,0.0,0.0,0.0,0.0,0.0,0.0,-3.1756,0.0,-3.3276,-3.4148,-3.5145,-3.5707,-3.5707,-3.5901,-3.5996,-3.5996,-3.5996,-3.5996,-3.5996,-3.5996,-3.5996,-3.5996,-3.5996,-3.5996,-3.5996,-3.5792,-3.5707,-3.5689,-3.5564,-3.55,-3.55,-3.55,-3.55,-3.55,-3.55,-3.55,-3.5508,-3.5571,-3.5629,-3.572,-3.5867,-3.5947,-3.5996,-3.5996,-3.5996,-3.582,-3.4941,-3.4101,-3.3262,-3.2422,-3.1582,-3.0957,-3.0918,-3.0898,-3.0898,-3.0898,-3.0749,-3.0603,-3.0603,-2.9135,-2.7895,-2.7838,-2.6428,-2.5312,-2.5395,-2.5406,-2.545,-2.559,-2.5506,-2.4832,-2.3236,-2.3024,-2.2343,-2.0671,-2.0496,-2.0476,-2.0476,-2.0378,-2.0316,-2.0316,-2.0307,-2.0304,-2.031,-2.0469,-2.0995,-2.1876,-2.2732,-2.3613,-2.4492,-2.5312,-2.566,-1.9081,-1.9578,-2.0029,-2.0247,-2.0295,-2.0299,-2.0299,-1.9808,-1.9279,-1.9113,-1.8519,-1.7968,-1.7738,-1.8411,0.0,-2.1235,-2.2235,0.0,-2.6236,-2.7159,0.0,-2.8973,0.0,-3.0404,-3.1269,-3.1371,0.0,0.0,-3.3141,-3.3276,-3.4148,-3.5145,-3.5707,-3.5707,-3.5901,-3.5996,-3.5996,-3.5996,-3.5996,-3.5996,-3.5996,-3.5996,-3.5996,-3.5996,-3.5996,-3.5996,-3.5792,-3.5707,-3.5689,-3.5564,-3.55,-3.55,-3.55,-3.55,-3.55,-3.55,-3.55,-3.5507,-3.5515,-3.5596,-3.572,-3.5867,-3.5947,-3.5996,-3.5996,-3.5996,-3.582,-3.4941,-3.4531,-3.4023,-3.2578,-3.2031,-3.1699,-3.1055,-3.0898,-3.0898,-3.0898,-3.0749,-3.0603,-3.0603,-2.9135,-2.7678,-2.7044,-2.6019,-2.5312,-2.5395,-2.5359,-2.5364,-2.5517,-2.4999,-2.444,-2.4003,-2.3425,-2.2909,-2.2514,-2.189,-2.1518,-2.1518,-2.0809,-2.0368,-2.0368,-2.0321,-2.0301,-2.0307,-2.1023,-2.1852,-2.2775,-2.3631,-2.4512,-2.5371,-2.5541,-2.5597,-1.9698,-2.0104,-2.0408,-2.0381,-2.0378,-2.0235,-1.9854,-1.9394,-1.8728,-1.763,-1.7275,0.0,-1.5711,-1.7119,0.0,0.0,0.0,0.0,-2.6236,-2.7351,-2.8332,0.0,-3.0096,0.0,-3.1621,-3.1698,-3.2391,0.0,-3.3744,-3.3853,-3.4718,-3.534,-3.5679,-3.5703,-3.5866,-3.5973,-3.5996,-3.6387,-3.6387,-3.5996,-3.6387,-3.6367,-3.5996,-3.5996,-3.5996,-3.5996,0.0,-3.5707,-3.5689,-3.5564,-3.55,-3.55,-3.55,-3.55,-3.55,-3.55,-3.55,-3.55,-3.55,-3.5579,-3.5675,-3.5786,-3.5884,-3.5951,-3.5996,-3.5996,-3.582,-3.4941,-3.4707,-3.4316,-3.2637,-3.2207,-3.1973,-3.1113,-3.0898,-3.0898,-3.0898,-3.0749,-3.037,-2.9575,-2.8599,-2.7505,-2.625,-2.5615,-2.5313,-2.5346,-2.5317,-2.5361,-2.5473,-2.5104,-2.4697,-2.4347,-2.3915,-2.3532,-2.3184,-2.2715,-2.2441,-2.2461,-2.1881,-2.1539,-2.1539,-2.1088,-2.1009,-2.1392,-2.1597,-2.2341,-2.3631,-2.4156,-2.4844,-2.5703,-2.5633,-2.5561,-2.041,-2.0591,-2.0573,-2.0522,-2.0467,-2.0175,-1.9309,-1.8934,-1.8092,-1.5717,0.0,-1.5368,-1.3268,-1.5345,-1.7487,-1.7815,0.0,-2.3562,-2.6236,-2.7351,-2.8525,-3.0192,-3.0404,-3.0788,-3.1756,-3.1852,-3.2564,-3.4244,-3.4379,-3.4699,-3.5462,-3.5568,-3.5639,-3.572,-3.5847,-3.5945,-3.5996,-3.6855,-3.6855,-3.6016,-3.6875,-3.6836,-3.5996,-3.5996,-3.5996,-3.5996,-3.5799,-3.5717,-3.5693,-3.5548,-3.5501,-3.55,-3.55,-3.55,-3.55,-3.55,-3.55,-3.55,-3.55,-3.554,-3.5605,-3.5687,-3.5797,-3.591,-3.5975,-3.5996,-3.584,-3.5098,-3.4785,-3.4336,-3.2773,-3.2285,-3.1973,-3.1113,-3.0898,-3.0898,-3.0898,-3.0749,-3.0092,-2.8395,-2.7972,-2.7371,-2.575,-2.5385,-2.5308,-2.5308,-2.5308,-2.5352,-2.5479,-2.5486,-2.5243,-2.4568,-2.4548,-2.4277,-2.3516,-2.334,-2.3301,-2.3359,-2.3135,-2.3009,-2.3,-2.2149,-2.204,-2.2797,-2.2294,-2.2792,-2.4293,-2.4484,-2.4961,-2.5683,-2.5632,-2.5559,-2.0742,-2.1113,-2.1461,-2.0688,-2.0484,-2.0244,-1.9379,-1.8069,0.0,0.0,-1.4303,-1.3442,-1.3728,-1.4786,-1.6311,-1.8434,0.0,0.0,0.0,0.0,-2.8525,0.0,0.0,0.0,0.0,0.0,0.0,0.0,0.0,-3.5346,-3.5481,-3.5568,-3.5674,-3.5867,-3.5948,-3.5995,-3.5996,-3.6855,-3.6855,-3.6016,-3.6875,-3.6836,-3.5996,-3.5996,-3.5996,-3.5996,-3.5893,0.0,-3.5696,-3.5621,-3.5552,-3.55,-3.55,-3.55,-3.55,-3.55,-3.55,-3.55,-3.55,-3.5501,-3.554,-3.5663,-3.5797,-3.591,-3.5975,-3.5996,-3.5976,-3.582,-3.5254,-3.4473,-3.3457,-3.2695,-3.1973,-3.1113,-3.0898,-3.0898,-3.0898,-3.0749,-3.0263,-2.9109,-2.8357,-2.7582,-2.6544,-2.5788,-2.5308,-2.5308,-2.5308,-2.5321,-2.5409,-2.5471,-2.5492,-2.5467,-2.5469,-2.541,-2.5254,-2.459,-2.418,-2.4199,-2.3486,-2.3065,-2.3,-2.2774,-2.2704,-2.2797,-2.3484,-2.4001,-2.4293,-2.5089,-2.5525,-2.5628,-2.5604,-2.5522,-2.0703,-2.0918,-2.1113,-2.0661,-2.021,-1.9525,-1.8208,0.0,0.0,0.0,-1.3049,-1.2593,-1.2106,0.0,0.0,0.0,0.0,0.0,0.0,0.0,0.0,0.0,0.0,0.0,0.0,0.0,0.0,0.0,0.0,-3.55,-3.55,-3.56,-3.5698,-3.5797,-3.5928,-3.5996,-3.5996,-3.7305,-3.7305,-3.6016,-3.7344,-3.7285,-3.5996,-3.5996,-3.5996,-3.5996,-3.5859,-3.5802,-3.5797,-3.5653,-3.5588,-3.5558,-3.5558,-3.5522,-3.55,-3.55,-3.55,-3.55,-3.55,-3.55,-3.5522,-3.5659,-3.5732,-3.5819,-3.5954,-3.5996,-3.5996,-3.5996,-3.5703,-3.5078,-3.373,-3.3105,-3.25,-3.1211,-3.0898,-3.0878,-3.0777,-3.0672,-3.0302,-2.9301,-2.8453,-2.7621,-2.6755,-2.5885,-2.5308,-2.5308,-2.5308,-2.5312,-2.5387,-2.5425,-2.5498,-2.5594,-2.5632,-2.5658,-2.5658,-2.5292,-2.5078,-2.5078,-2.4641,-2.4386,-2.4347,-2.3856,-2.3769,-2.4142,-2.4216,-2.4452,-2.4877,-2.5357,-2.557,-2.5551,-2.552,-2.5465,-2.0605,-2.0742,-2.082,-2.0644,-1.9941,-1.8847,-1.7103,-1.5877,0.0,0.0,-1.1919,-1.1875,-1.069,0.0,-1.4775,0.0,0.0,0.0,0.0,0.0,0.0,0.0,0.0,0.0,0.0,0.0,0.0,0.0,0.0,0.0,-3.55,-3.5616,-3.5686,-3.5703,-3.5875,-3.5995,-3.5996,-3.7539,-3.7539,-3.6016,-3.7578,-3.7519,-3.5996,-3.5996,-3.5996,-3.5996,-3.5838,-3.5817,-3.5896,-3.5698,-3.5616,-3.5605,-3.5574,-3.5546,-3.55,-3.55,-3.55,-3.55,-3.55,-3.55,-3.5522,-3.5659,-3.5707,-3.5738,-3.5932,-3.5996,-3.5996,-3.5996,-3.5723,-3.5137,-3.3769,-3.3125,-3.2539,-3.1211,-3.0898,-3.0836,-3.0636,-3.0603,-3.036,-2.9547,-2.8723,-2.7876,-2.7024,-2.6154,-2.5519,-2.5327,-2.5308,-2.5322,-2.5375,-2.5372,-2.5406,-2.5456,-2.5537,-2.557,-2.557,-2.5636,-2.5683,-2.5683,-2.5636,-2.5608,-2.5602,-2.489,-2.4775,-2.5394,-2.4794,-2.4775,-2.5409,-2.5477,-2.5484,-2.5488,-2.5418,-2.5387,-2.0605,-2.1172,-2.1582,-2.0801,-1.9941,-1.8848,-1.7109,0.0,0.0,-1.1953,-1.0973,-1.0633,-1.1269,-1.2233,-1.3436,0.0,0.0,-1.9915,0.0,0.0,0.0,0.0,0.0,0.0,0.0,0.0,0.0,0.0,0.0,0.0,-3.55,-3.556,-3.5644,-3.5703,-3.5841,-3.5944,-3.5996,-3.6934,-3.6934,-3.6016,-3.6953,-3.6914,-3.5996,-3.5996,-3.5996,-3.5996,-3.5976,0.0,0.0,-3.5752,-3.5655,-3.5595,-3.5528,-3.5514,-3.55,-3.55,-3.55,-3.55,-3.55,-3.55,-3.5522,-3.5659,-3.5707,-3.5738,-3.5932,-3.5996,-3.5996,-3.5996,-3.4863,-3.3594,-3.3437,-3.2266,-3.1094,-3.0937,-3.0898,-3.0836,-3.0636,-3.0603,-3.0531,-3.0326,-2.9583,-2.8723,-2.7915,-2.7063,-2.6212,-2.5423,-2.5308,-2.5288,-2.5303,-2.5303,-2.5308,-2.5322,-2.5431,-2.552,-2.552,-2.5566,-2.5605,-2.5605,-2.566,-2.5661,-2.5603,-2.5517,-2.5455,-2.5394,-2.539,-2.539,-2.5398,-2.5474,-2.5479,-2.5404,-2.5406,-2.5367,-1.9824,-2.0449,-2.1035,-2.0684,-1.9551,-1.8066,-1.6309,0.0,-1.2891,-1.1172,-1.0527,-1.0349,-1.0653,-1.1403,-1.2523,-1.4216,-1.5287,-1.7196,-2.0792,0.0,0.0,0.0,0.0,0.0,0.0,0.0,0.0,0.0,0.0,0.0,-3.55,-3.5568,-3.5616,-3.5648,-3.5814,-3.591,-3.5944,-3.6834,-3.6855,-3.6016,-3.6875,-3.6836,-3.5996,-3.5996,-3.5996,-3.5996,-3.5951,0.0,0.0,-3.5855,-3.5768,-3.5659,-3.563,-3.5566,-3.55,-3.55,-3.55,-3.55,-3.55,-3.55,-3.5521,-3.5606,-3.5675,-3.5738,-3.5932,-3.5996,-3.5996,-3.5996,-3.5117,-3.4062,-3.3535,-3.2168,-3.0898,-3.0898,-3.0898,-3.0857,-3.0682,-3.0636,-3.0568,-3.0477,-2.9725,-2.8992,-2.8684,-2.7505,-2.6486,-2.6135,-2.5635,-2.5308,-2.5308,-2.5308,-2.5308,-2.5308,-2.5376,-2.5441,-2.5444,-2.5543,-2.5598,-2.559,-2.5659,-2.5683,-2.5661,-2.566,-2.5628,-2.5511,-2.5477,-2.5428,-2.5406,-2.5383,-2.5371,-2.5348,-2.5344,-2.5336,-1.9082,-1.9746,-2.0273,-2.0547,-1.9297,-1.7539,0.0,-1.4102,-1.2402,-1.0664,-1.0293,-1.0293,-1.0231,-1.1126,-1.2236,-1.3425,-1.4217,-1.5997,-1.9769,0.0,0.0,0.0,0.0,0.0,0.0,0.0,0.0,0.0,0.0,0.0,-3.55,-3.554,-3.5582,-3.5605,-3.5748,-3.5848,-3.5901,-3.6553,-3.6581,-3.6016,-3.6621,-3.6582,-3.5996,-3.5996,-3.5996,-3.5996,-3.5948,0.0,0.0,-3.5938,-3.5841,-3.5755,-3.5686,-3.5616,-3.5534,-3.5501,-3.55,-3.55,-3.55,-3.55,-3.5508,-3.5582,-3.5635,-3.5716,-3.5901,-3.5976,-3.5996,-3.5996,-3.5195,-3.4062,-3.2949,-3.1777,-3.0898,-3.0898,-3.0898,-3.0858,-3.0722,-3.0655,-3.0581,-3.0501,-2.9955,-2.9333,-2.8838,-2.789,-2.6981,-2.6327,-2.5692,-2.5308,-2.5308,-2.5308,-2.5308,-2.5308,-2.5344,-2.5375,-2.5364,-2.549,-2.557,-2.5568,-2.5656,-2.5703,-2.5703,-2.5703,-2.5662,-2.5602,-2.5498,-2.5418,-2.539,-2.5335,-2.5308,-2.5308,-2.5308,-2.5308,-1.8594,-1.9316,-1.9512,-2.0371,-1.9297,-1.7539,0.0,-1.4102,-1.2402,-1.0664,-1.0293,-1.0293,-1.0293,-1.1619,-1.2687,-1.2706,-1.4838,-1.7369,-1.9942,-2.1735,0.0,0.0,0.0,0.0,0.0,0.0,0.0,0.0,0.0,0.0,-3.55,-3.55,-3.5528,-3.5605,-3.5591,-3.571,-3.5901,-3.5901,-3.5941,-3.5996,-3.6016,-3.6016,-3.5996,-3.5996,-3.5996,-3.5996,0.0,0.0,0.0,-3.5938,-3.5901,-3.5873,-3.5689,-3.5611,-3.559,-3.5528,-3.55,-3.55,-3.55,-3.55,-3.5508,-3.5582,-3.5591,-3.564,-3.5848,-3.5948,-3.5996,-3.5996,-3.4746,-3.3027,-3.1367,-3.0918,-3.0898,-3.0898,-3.0898,-3.0858,-3.0722,-3.0655,-3.0581,-3.0501,-3.0432,-2.9865,-2.8198,-2.8352,-2.7904,-2.5654,-2.5308,-2.5308,-2.5308,-2.5308,-2.5308,-2.5308,-2.5308,-2.5308,-2.5308,-2.5414,-2.5495,-2.5508,-2.5632,-2.5703,-2.5703,-2.5703,-2.5662,-2.5602,-2.552,-2.5477,-2.539,-2.5335,-2.5308,-2.5308,-2.5308,-2.5308,-1.5684,-1.6621,-1.7441,-1.7129,-1.6621,-1.5781,-1.4082,-1.3281,-1.2402,-1.0664,-1.0293,-1.0488,-1.1074,-1.1565,-1.2666,-1.505,-1.6073,-1.7658,0.0,0.0,0.0,0.0,0.0,0.0,0.0,0.0,0.0,0.0,0.0,0.0,-3.55,-3.55,-3.5508,-3.5528,-3.5577,-3.5631,-3.5686,-3.5824,-3.591,-3.5921,-3.5975,-3.5996,-3.5996,-3.5996,-3.5996,0.0,0.0,-3.5996,-3.5996,-3.5975,-3.5945,-3.59,-3.5824,-3.5714,-3.5605,-3.5577,-3.5547,-3.55,-3.55,-3.55,-3.5507,-3.5528,-3.5562,-3.5621,-3.573,-3.5847,-3.5691,-3.455,-3.3437,-3.2324,-3.1191,-3.0898,-3.0898,-3.0898,-3.0898,-3.0858,-3.0722,-3.0655,-3.0581,-3.0501,-3.0451,-3.0038,-2.8915,-2.8717,-2.8192,-2.6692,-2.5808,-2.5308,-2.5308,-2.5308,-2.5308,-2.5308,-2.5308,-2.5308,-2.5308,-2.5414,-2.5495,-2.5508,-2.5632,-2.5703,-2.5703,-2.5703,-2.5683,-2.5662,-2.5603,-2.5541,-2.5479,-2.5406,-2.5348,-2.5308,-2.5308,-2.5308,-1.4082,-1.4883,-1.5664,-1.5449,-1.5156,-1.4551,-1.3203,-1.2656,-1.2012,-1.0586,-1.0293,-1.0566,-1.1445,-1.1799,-1.2787,-1.5314,-1.6193,-1.7642,0.0,0.0,0.0,0.0,0.0,0.0,0.0,0.0,0.0,0.0,0.0,0.0,-3.55,-3.55,-3.55,-3.55,-3.5547,-3.5571,-3.5611,-3.5752,-3.5845,-3.5903,-3.5973,-3.5996,-3.5996,-3.5996,-3.5996,0.0,0.0,-3.5996,0.0,-3.5996,-3.5974,-3.5942,-3.5908,-3.5819,-3.5694,-3.5626,-3.5571,-3.5534,-3.5508,-3.55,-3.55,-3.55,-3.5562,-3.5657,-3.5686,-3.5583,-3.5166,-3.3788,-3.2812,-3.1992,-3.1052,-3.0816,-3.0815,-3.0786,-3.0784,-3.0759,-3.0675,-3.0617,-3.0563,-3.0532,-3.0462,-3.0231,-2.9679,-2.9442,-2.8654,-2.6654,-2.575,-2.5308,-2.5308,-2.5308,-2.5308,-2.5308,-2.5308,-2.5308,-2.5308,-2.538,-2.5455,-2.5499,-2.5584,-2.5657,-2.5703,-2.5682,-2.5662,-2.5703,-2.5634,-2.5564,-2.5491,-2.5413,-2.5344,-2.5308,-2.5308,-2.5308,0.0,-1.3867,-1.4102,-1.4844,-1.4473,-1.3711,-1.2891,-1.2148,0.0,-1.0488,-1.0293,-1.0605,-1.1602,-1.2284,-1.3113,-1.4357,-1.5818,0.0,0.0,0.0,0.0,0.0,0.0,0.0,0.0,0.0,0.0,0.0,0.0,0.0,-3.55,-3.55,-3.55,-3.55,-3.55,-3.5522,-3.559,-3.5663,-3.5758,-3.5898,-3.5951,-3.5996,-3.5996,-3.5996,-3.5996,0.0,-3.5996,-3.5996,-3.5996,-3.5996,-3.5996,-3.5996,-3.5921,-3.5905,-3.5871,-3.5682,-3.5606,-3.559,-3.5541,-3.5494,-3.55,-3.55,-3.559,-3.5707,-3.5707,-3.5196,-3.4434,-3.3633,-3.2773,-3.1874,-3.0938,-3.0693,-3.068,-3.0603,-3.0603,-3.0603,-3.0597,-3.0552,-3.0511,-3.0571,-3.0491,-3.0404,-3.0404,-3.0404,-2.925,-2.5808,-2.5308,-2.5308,-2.5308,-2.5308,-2.5308,-2.5308,-2.5308,-2.5308,-2.5308,-2.5308,-2.5354,-2.5489,-2.551,-2.5563,-2.5683,-2.5634,-2.5635,-2.5703,-2.5636,-2.5567,-2.5515,-2.5371,-2.5308,-2.5308,-2.5308,-2.5308,-1.1094,0.0,-1.207,-1.1602,-1.1855,-1.1953,0.0,-1.127,-1.1348,-1.0488,0.0,-1.0957,-1.3125,-1.3066,-1.4102,-1.8377,-1.9355,0.0,0.0,0.0,0.0,0.0,0.0,0.0,0.0,0.0,0.0,0.0,0.0,-3.55,-3.55,-3.55,-3.55,-3.55,-3.55,-3.5501,-3.5522,-3.559,-3.5678,-3.5755,-3.5877,-3.5948,-3.5996,-3.5996,-3.5996,-3.5996,-3.5996,-3.5996,-3.5996,-3.5996,-3.5996,-3.5996,-3.5975,-3.5947,-3.59,-3.5853,-3.5725,-3.5605,-3.5588,-3.5534,-3.55,-3.55,-3.559,-3.5707,-3.5707,-3.4766,-3.3652,-3.3457,-3.2262,-3.0998,-3.0756,-3.0667,-3.0625,-3.0609,-3.0603,-3.0587,-3.0537,-3.056,-3.0546,-3.046,-3.0419,-3.0404,-3.0404,-3.0404,-2.925,-2.5808,-2.5308,-2.5308,-2.5308,-2.5308,-2.5308,-2.5308,-2.5308,-2.5308,-2.5308,-2.5308,-2.5303,-2.5345,-2.5537,-2.561,-2.5552,-2.5633,-2.5683,-2.5703,-2.5683,-2.5634,-2.557,-2.5395,-2.5308,-2.5308,-2.5308,-2.5308,-1.0293,-1.0937,-1.1484,-1.1016,-1.125,-1.1484,-1.0996,-1.0957,0.0,0.0,0.0,-1.1543,-1.3691,-1.4012,0.0,-1.9308,-2.0244,0.0,0.0,0.0,0.0,0.0,0.0,0.0,0.0,0.0,0.0,0.0,0.0,-3.55,-3.55,-3.55,-3.55,-3.55,-3.55,-3.55,-3.55,-3.5574,-3.5626,-3.5655,-3.5824,-3.5914,-3.597,-3.5995,-3.5996,-3.5996,-3.5996,-3.5996,-3.5996,-3.5996,-3.5996,-3.5996,-3.5996,-3.5975,-3.5945,-3.591,-3.5824,-3.5717,-3.5631,-3.5577,-3.5546,-3.5546,-3.5659,-3.5719,-3.5326,-3.4546,-3.3769,-3.3476,-3.2103,-3.069,-3.0667,-3.0592,-3.0552,-3.052,-3.0507,-3.049,-3.0462,-3.0487,-3.0491,-3.0408,-3.0404,-3.0404,-3.0404,-2.9096,-2.7423,-2.5577,-2.5308,-2.5329,-2.5471,-2.549,-2.549,-2.549,-2.549,-2.549,-2.549,-2.5375,-2.5308,-2.5308,-2.5434,-2.5471,-2.5401,-2.5485,-2.5566,-2.5703,-2.5703,-2.5682,-2.5651,-2.5413,-2.5308,-2.5308,-2.5308,-2.5308,-1.0469,-1.1211,-1.1914,-1.166,-1.1699,-1.1797,-1.1797,0.0,0.0,0.0,0.0,0.0,0.0,0.0,0.0,0.0,0.0,0.0,0.0,0.0,0.0,0.0,0.0,0.0,0.0,0.0,0.0,0.0,0.0,-3.5442,-3.5308,-3.5423,-3.55,-3.55,-3.55,-3.55,-3.55,-3.557,-3.559,-3.5591,-3.5759,-3.5867,-3.5903,-3.5951,-3.5996,-3.5996,0.0,0.0,-3.5996,-3.5996,-3.5996,-3.5996,-3.5996,-3.5996,-3.5975,-3.5916,-3.5898,-3.5858,-3.5674,-3.5621,-3.5621,-3.5621,-3.5739,-3.5765,-3.502,-3.4558,-3.418,-3.3574,-3.2105,-3.0713,-3.0628,-3.0548,-3.0463,-3.0414,-3.0404,-3.0404,-3.0404,-3.0404,-3.0404,-3.0404,-3.0404,-3.0404,-3.0404,-2.7558,-2.5308,-2.5308,-2.5335,-2.5441,-2.5662,-2.5703,-2.5703,-2.5703,-2.5703,-2.5703,-2.5703,-2.5456,-2.5308,-2.5308,-2.5308,-2.5308,-2.5308,-2.5308,-2.5437,-2.5683,-2.5703,-2.5703,-2.5703,-2.5477,-2.5344,-2.5308,-2.5308,-2.5308,-1.1191,-1.2539,-1.3379,-1.1953,-1.2148,-1.2695,-1.2695,0.0,0.0,0.0,0.0,0.0,0.0,0.0,0.0,0.0,0.0,0.0,0.0,0.0,0.0,0.0,0.0,0.0,0.0,0.0,0.0,0.0,0.0,-3.5173,-3.443,-3.5103,-3.55,-3.55,-3.55,-3.55,-3.55,-3.5508,-3.554,-3.5611,-3.5631,-3.5748,-3.5901,-3.591,-3.5947,-3.5996,0.0,-3.5996,-3.5996,-3.5996,-3.5996,-3.5996,-3.5996,-3.5972,-3.5911,-3.5905,-3.5834,-3.572,-3.5693,-3.5682,-3.5682,-3.5682,-3.5789,-3.5861,-3.5669,-3.5003,-3.418,-3.3574,-3.2187,-3.0834,-3.0658,-3.0507,-3.0414,-3.041,-3.0404,-3.0404,-3.0404,-3.0404,-3.0404,-3.0404,-3.0404,-3.0404,-3.0404,-2.7558,-2.5308,-2.5308,-2.5501,-2.5658,-2.5683,-2.5703,-2.5703,-2.5703,-2.5703,-2.5703,-2.5703,-2.5456,-2.5308,-2.5308,-2.5308,-2.5308,-2.5308,-2.5308,-2.5437,-2.5683,-2.5703,-2.5703,-2.5703,-2.566,-2.5526,-2.5308,-2.5308,-2.5308,-1.0781,-1.2148,-1.3379,-1.3027,-1.3965,-1.4824,-1.4355,-1.4258,0.0,0.0,0.0,0.0,0.0,0.0,0.0,0.0,0.0,0.0,0.0,0.0,0.0,0.0,0.0,0.0,0.0,0.0,0.0,0.0,0.0,0.0,-3.3551,-3.4808,-3.5315,-3.4814,-3.4795,-3.5026,-3.55,-3.5026,-3.5046,-3.5546,-3.5574,-3.565,-3.5732,-3.578,-3.5851,-3.5947,0.0,-3.5972,-3.5996,-3.5996,-3.5996,-3.5996,-3.5996,-3.5951,-3.5901,-3.5901,-3.5829,-3.5713,-3.5775,-3.5805,-3.5805,-3.5772,-3.5838,-3.5949,-3.5926,-3.5582,-3.4785,-3.2656,-3.1484,-3.0857,-3.0641,-3.0494,-3.0404,-3.0404,-3.0404,-3.0404,-3.0404,-3.0404,-3.0404,-3.0404,-3.0404,-3.0404,-3.0404,-2.9096,-2.7475,-2.577,-2.7212,-2.7832,-2.5937,-2.5703,-2.5703,-2.5703,-2.5703,-2.5703,-2.5703,-2.5456,-2.5308,-2.5308,-2.5308,-2.5308,-2.5308,-2.5308,-2.5354,-2.5488,-2.5631,-2.5703,-2.5703,-2.5703,-2.5635,-2.5517,-2.5371,-2.5308,-1.0547,-1.1875,-1.332,-1.3945,-1.5254,-1.6387,-1.6328,-1.6152,0.0,0.0,0.0,0.0,0.0,0.0,0.0,0.0,0.0,0.0,0.0,0.0,0.0,0.0,0.0,0.0,0.0,0.0,0.0,0.0,0.0,0.0,-3.2682,-3.4167,-3.471,-3.3983,-3.3963,-3.4382,-3.527,-3.4564,-3.4655,-3.55,-3.5558,-3.5574,-3.5591,-3.565,-3.5739,-3.5845,-3.5898,-3.5939,-3.5975,-3.5996,-3.5996,-3.5996,-3.5996,-3.5951,-3.5901,-3.5901,-3.5838,-3.5764,-3.5884,-3.5917,-3.5916,-3.5866,-3.5927,-3.5996,-3.5996,-3.5996,-3.5293,-3.1855,-3.0898,-3.0855,-3.0619,-3.0472,-3.0404,-3.0404,-3.0404,-3.0404,-3.0404,-3.0404,-3.0404,-3.0404,-3.0404,-3.0404,-3.0404,-2.979,-2.8475,-2.6051,-2.7969,-2.8711,-2.6035,-2.5703,-2.5703,-2.5703,-2.5703,-2.5662,-2.5605,-2.5427,-2.5308,-2.5308,-2.5308,-2.5308,-2.5308,-2.5308,-2.5308,-2.5308,-2.5508,-2.5635,-2.5703,-2.5703,-2.5703,-2.5683,-2.5418,-2.5308,-1.1269,-1.2734,-1.4023,-1.4082,-1.4805,-1.6113,-1.8477,-1.8398,0.0,-1.9883,0.0,0.0,0.0,0.0,0.0,0.0,0.0,0.0,0.0,0.0,0.0,0.0,0.0,0.0,0.0,0.0,0.0,0.0,0.0,0.0,-3.1917,-3.2827,-3.3338,-3.3273,-3.3273,-3.3685,-3.4567,-3.4381,-3.4695,-3.55,-3.5494,-3.5547,-3.5611,-3.5601,-3.5657,-3.572,-3.5843,-3.5903,-3.591,-3.5974,-3.5996,-3.5996,-3.5996,-3.5951,-3.5901,-3.5901,-3.588,-3.5903,-3.5973,-3.5996,-3.5996,-3.5996,-3.5996,-3.5996,-3.5996,-3.5996,-3.5293,-3.1855,-3.0898,-3.0829,-3.0501,-3.0402,-3.0404,-3.0404,-3.0404,-3.0404,-3.0404,-3.0404,-3.0404,-3.0404,-3.0404,-3.0404,-3.0404,-2.7965,-2.5955,-2.5723,-2.5918,-2.5977,-2.5723,-2.5703,-2.5703,-2.5703,-2.5703,-2.5599,-2.5342,-2.5308,-2.5308,-2.5308,-2.5308,-2.5308,-2.5308,-2.5308,-2.5308,-2.5308,-2.5322,-2.5453,-2.5703,-2.5703,-2.5703,-2.5683,-2.5418,-2.5308,-1.0683,-1.2402,-1.4238,-1.4766,-1.5977,0.0,0.0,-1.9883,-2.0762,-2.1973,-2.2187,0.0,0.0,0.0,0.0,0.0,0.0,0.0,0.0,0.0,0.0,0.0,0.0,0.0,0.0,0.0,0.0,0.0,0.0,0.0,-3.1098,-3.2458,-3.2998,-3.2406,-3.2383,-3.2764,-3.3555,-3.3524,-3.3895,-3.4699,-3.5231,-3.5515,-3.554,-3.554,-3.5571,-3.5648,-3.5686,-3.5791,-3.5903,-3.5938,-3.5952,-3.5996,-3.5949,-3.5916,-3.5901,-3.5901,-3.5901,-3.5908,-3.5975,-3.5996,-3.5996,-3.5996,-3.5996,-3.5996,-3.5996,-3.5996,-3.5293,-3.1855,-3.0898,-3.0828,-3.0496,-3.0404,-3.0404,-3.0404,-3.0404,-3.0404,-3.0404,-3.0404,-3.0404,-3.0404,-3.0404,-3.0462,-3.0686,-2.9713,-2.8926,-2.8926,-2.8926,-2.8144,-2.5977,-2.5703,-2.6451,-2.8404,-2.8613,-2.7725,-2.5495,-2.5308,-2.5308,-2.5308,-2.5308,-2.5308,-2.5308,-2.5308,-2.5308,-2.5308,-2.5308,-2.5428,-2.5703,-2.5703,-2.5703,-2.5683,-2.5418,-2.5308,-1.0662,-1.2344,-1.4316,-1.5176,0.0,0.0,-1.9863,-2.1035,-2.2383,-2.4043,-2.4355,0.0,0.0,0.0,0.0,0.0,0.0,0.0,0.0,0.0,0.0,0.0,0.0,0.0,0.0,0.0,0.0,0.0,0.0,0.0,0.0,-3.1858,-3.2256,-3.1599,-3.1542,-3.1893,-3.2687,-3.2884,-3.3401,-3.4242,-3.5085,-3.55,-3.55,-3.55,-3.5528,-3.556,-3.559,-3.5685,-3.5808,-3.5829,-3.5861,-3.5902,-3.5853,-3.5869,-3.5901,-3.5901,-3.5911,-3.5944,-3.5976,-3.5996,-3.5996,-3.5996,-3.5996,-3.5996,-3.5996,-3.5996,-3.5293,-3.1855,-3.0898,-3.0828,-3.0496,-3.0404,-3.0404,-3.0404,-3.0404,-3.0404,-3.0404,-3.0404,-3.0404,-3.0404,-3.0404,-3.0506,-3.0833,-3.0898,-3.0898,-3.0898,-2.9961,-2.8398,-2.6016,-2.666,-2.813,-3.0172,-3.0404,-2.9442,-2.7115,-2.5923,-2.5308,-2.5308,-2.5308,-2.5308,-2.5308,-2.5308,-2.5308,-2.5308,-2.5308,-2.5428,-2.5703,-2.5703,-2.5703,-2.5683,-2.5418,-2.5308,-1.1493,-1.2772,-1.4336,0.0,0.0,0.0,-2.1523,-2.1914,-2.2891,-2.6309,0.0,-2.7285,0.0,0.0,0.0,0.0,0.0,0.0,0.0,0.0,0.0,0.0,0.0,0.0,0.0,0.0,0.0,0.0,0.0,0.0,0.0,-3.0836,-3.0898,-3.0898,-3.077,-3.1106,-3.1984,-3.2652,-3.3427,-3.4294,-3.5104,-3.55,-3.55,-3.55,-3.55,-3.5488,-3.5566,-3.5605,-3.5601,-3.5663,-3.5707,-3.5707,-3.5707,-3.5772,-3.5901,-3.5901,-3.5945,-3.5996,-3.5996,-3.5996,-3.5996,-3.5996,-3.5996,-3.5996,-3.5996,-3.5976,-3.5254,-3.1855,-3.0898,-3.0827,-3.0496,-3.0404,-3.0404,-3.0404,-3.0404,-3.0404,-3.0404,-3.0404,-3.0404,-3.0404,-3.041,-3.051,-3.0834,-3.0898,-3.0898,-3.0898,-2.7969,-2.5742,-2.5742,-2.8769,-3.0768,-3.0447,-3.0404,-3.0404,-3.0404,-2.7308,-2.5346,-2.5346,-2.5327,-2.5308,-2.5308,-2.5308,-2.5308,-2.5308,-2.5308,-2.5428,-2.5703,-2.5703,-2.5703,-2.5683,-2.5457,-2.5346,-1.1644,-1.3665,0.0,0.0,0.0,0.0,0.0,-2.3652,0.0,0.0,0.0,0.0,0.0,0.0,0.0,0.0,0.0,0.0,0.0,0.0,0.0,0.0,0.0,0.0,0.0,0.0,0.0,0.0,0.0,0.0,0.0,-3.0879,-3.0898,-3.0898,-3.077,-3.0798,-3.1011,-3.2341,-3.3111,-3.333,-3.4796,-3.55,-3.55,-3.55,-3.55,-3.55,-3.5515,-3.557,-3.5601,-3.5663,-3.5707,-3.5707,-3.5707,-3.572,-3.5766,-3.5869,-3.5884,-3.5874,-3.5975,-3.5996,-3.5996,-3.5996,-3.5996,-3.5996,-3.5996,-3.4316,-3.2207,-3.1191,-3.0726,-3.0533,-3.0431,-3.0404,-3.0404,-3.0404,-3.0404,-3.0404,-3.0404,-3.0404,-3.0404,-3.0404,-3.0598,-3.0774,-3.0878,-3.0898,-3.0898,-3.0898,-3.0019,-2.9355,-2.9355,-3.0054,-3.051,-3.0402,-3.0404,-3.0404,-3.0404,-2.9462,-2.8885,-2.8885,-2.6635,-2.5308,-2.5308,-2.5308,-2.5308,-2.5308,-2.5308,-2.5428,-2.5703,-2.5703,-2.5703,-2.5742,-2.7885,-2.8885,-1.2962,0.0,0.0,0.0,0.0,0.0,0.0,0.0,0.0,0.0,0.0,0.0,0.0,0.0,0.0,0.0,0.0,0.0,0.0,0.0,0.0,0.0,0.0,0.0,0.0,0.0,0.0,0.0,0.0,0.0,0.0,-3.0898,-3.0898,-3.0898,-3.0738,-3.0648,-3.0603,-3.1854,-3.2455,-3.2449,-3.416,-3.4988,-3.5007,-3.5346,-3.55,-3.55,-3.55,-3.5522,-3.5568,-3.5596,-3.5611,-3.5611,-3.5611,-3.5644,-3.5679,-3.5786,-3.5838,-3.5857,-3.5954,-3.5996,-3.5996,-3.5996,-3.5996,-3.5742,-3.4394,-3.2539,-3.0898,-3.0898,-3.0741,-3.0609,-3.0609,-3.0496,-3.0404,-3.0404,-3.0404,-3.0433,-3.0576,-3.0609,-3.0609,-3.0609,-3.0765,-3.0898,-3.0898,-3.0898,-3.0898,-3.0898,-3.0898,-3.0898,-3.0898,-3.062,-3.0404,-3.0404,-3.0404,-3.0404,-3.0404,-3.0404,-3.0465,-3.0598,-2.7366,-2.5462,-2.5462,-2.535,-2.5308,-2.5308,-2.5308,-2.5428,-2.5703,-2.709,-2.7705,-2.7607,-2.9521,-3.0404,-1.476,0.0,0.0,0.0,0.0,0.0,0.0,0.0,0.0,0.0,0.0,0.0,0.0,0.0,0.0,0.0,0.0,0.0,0.0,0.0,0.0,0.0,0.0,0.0,0.0,0.0,0.0,0.0,0.0,0.0,0.0,-3.0898,-3.0898,-3.0898,-3.0693,-3.0603,-3.0603,-3.1342,-3.1698,-3.1718,-3.3314,-3.409,-3.4109,-3.4988,-3.5385,-3.5385,-3.5385,-3.5423,-3.55,-3.55,-3.55,-3.55,-3.55,-3.554,-3.5605,-3.5675,-3.5764,-3.5884,-3.5974,-3.5996,-3.5996,-3.5996,-3.5781,-3.4961,-3.1836,-3.0898,-3.0898,-3.0898,-3.0898,-3.0898,-3.0898,-3.0664,-3.0444,-3.0444,-3.0444,-3.0537,-3.0832,-3.0898,-3.0898,-3.0898,-3.0898,-3.0898,-3.0898,-3.0898,-3.0898,-3.0898,-3.0898,-3.0898,-3.0898,-3.062,-3.0404,-3.0404,-3.0404,-3.0404,-3.0404,-3.0404,-3.0539,-3.0878,-2.793,-2.6172,-2.6172,-2.5626,-2.5335,-2.5335,-2.5335,-2.5615,-2.6172,-2.9315,-3.0704,-3.0404,-3.0404,-3.0404,0.0,-1.6429,0.0,0.0,0.0,0.0,0.0,0.0,0.0,0.0,0.0,0.0,0.0,0.0,0.0,0.0,0.0,0.0,0.0,0.0,0.0,0.0,0.0,0.0,0.0,0.0,0.0,0.0,0.0,0.0,-3.0898,-3.0898,-3.0898,-3.0898,-3.0693,-3.0603,-3.0603,-3.1342,-3.1698,-3.1718,-3.2718,-3.3179,-3.3218,-3.4083,-3.4468,-3.4468,-3.4468,-3.4872,-3.55,-3.55,-3.55,-3.55,-3.55,-3.5508,-3.5522,-3.56,-3.5671,-3.5772,-3.5932,-3.5996,-3.5996,-3.5996,-3.418,-3.1855,-3.1113,-3.0898,-3.0898,-3.0898,-3.0898,-3.0898,-3.0898,-3.0854,-3.0798,-3.0798,-3.0798,-3.0806,-3.0878,-3.0898,-3.0898,-3.0898,-3.0898,-3.0898,-3.0898,-3.0898,-3.0898,-3.0898,-3.0898,-3.0898,-3.0898,-3.062,-3.0404,-3.0404,-3.0404,-3.0404,-3.0404,-3.0404,-3.0539,-3.0878,-3.0195,-2.9785,-2.9785,-2.7102,-2.5606,-2.5606,-2.5606,-2.6984,-2.9785,-3.0276,-3.0467,-3.0404,-3.0404,-3.0404,0.0,0.0,0.0,0.0,0.0,0.0,0.0,0.0,0.0,0.0,0.0,0.0,0.0,0.0,0.0,0.0,0.0,0.0,0.0,0.0,0.0,0.0,0.0,0.0,0.0,0.0,0.0,0.0,0.0,-3.0898,-3.0898,-3.0898,-3.0898,-3.0898,-3.0734,-3.0621,-3.0603,-3.0959,-3.1113,-3.1096,-3.1929,-3.2333,-3.2352,-3.3179,-3.3583,-3.3583,-3.3583,-3.3833,-3.425,-3.425,-3.4507,-3.4872,-3.4872,-3.5135,-3.5508,-3.5579,-3.5624,-3.5689,-3.5927,-3.5996,-3.5723,-3.4082,-3.2344,-3.0898,-3.0898,-3.0898,-3.0898,-3.0898,-3.0898,-3.0898,-3.0898,-3.0898,-3.0898,-3.0898,-3.0898,-3.0898,-3.0898,-3.0898,-3.0898,-3.0898,-3.0898,-3.0898,-3.0898,-3.0898,-3.0898,-3.0898,-3.0898,-3.0898,-3.0898,-3.0757,-3.0583,-3.0414,-3.0404,-3.0404,-3.0404,-3.0404,-3.0539,-3.0878,-3.0898,-3.0898,-3.0898,-2.916,-2.8184,-2.8184,-2.8033,-2.8849,-3.0653,-3.0492,-3.0404,-3.0404,-3.0404,-3.0404,0.0,0.0,0.0,0.0,0.0,0.0,0.0,0.0,0.0,0.0,0.0,0.0,0.0,0.0,0.0,0.0,0.0,0.0,0.0,0.0,0.0,0.0,0.0,0.0,0.0,0.0,0.0,0.0,0.0,-3.0898,-3.0898,-3.0898,-3.0898,-3.0898,-3.077,-3.0673,-3.0606,-3.0533,-3.0472,-3.0404,-3.1135,-3.1487,-3.1506,-3.216,-3.2545,-3.2679,-3.271,-3.2793,-3.2915,-3.2939,-3.3471,-3.4248,-3.4248,-3.4776,-3.5528,-3.5577,-3.5592,-3.5611,-3.5849,-3.5951,-3.5449,-3.2012,-3.0898,-3.0898,-3.0898,-3.0898,-3.0898,-3.0898,-3.0898,-3.0898,-3.0898,-3.0898,-3.0898,-3.0898,-3.0898,-3.0898,-3.0898,-3.0898,-3.0898,-3.0898,-3.0898,-3.0898,-3.0898,-3.0898,-3.0898,-3.0898,-3.0898,-3.0898,-3.0898,-3.0898,-3.077,-3.0447,-3.0404,-3.0404,-3.0404,-3.046,-3.0587,-3.0801,-3.0877,-3.0898,-3.0898,-3.0898,-3.0898,-3.0898,-3.0576,-3.0404,-3.0404,-3.0404,-3.0404,-3.0404,-3.0404,-3.0404,0.0,0.0,0.0,0.0,0.0,0.0,0.0,0.0,0.0,0.0,0.0,0.0,0.0,0.0,0.0,0.0,0.0,0.0,0.0,0.0,0.0,0.0,0.0,0.0,0.0,0.0,0.0,0.0,-3.0898,-3.0898,-3.0898,-3.0898,-3.0898,-3.0898,-3.077,-3.0673,-3.0606,-3.0533,-3.0472,-3.0404,-3.0519,-3.0577,-3.0577,-3.0673,-3.1154,-3.1858,-3.1911,-3.2343,-3.3001,-3.3102,-3.367,-3.4455,-3.4455,-3.4919,-3.5582,-3.5606,-3.5554,-3.5515,-3.5559,-3.5768,-3.5449,-3.2012,-3.0898,-3.0898,-3.0898,-3.0898,-3.0898,-3.0898,-3.0898,-3.0898,-3.0898,-3.0898,-3.0898,-3.0898,-3.0898,-3.0898,-3.0898,-3.0898,-3.0898,-3.0898,-3.0898,-3.0898,-3.0898,-3.0898,-3.0898,-3.0898,-3.0898,-3.0898,-3.0898,-3.0898,-3.077,-3.0447,-3.0404,-3.0404,-3.0404,-3.0678,-3.0726,-3.0487,-3.0732,-3.0898,-3.0898,-3.0898,-3.0898,-3.0898,-3.0576,-3.0404,-3.0404,-3.0404,-3.0404,-3.0404,-3.0404,-3.0404,-1.3646,-1.6473,-1.9379,0.0,0.0,0.0,0.0,0.0,0.0,0.0,0.0,0.0,0.0,0.0,0.0,0.0,0.0,0.0,0.0,0.0,0.0,0.0,0.0,0.0,0.0,0.0,0.0,0.0,-3.0898,-3.0898,-3.0898,-3.0898,-3.0898,-3.0898,-3.0838,-3.0737,-3.0606,-3.0568,-3.0503,-3.0404,-3.0404,-3.0404,-3.0404,-3.0404,-3.0615,-3.0973,-3.1043,-3.1269,-3.1602,-3.1708,-3.225,-3.3048,-3.3048,-3.3709,-3.4599,-3.4223,-3.4686,-3.5239,-3.3518,-3.301,-3.2891,-3.1387,-3.0898,-3.0898,-3.0898,-3.0898,-3.0898,-3.0898,-3.0898,-3.0898,-3.0898,-3.0898,-3.0898,-3.0898,-3.0898,-3.0898,-3.0898,-3.0898,-3.0898,-3.0898,-3.0898,-3.0898,-3.0898,-3.0898,-3.0898,-3.0898,-3.0898,-3.0898,-3.0898,-3.0898,-3.0834,-3.0701,-3.0689,-3.0689,-3.0689,-3.0636,-3.0556,-3.0402,-3.0531,-3.0614,-3.0614,-3.0801,-3.0806,-3.0617,-3.0477,-3.0404,-3.0404,-3.0404,-3.0404,-3.0404,-3.0404,-3.0404,-1.4109,-1.6087,-1.7858,0.0,0.0,0.0,0.0,0.0,0.0,0.0,0.0,0.0,0.0,0.0,0.0,0.0,0.0,0.0,0.0,0.0,0.0,0.0,0.0,0.0,0.0,0.0,0.0,0.0,-3.0898,-3.0898,-3.0898,-3.0898,-3.0898,-3.0898,-3.0898,-3.0808,-3.0606,-3.0581,-3.0494,-3.0404,-3.0404,-3.0404,-3.0404,-3.0404,-3.0408,-3.0433,-3.049,-3.0537,-3.0551,-3.063,-3.1181,-3.1977,-3.2055,-3.2772,-3.3773,-3.3706,-3.3965,-3.3993,-3.1699,-3.0898,-3.0898,-3.0898,-3.0898,-3.0898,-3.0898,-3.0898,-3.0898,-3.0898,-3.0898,-3.0898,-3.0898,-3.0898,-3.0898,-3.0898,-3.0898,-3.0898,-3.0898,-3.0898,-3.0898,-3.0898,-3.0898,-3.0898,-3.0898,-3.0898,-3.0898,-3.0898,-3.0898,-3.0898,-3.0898,-3.0898,-3.0898,-3.0898,-3.0898,-3.0898,-3.0898,-3.0582,-3.0404,-3.0404,-3.0404,-3.0404,-3.0404,-3.0633,-3.0667,-3.039,-3.0404,-3.0404,-3.0404,-3.0404,-3.0404,-3.0404,-3.0404,-3.0404,-1.2757,-1.3684,0.0,0.0,0.0,0.0,0.0,0.0,0.0,0.0,0.0,0.0,0.0,0.0,0.0,0.0,0.0,0.0,0.0,0.0,0.0,0.0,0.0,0.0,0.0,0.0,0.0,0.0,-3.0898,-3.0898,-3.0898,-3.0898,-3.0898,-3.0898,-3.0898,-3.0808,-3.0606,-3.0463,-3.0421,-3.0404,-3.0404,-3.0404,-3.0404,-3.0404,-3.0425,-3.0498,-3.0561,-3.0638,-3.0692,-3.0836,-3.1406,-3.2207,-3.2461,-3.2929,-3.3612,-3.5233,-3.3846,-3.1112,-3.0957,-3.0898,-3.0898,-3.0898,-3.0898,-3.0898,-3.0898,-3.0898,-3.0898,-3.0898,-3.0898,-3.0898,-3.0898,-3.0898,-3.0898,-3.0898,-3.0898,-3.0898,-3.0898,-3.0898,-3.0898,-3.0898,-3.0898,-3.0898,-3.0898,-3.0898,-3.0898,-3.0898,-3.0898,-3.0898,-3.0898,-3.0898,-3.0898,-3.0898,-3.0898,-3.0898,-3.0898,-3.0582,-3.0404,-3.0404,-3.0404,-3.0404,-3.0404,-3.0414,-3.0419,-3.0404,-3.0404,-3.0404,-3.0404,-3.0404,-3.0404,-3.0404,-3.0404,-3.0404,-1.0825,-1.1327,0.0,0.0,0.0,0.0,0.0,0.0,0.0,0.0,0.0,0.0,0.0,0.0,0.0,0.0,0.0,0.0,0.0,0.0,0.0,0.0,0.0,0.0,0.0,0.0,0.0,0.0,0.0,-3.0898,-3.0898,-3.0898,-3.0898,-3.0898,-3.0898,-3.0808,-3.0606,-3.0516,-3.0446,-3.0404,-3.0404,-3.0404,-3.0404,-3.0404,-3.0457,-3.0561,-3.0591,-3.0645,-3.0717,-3.0838,-3.1074,-3.1387,-3.1465,-3.1621,-3.1875,-3.25,-3.1953,-3.0898,-3.0898,-3.0898,-3.0898,-3.0898,-3.0898,-3.0898,-3.0898,-3.0898,-3.0898,-3.0898,-3.0898,-3.0898,-3.0898,-3.0898,-3.0898,-3.0898,-3.0898,-3.0898,-3.0898,-3.0898,-3.0898,-3.0898,-3.0898,-3.0898,-3.0898,-3.0898,-3.0898,-3.0898,-3.0898,-3.0898,-3.0898,-3.0898,-3.0898,-3.0898,-3.0898,-3.0898,-3.0898,-3.0582,-3.0404,-3.0404,-3.0404,-3.0404,-3.0404,-3.0404,-3.0404,-3.0404,-3.0404,-3.0404,-3.0404,-3.0404,-3.0404,-3.0404,-3.0404,-3.0404,-0.969,0.0,0.0,0.0,0.0,0.0,0.0,0.0,0.0,0.0,0.0,0.0,0.0,0.0,0.0,0.0,0.0,0.0,0.0,0.0,0.0,0.0,0.0,0.0,0.0,0.0,0.0,0.0,0.0,0.0,-3.0039,-3.0293,-3.0605,-3.0898,-3.0858,-3.0759,-3.0606,-3.0533,-3.0472,-3.0404,-3.0404,-3.0404,-3.0404,-3.0417,-3.0485,-3.0606,-3.0611,-3.0675,-3.0771,-3.0858,-3.0898,-3.0898,-3.0898,-3.0898,-3.0898,-3.0898,-3.0898,-3.0898,-3.0898,-3.0898,-3.0898,-3.0898,-3.0898,-3.0898,-3.0898,-3.0898,-3.0898,-3.0898,-3.0898,-3.0898,-3.0898,-3.0898,-3.0898,-3.0898,-3.0898,-3.0898,-3.0898,-3.0898,-3.0898,-3.0898,-3.0898,-3.0898,-3.0898,-3.0898,-3.0898,-3.0898,-3.0898,-3.0898,-3.0898,-3.0898,-3.0898,-3.0898,-3.0898,-3.0898,-3.0898,-3.0701,-3.0524,-3.0416,-3.0404,-3.0404,-3.0404,-3.0404,-3.0404,-3.0404,-3.0404,-3.0404,-3.0404,-3.0404,-3.0404,-3.0404,-3.0404,-3.0404,0.0,0.0,0.0,0.0,0.0,0.0,0.0,0.0,0.0,0.0,0.0,0.0,0.0,0.0,0.0,0.0,0.0,0.0,0.0,0.0,0.0,0.0,0.0,0.0,0.0,0.0,0.0,0.0,-2.8301,-2.8301,-2.8301,-2.9121,-2.998,-3.082,-3.0751,-3.0675,-3.0609,-3.0541,-3.0463,-3.039,-3.039,-3.039,-3.0416,-3.0463,-3.0541,-3.0611,-3.0675,-3.0771,-3.0898,-3.0898,-3.0898,-3.0898,-3.0898,-3.0898,-3.0898,-3.0898,-3.0898,-3.0898,-3.0898,-3.0898,-3.0898,-3.0898,-3.0898,-3.0898,-3.0898,-3.0898,-3.0898,-3.0898,-3.0898,-3.0898,-3.0898,-3.0898,-3.0898,-3.0898,-3.0898,-3.0898,-3.0898,-3.0898,-3.0898,-3.0898,-3.0898,-3.0898,-3.0898,-3.0898,-3.0898,-3.0898,-3.0898,-3.0898,-3.0898,-3.0898,-3.0898,-3.0898,-3.0898,-3.0898,-3.0898,-3.0898,-3.0762,-3.0425,-3.0404,-3.0404,-3.0404,-3.0404,-3.0404,-3.0404,-3.0404,-3.0404,-3.0404,-3.0404,-3.0404,-3.0404,-3.0404,-3.0404,-0.994,0.0,0.0,0.0,0.0,0.0,0.0,0.0,0.0,0.0,0.0,0.0,0.0,0.0,0.0,0.0,0.0,0.0,0.0,0.0,0.0,0.0,0.0,0.0,0.0,0.0,0.0,0.0,-2.8301,-2.8301,-2.8301,-2.9121,-2.9707,-2.9941,-3.0546,-3.0791,-3.0677,-3.0642,-3.0591,-3.0467,-3.0467,-3.0467,-3.0467,-3.0485,-3.0561,-3.0677,-3.069,-3.0771,-3.0898,-3.0898,-3.0898,-3.0898,-3.0898,-3.0898,-3.0898,-3.0898,-3.0898,-3.0898,-3.0898,-3.0898,-3.0898,-3.0898,-3.0898,-3.0898,-3.0898,-3.0898,-3.0898,-3.0898,-3.0898,-3.0898,-3.0898,-3.0898,-3.0898,-3.0898,-3.0898,-3.0898,-3.0898,-3.0898,-3.0898,-3.0898,-3.0898,-3.0898,-3.0898,-3.0898,-3.0898,-3.0898,-3.0898,-3.0898,-3.0898,-3.0898,-3.0898,-3.0898,-3.0898,-3.0898,-3.0898,-3.0898,-3.0762,-3.0425,-3.0404,-3.0404,-3.0404,-3.0404,-3.0404,-3.0404,-3.0404,-3.0404,-3.0404,-3.0404,-3.0404,-3.0404,-3.0404,-3.0404,-1.0983,-1.1827,0.0,0.0,0.0,0.0,0.0,-1.648,0.0,0.0,0.0,0.0,0.0,0.0,0.0,0.0,0.0,0.0,0.0,0.0,0.0,0.0,0.0,0.0,0.0,-2.7226,-2.7226,-2.7226,-2.7226,-2.7363,-2.7734,-2.8242,-2.8672,-2.9043,-2.9902,-3.0309,-3.0207,-3.0539,-3.0655,-3.0548,-3.0548,-3.0548,-3.0548,-3.0571,-3.0636,-3.0696,-3.0768,-3.0836,-3.0898,-3.0898,-3.0898,-3.0898,-3.0898,-3.0898,-3.0898,-3.0898,-3.0898,-3.0898,-3.0898,-3.0898,-3.0898,-3.0898,-3.0898,-3.0898,-3.0898,-3.0898,-3.0898,-3.0898,-3.0898,-3.0898,-3.0898,-3.0898,-3.0898,-3.0898,-3.0898,-3.0898,-3.0898,-3.0898,-3.0898,-3.0898,-3.0898,-3.0898,-3.0898,-3.0898,-3.0898,-3.0898,-3.0898,-3.0898,-3.0898,-3.0898,-3.0898,-3.0898,-3.0898,-3.0898,-3.0898,-3.0898,-3.0762,-3.0425,-3.0404,-3.0404,-3.0404,-3.0404,-3.0404,-3.0404,-3.0404,-3.0404,-3.0404,-3.0404,-3.0404,-3.0404,-3.0404,-3.0404,-1.2598,-1.3397,-1.4038,0.0,0.0,0.0,-1.6506,-1.6138,-1.583,0.0,0.0,0.0,0.0,0.0,0.0,0.0,0.0,0.0,0.0,0.0,0.0,0.0,0.0,0.0,-2.5703,-2.5703,-2.5703,-2.5703,-2.5703,-2.6035,-2.6816,-2.6953,-2.7363,-2.8125,-2.9101,-2.9568,-2.9508,-3.0329,-3.068,-3.0617,-3.0617,-3.0617,-3.062,-3.0677,-3.0717,-3.0722,-3.0857,-3.0898,-3.0898,-3.0898,-3.0898,-3.0898,-3.0898,-3.0898,-3.0898,-3.0898,-3.0898,-3.0898,-3.0898,-3.0898,-3.0898,-3.0898,-3.0898,-3.0898,-3.0898,-3.0898,-3.0898,-3.0898,-3.0898,-3.0898,-3.0898,-3.0898,-3.0898,-3.0898,-3.0898,-3.0898,-3.0898,-3.0898,-3.0898,-3.0898,-3.0898,-3.0898,-3.0898,-3.0898,-3.0898,-3.0898,-3.0898,-3.0898,-3.0898,-3.0898,-3.0898,-3.0898,-3.0898,-3.0898,-3.0898,-3.0898,-3.0762,-3.0425,-3.0404,-3.0404,-3.0404,-3.0404,-3.0404,-3.0404,-3.0404,-3.0404,-3.0404,-3.0404,-3.0404,-3.0404,-3.0404,-3.0404,-1.4882,-1.5332,-1.5638,-1.4459,0.0,0.0,-1.3835,-1.4464,-1.5135,0.0,0.0,0.0,0.0,0.0,0.0,0.0,0.0,0.0,0.0,0.0,0.0,0.0,0.0,0.0,-2.5703,-2.5703,-2.5703,-2.5703,-2.5703,-2.5762,-2.5937,-2.6621,-2.707,-2.7246,-2.8789,-2.959,-2.9589,-3.0428,-3.0793,-3.0682,-3.0682,-3.0682,-3.0682,-3.0692,-3.0768,-3.0858,-3.0898,-3.0898,-3.0898,-3.0898,-3.0898,-3.0898,-3.0898,-3.0898,-3.0898,-3.0898,-3.0898,-3.0898,-3.0898,-3.0898,-3.0898,-3.0898,-3.0898,-3.0898,-3.0898,-3.0898,-3.0898,-3.0898,-3.0898,-3.0898,-3.0898,-3.0898,-3.0898,-3.0898,-3.0898,-3.0898,-3.0898,-3.0898,-3.0898,-3.0898,-3.0898,-3.0898,-3.0898,-3.0898,-3.0898,-3.0898,-3.0898,-3.0898,-3.0898,-3.0898,-3.0898,-3.0898,-3.0898,-3.0898,-3.0898,-3.0898,-3.0762,-3.0425,-3.0404,-3.0404,-3.0404,-3.0404,-3.0404,-3.0404,-3.0404,-3.0404,-3.0404,-3.0404,-3.0404,-3.0404,-3.0404,-3.0404,-1.6779,-1.6828,-1.6891,-1.6,0.0,0.0,0.0,-1.458,-1.467,-1.5115,0.0,0.0,0.0,0.0,0.0,0.0,0.0,0.0,0.0,0.0,0.0,0.0,0.0,0.0,-2.5019,-2.5057,-2.5232,-2.5664,-2.5703,-2.5703,-2.5703,-2.6113,-2.6348,-2.6348,-2.8047,-2.8945,-2.8945,-3.0254,-3.0878,-3.0794,-3.0794,-3.0794,-3.0794,-3.0794,-3.0837,-3.0898,-3.0898,-3.0898,-3.0898,-3.0898,-3.0898,-3.0898,-3.0898,-3.0898,-3.0898,-3.0898,-3.0898,-3.0898,-3.0898,-3.0898,-3.0898,-3.0898,-3.0898,-3.0898,-3.0898,-3.0898,-3.0898,-3.0898,-3.0898,-3.0898,-3.0898,-3.0898,-3.0898,-3.0898,-3.0898,-3.0898,-3.0898,-3.0898,-3.0855,-3.0672,-3.0795,-3.0898,-3.0898,-3.0898,-3.0898,-3.0898,-3.0898,-3.0898,-3.0898,-3.0898,-3.0898,-3.0898,-3.0898,-3.0898,-3.0898,-3.0898,-3.0762,-3.0425,-3.0404,-3.0404,-3.0404,-3.0404,-3.0404,-3.0404,-3.0404,-3.0404,-3.0404,-3.0404,-3.0404,-3.0404,-3.0404,-3.0404,0.0,0.0,0.0,0.0,0.0,-1.6154,0.0,0.0,0.0,-1.558,0.0,0.0,0.0,0.0,0.0,0.0,0.0,0.0,0.0,0.0,0.0,0.0,0.0,0.0,-2.4059,-2.3972,-2.4303,-2.535,-2.5292,-2.5331,-2.5663,-2.5683,-2.5703,-2.5703,-2.7226,-2.8125,-2.8301,-2.9863,-3.0723,-3.0898,-3.0898,-3.0898,-3.0898,-3.0898,-3.0898,-3.0898,-3.0898,-3.0898,-3.0898,-3.0898,-3.0898,-3.0898,-3.0898,-3.0898,-3.0898,-3.0898,-3.0898,-3.0898,-3.0898,-3.0898,-3.0898,-3.0898,-3.0898,-3.0898,-3.0898,-3.0898,-3.0898,-3.0898,-3.0898,-3.0898,-3.0898,-3.0898,-3.0898,-3.0898,-3.0898,-3.0898,-3.0898,-3.0898,-3.0827,-3.0548,-3.0656,-3.0803,-3.0803,-3.0803,-3.0803,-3.0803,-3.0856,-3.0898,-3.0898,-3.0898,-3.0898,-3.0898,-3.0898,-3.0898,-3.0898,-3.0833,-3.0697,-3.0414,-3.0404,-3.0404,-3.0404,-3.0404,-3.0404,-3.0404,-3.0404,-3.0404,-3.0404,-3.0404,-3.0404,-3.0423,-3.1077,-3.1385,0.0,0.0,0.0,0.0,-1.8715,0.0,0.0,0.0,-1.5621,-1.3565,0.0,0.0,0.0,0.0,0.0,0.0,0.0,0.0,0.0,0.0,0.0,0.0,0.0,0.0,0.0,-2.2466,-2.2693,-2.4334,-2.3797,-2.4032,-2.5528,-2.5661,-2.5703,-2.5703,-2.6641,-2.7519,-2.8281,-2.9258,-3.0137,-3.0898,-3.0898,-3.0898,-3.0898,-3.0898,-3.0898,-3.0898,-3.0898,-3.0898,-3.0898,-3.0898,-3.0898,-3.0898,-3.0898,-3.0898,-3.0898,-3.0898,-3.0898,-3.0898,-3.0898,-3.0898,-3.0898,-3.0898,-3.0898,-3.0898,-3.0898,-3.0898,-3.0898,-3.0898,-3.0898,-3.0898,-3.0898,-3.0898,-3.0898,-3.0898,-3.0898,-3.0898,-3.0898,-3.0898,-3.0898,-3.0855,-3.0626,-3.0465,-3.0465,-3.0465,-3.0465,-3.0465,-3.0713,-3.0898,-3.0898,-3.0898,-3.0898,-3.0898,-3.0898,-3.0898,-3.0898,-3.062,-3.0439,-3.041,-3.0404,-3.0404,-3.0404,-3.0404,-3.0404,-3.0404,-3.0404,-3.0404,-3.0404,-3.0404,-3.0404,-3.0462,-3.3519,-3.4923,0.0,0.0,0.0,0.0,0.0,0.0,-1.6038,0.0,-1.5599,0.0,0.0,0.0,0.0,0.0,0.0,0.0,0.0,0.0,0.0,0.0,0.0,0.0,0.0,0.0,0.0,0.0,0.0,0.0,-2.2791,-2.3092,-2.4805,-2.4939,-2.5176,-2.5684,-2.6543,-2.7422,-2.8281,-2.916,-3.0039,-3.0898,-3.0898,-3.0898,-3.0898,-3.0898,-3.0898,-3.0898,-3.0898,-3.0898,-3.0898,-3.0898,-3.0898,-3.0898,-3.0898,-3.0898,-3.0898,-3.0898,-3.0898,-3.0898,-3.0898,-3.0898,-3.0898,-3.0898,-3.0898,-3.0898,-3.0898,-3.0898,-3.0898,-3.0898,-3.0898,-3.0898,-3.0898,-3.0898,-3.0898,-3.0898,-3.0898,-3.0898,-3.0898,-3.0898,-3.0898,-3.0898,-3.0623,-3.0404,-3.0404,-3.0404,-3.0404,-3.0404,-3.0694,-3.0898,-3.0898,-3.0898,-3.0898,-3.0898,-3.0898,-3.0828,-3.0639,-3.0487,-3.125,-3.3231,-3.15,-3.0404,-3.0404,-3.0404,-3.0404,-3.0404,-3.0404,-3.0404,-3.0404,-3.2385,-3.3365,-3.3385,-3.4827,-3.55,-2.064,0.0,0.0,0.0,0.0,0.0,0.0,0.0,0.0,0.0,0.0,0.0,0.0,0.0,0.0,0.0,0.0,0.0,0.0,0.0,0.0,0.0,0.0,0.0,0.0,0.0,0.0,0.0,0.0,-2.2017,-2.4232,-2.4385,-2.4784,-2.5643,-2.6308,-2.7051,-2.7949,-2.8809,-2.9687,-3.0547,-3.0781,-3.0898,-3.0898,-3.0898,-3.0898,-3.0898,-3.0898,-3.0898,-3.0898,-3.0898,-3.0898,-3.0898,-3.0898,-3.0898,-3.0898,-3.0898,-3.0898,-3.0898,-3.0898,-3.0898,-3.0898,-3.0898,-3.0898,-3.0898,-3.0898,-3.0898,-3.0898,-3.0898,-3.0898,-3.0898,-3.0898,-3.0898,-3.0898,-3.0898,-3.0898,-3.0898,-3.0898,-3.0898,-3.0898,-3.0898,-3.0623,-3.0404,-3.0404,-3.0404,-3.0404,-3.0404,-3.0694,-3.0898,-3.0898,-3.0898,-3.0898,-3.0898,-3.0827,-3.0656,-3.0419,-3.0404,-3.1865,-3.5288,-3.2288,-3.0404,-3.0404,-3.1308,-3.1365,-3.0423,-3.0404,-3.0865,-3.1808,-3.4288,-3.55,-3.55,-3.55,-3.55,0.0,0.0,0.0,-1.8584,0.0,0.0,0.0,0.0,-1.7411,0.0,0.0,0.0,0.0,0.0,-1.7277,-1.6326,-1.6356,0.0,0.0,0.0,0.0,0.0,0.0,0.0,0.0,0.0,0.0,0.0,-1.9645,0.0,-2.4032,-2.4339,-2.4768,-2.5583,-2.5681,-2.6152,-2.7031,-2.791,-2.8789,-2.9648,-3.0508,-3.0898,-3.0898,-3.0898,-3.0898,-3.0898,-3.0898,-3.0898,-3.0898,-3.0898,-3.0898,-3.0898,-3.0898,-3.0898,-3.0898,-3.0898,-3.0898,-3.0898,-3.0898,-3.0898,-3.0898,-3.0898,-3.0898,-3.0898,-3.0898,-3.0898,-3.0898,-3.0898,-3.0898,-3.0898,-3.0898,-3.0898,-3.0898,-3.0898,-3.0898,-3.0898,-3.0898,-3.0898,-3.0898,-3.0898,-3.0623,-3.0404,-3.0404,-3.0404,-3.0404,-3.0404,-3.0694,-3.0898,-3.0898,-3.0898,-3.0898,-3.0898,-3.06,-3.0408,-3.0404,-3.0404,-3.1865,-3.5288,-3.2288,-3.0404,-3.0404,-3.3577,-3.3788,-3.0462,-3.0404,-3.2038,-3.5346,-3.5442,-3.55,-3.55,-3.55,-3.55,0.0,0.0,-2.297,-2.0139,0.0,0.0,0.0,0.0,0.0,0.0,0.0,0.0,0.0,0.0,-1.7309,-1.6539,-1.6461,-1.5814,0.0,0.0,0.0,0.0,0.0,0.0,0.0,0.0,0.0,0.0,-1.8366,0.0,-2.2323,-2.311,-2.3883,-2.4786,-2.5339,-2.607,-2.6992,-2.7826,-2.8678,-2.9538,-3.0371,-3.0811,-3.0898,-3.0898,-3.0898,-3.0898,-3.0898,-3.0898,-3.0898,-3.0898,-3.0898,-3.0898,-3.0898,-3.0898,-3.0898,-3.0898,-3.0898,-3.0898,-3.0898,-3.0898,-3.0898,-3.0898,-3.0898,-3.0898,-3.0898,-3.0898,-3.0898,-3.0898,-3.0898,-3.0898,-3.0898,-3.0898,-3.0898,-3.0898,-3.0898,-3.0898,-3.0898,-3.0898,-3.0832,-3.0603,-3.0482,-3.0404,-3.0404,-3.0404,-3.0404,-3.0404,-3.0694,-3.0898,-3.0898,-3.0898,-3.0826,-3.0582,-3.0467,-3.1327,-3.3577,-3.3788,-3.4269,-3.5423,-3.4404,-3.3788,-3.3788,-3.4885,-3.4962,-3.3808,-3.3788,-3.4346,-3.55,-3.55,-3.55,-3.55,-3.55,-3.55,-2.4212,-2.437,0.0,-2.137,-2.0731,0.0,-1.7891,0.0,0.0,0.0,0.0,0.0,0.0,0.0,-1.7852,-1.7292,-1.6814,-1.5814,0.0,-1.3582,0.0,0.0,0.0,0.0,0.0,0.0,-1.6176,-1.7584,-1.747,0.0,0.0,-2.2447,-2.338,-2.4296,-2.5162,-2.588,-2.6453,-2.7614,-2.848,-2.901,-3.0128,-3.0714,-3.0806,-3.0877,-3.0832,-3.0726,-3.0854,-3.0898,-3.0898,-3.0898,-3.0898,-3.0898,-3.0898,-3.0898,-3.0898,-3.0898,-3.0898,-3.0898,-3.0898,-3.0898,-3.0898,-3.0898,-3.0898,-3.0898,-3.0898,-3.0898,-3.0898,-3.0898,-3.0898,-3.0898,-3.0898,-3.0898,-3.0898,-3.0898,-3.0898,-3.0898,-3.0898,-3.0898,-3.0801,-3.0462,-3.1385,-3.1827,-3.0615,-3.1404,-3.2257,-3.2365,-3.2583,-3.2266,-3.1055,-3.1953,-3.2584,-3.2239,-3.1135,-3.1788,-3.5212,-3.55,-3.55,-3.55,-3.55,-3.55,-3.55,-3.55,-3.55,-3.55,-3.55,-3.55,-3.55,-3.55,-3.55,-3.55,-3.55,-3.55]},{"header":{"parameterUnit":"m.s-1","parameterCategory":1,"la1":30.6,"la2":29.2853,"lo1":-89.7004,"lo2":-87.6739,"dy":0.0162,"dx":0.0183,"nx":112,"ny":82,"refTime":"2026-05-22T12:00:00:Z","depth":0,"parameterNumber":3,"parameterNumberName":"V-component_of_WINDS"},"data":[0.0,0.0,0.0,0.0,0.0,0.0,0.0,0.0,0.0,0.0,0.0,0.0,0.0,0.0,0.0,0.0,0.0,0.0,0.0,0.0,0.0,0.0,0.0,0.0,0.0,0.0,0.0,0.0,0.0,0.0,0.0,0.0,0.0,0.0,0.0,0.0,0.0,0.0,0.0,0.0,0.0,0.0,0.0,0.0,0.0,0.0,0.0,0.0,0.0,0.0,0.0,0.0,0.0,0.0,0.0,0.0,0.0,0.0,0.0,0.0,0.0,0.0,0.0,0.0,0.0,0.0,0.0,0.0,0.0,0.0,0.0,0.0,0.0,0.0,0.0,0.0,0.0,0.0,0.0,0.0,0.0,0.0,0.0,0.0,0.0,0.0,0.0,0.0,0.0,0.0,-0.0605,-0.0372,0.0329,0.0735,0.0705,0.1531,0.2146,0.2332,0.0,0.0,0.0,0.0,0.0,0.0,0.0,0.0,0.0,0.0,0.0,0.0,0.0,0.0,0.0,0.0,0.0,0.0,0.0,0.0,0.0,0.0,0.0,0.0,0.0,0.0,0.0,0.0,0.0,0.0,0.0,0.0,0.0,0.0,0.0,0.0,0.0,0.0,0.0,0.0,0.0,0.0,0.0,0.0,0.0,0.0,0.0,0.0,0.0,0.0,0.0,0.0,0.0,0.0,0.0,0.0,0.0,0.0,0.0,0.0,0.0,0.0,0.0,0.0,0.0,0.0,0.0,0.0,0.0,0.0,0.0,0.0,0.0,0.0,0.0,0.0,0.0,0.0,0.0,0.0,0.0,0.0,0.0,0.0,0.0,0.0,0.0,0.0,0.0,0.0,0.0,0.0,0.0,0.0,0.0,0.0,0.0,0.0,0.0,0.0,0.0,0.0,0.0,0.0,-0.0542,-0.0112,0.0059,0.0296,0.0665,0.1147,0.162,0.2037,0.0,0.0,0.0,0.0,0.0,0.0,0.0,0.0,0.0,0.0,0.0,0.0,0.0,0.0,0.0,0.0,0.0,0.0,0.0,0.0,0.0,0.0,0.0,0.0,0.0,0.0,0.0,0.0,0.0,0.0,0.0,0.0,0.0,0.0,0.0,0.0,0.0,0.0,0.0,0.0,0.0,0.0,0.0,0.0,0.0,0.0,0.0,0.0,0.0,0.0,0.0,0.0,0.0,0.0,0.0,0.0,0.0,0.0,0.0,0.0,0.0,0.0,0.0,0.0,0.0,0.0,0.0,0.0,0.0,0.0,0.0,0.0,0.0,0.0,0.0,0.0,0.0,0.0,0.0,0.0,0.0,0.0,0.0,0.0,0.0,0.0,0.0,0.0,0.0,0.0,0.0,0.0,0.0,0.0,0.0,0.0,0.0,0.0,0.0,0.0,0.0,0.0,0.0,-0.0419,-0.0233,-0.0019,0.0,0.0083,0.0295,0.092,0.1398,0.1606,0.2418,0.0,0.0,0.0,0.0,0.0,0.0,0.0,0.0,0.0,0.0,0.0,0.0,0.0,0.0,0.0,0.0,0.0,0.0,0.0,0.0,0.0,0.0,0.0,0.0,0.0,0.0,0.0,0.0,0.0,0.0,0.0,0.0,0.0,0.0,0.0,0.0,0.0,0.0,0.0,0.0,0.0,0.0,0.0,0.0,0.0,0.0,0.0,0.0,0.0,0.0,0.0,0.0,0.0,0.0,0.0,0.0,0.0,0.0,0.0,0.0,0.0,0.0,0.0,0.0,0.0,0.0,0.0,0.0,0.0,0.0,0.0,0.0,0.0,0.0,0.0,0.0,0.0,0.0,0.0,0.0,0.0,0.0,0.0,0.0,0.0,0.0,0.0,0.0,0.0,0.0,0.0,0.0,0.0,0.0,0.0,0.0,0.0,0.0,0.0,0.0,0.0,0.0,-0.0259,0.0,0.0,0.0,0.0,0.0,0.0761,0.1246,0.1215,0.2044,0.0,0.0,0.0,0.0,0.0,0.0,0.0,0.0,0.0,0.0,0.0,0.0,0.0,0.0,0.0,0.0,0.0,0.0,0.0,0.0,0.0,0.0,0.0,0.0,0.0,0.0,0.0,0.0,0.0,0.0,0.0,0.0,0.0,0.0,0.0,0.0,0.0,0.0,0.0,0.0,0.0,0.0,0.0,0.0,0.0,0.0,0.0,0.0,0.0,0.0,0.0,0.0,0.0,0.0,0.0,0.0,0.0,0.0,0.0,0.0,0.0,0.0,0.0,0.0,0.0,0.0,0.0,0.0,0.0,0.0,0.0,0.0,0.0,0.0,0.0,0.0,0.0,0.0,0.0,0.0,0.0,0.0,0.0,0.0,0.0,0.0,0.0,0.0,0.0,0.0,0.0,0.0,0.0,0.0,0.0,0.0,0.0,0.0,0.0,0.0,0.0,0.0,-0.0178,0.0,0.0,0.0,0.0,0.0,0.0694,0.1061,0.0942,0.1631,0.0,0.0,0.0,0.0,0.0,0.0,0.0,0.0,0.0,0.0,0.0,0.0,0.0,0.0,0.0,0.0,0.0,0.0,0.0,0.0,0.0,0.0,0.0,0.0,0.0,0.0,0.0,0.0,0.0,0.0,0.0,0.0,0.0,0.0,0.0,0.0,0.0,0.0,0.0,0.0,0.0,0.0,0.0,0.0,0.0,0.0,0.0,0.0,0.0,0.0,0.0,0.0,0.0,0.0,0.0,0.0,0.0,0.0,0.0,0.0,0.0,0.0,0.0,0.0,0.0,0.0,0.0,0.0,0.0,0.0,0.0,0.0,0.0,0.0,0.0,0.0,0.0,0.0,0.0,0.0,0.0,0.0,0.0,0.0,0.0,0.0,0.0,0.0,0.0,0.0,0.0,0.0,0.0,0.0,0.0,0.0,0.0,0.0,0.0,0.0,0.0,0.0,-0.0069,0.0,0.0,0.0,0.0,0.0,0.0753,0.1133,0.0918,0.0,0.0,0.0,0.0,0.0,0.0,0.0,0.0,0.0,0.0,0.0,0.0,0.0,0.0,0.0,0.0,0.0,0.0,0.0,0.0,0.0,0.0,0.0,0.0,0.0,0.0,0.0,0.0,0.0,0.0,0.0,0.0,0.0,0.0,0.0,0.0,0.0,0.0,0.0,0.0,0.0,0.0,0.0,0.0,0.0,0.0,0.0,0.0,0.0,0.0,0.0,0.0,0.0,0.0,0.0,0.0,0.0,0.0,0.0,0.0,0.0,0.0,0.0,0.0,0.0,0.0,0.0,0.0,0.0,0.0,0.0,0.0,0.0,0.0,0.0,0.0,0.0,0.0,0.0,0.0,0.0,0.0,0.0,0.0,0.0,0.0,0.0,0.0,0.0,0.0,0.0,0.0,0.0,0.0,0.0,0.0,0.0,0.0,0.0,0.0,0.0,0.0,-0.0015,0.0,0.0,0.0,0.0,0.0,0.0,0.0761,0.1145,0.0911,0.0,0.0,0.0,0.0,0.0,0.0,0.0,0.0,0.0,0.0,0.0,0.0,0.0,0.0,0.0,0.0,0.0,0.0,0.0,0.0,0.0,0.0,0.0,0.0,0.0,0.0,0.0,0.0,0.0,0.0,0.0,0.0,0.0,0.0,0.0,0.0,0.0,0.0,0.0,0.0,0.0,0.0,0.0,0.0,0.0,0.0,0.0,0.0,0.0,0.0,0.0,0.0,0.0,0.0,0.0,0.0,0.0,0.0,0.0,0.0,0.0,0.0,0.0,0.0,0.0,0.0,0.0,0.0,0.0,0.0,0.0,0.0,0.0,0.0,0.0,0.0,0.0,0.0,0.0,0.0,0.0,0.0,0.0,0.0,0.0,0.0,0.0,0.0,0.0,0.0,0.0,0.0,0.0,0.0,0.0,0.0,0.0,0.0,0.0,0.0,0.0,0.0,-0.0016,0.0,0.0,0.0,0.0,0.0,0.0,0.0674,0.1049,0.0,0.0,0.0,0.0,0.0,0.0,0.0,0.0,0.0,0.0,0.0,0.0,0.0,0.0,0.0,0.0,0.0,0.0,0.0,0.0,0.0,0.0,0.0,0.0,0.0,0.0,0.0,0.0,0.0,0.0,0.0,0.0,0.0,0.0,0.0,0.0,0.0,0.0,0.0,0.0,0.0,0.0,0.0,0.0,0.0,0.0,0.0,0.0,0.0,0.0,0.0,0.0,0.0,0.0,0.0,0.0,0.0,0.0,0.0,0.0,0.0,0.0,0.0,0.0,0.0,0.0,0.0,0.0,0.0,0.0,0.0,0.0,0.0,0.0,0.0,0.0,0.0,0.0,0.0,0.0,0.0,0.0,0.0,0.0,0.0,0.0,0.0,0.0,0.0,0.0,0.0,0.0,0.0,0.0,0.0,0.0,0.0,0.0,0.0,0.0,0.0,0.0,0.0,0.0,0.0,0.0,0.0,0.0,0.0,0.0,0.0756,0.1146,0.0913,0.0,0.0,0.0,0.0,0.0,0.0,0.0,0.0,0.0,0.0,0.0,0.0,0.0,0.0,0.0,0.0,0.0,0.0,0.0,0.0,0.0,0.0,0.0,0.0,0.0,0.0,0.0,0.0,0.0,0.0,0.0,0.0,0.0,0.0,0.0,0.0,0.0,0.0,0.0,0.0,0.0,0.0,0.0,0.0,0.0,0.0,0.0,0.0,0.0,0.0,0.0,0.0,0.0,0.0,0.0,0.0,0.0,0.0,0.0,0.0,0.0,0.0,0.0,0.0,0.0,0.0,0.0,0.0,0.0,0.0,0.0,0.0,0.0,0.0,0.0,0.0,0.0,0.0,0.0,0.0,0.0,0.0,0.0,0.0,0.0,0.0,0.0,0.0,0.0,0.0,0.0,0.0,0.0,0.0,0.0,0.0,0.0,0.0,0.0,0.0,0.0,0.0,0.0,0.0,0.0,0.0,0.0,0.0,0.0,0.0807,0.1211,0.0994,0.0,0.0,0.0,0.0,0.0,0.0,0.0,0.0,0.0,0.0,0.0,0.0,0.0,0.0,0.0,0.0,0.0,0.0,0.0,0.0,0.0,0.0,0.0,0.0,0.0,0.0,0.0,0.0,0.0,0.0,0.0,0.0,0.0,0.0,0.0,0.0,0.0,0.0,0.0,0.0,0.0,0.0,0.0,0.0,0.0,0.0,0.0,0.0,0.0,0.0,0.0,0.0,0.0,0.0,0.0,0.0,0.0,0.0,0.0,0.0,0.0,0.0,0.0,0.0,0.0,0.0,0.0,0.0,0.0,0.0,0.0,0.0,0.0,0.0,0.0,0.0,0.0,0.0,0.0,0.0,0.0,0.0,0.0,0.0,0.0,0.0,0.0,0.0,0.0,0.0,0.0,0.0,0.0,0.0,0.0,0.0,0.0,0.0,0.0,0.0,0.0,0.0,0.0,0.0,0.0,0.0,0.0,0.0,0.0,0.0807,0.1245,0.111,0.0,0.0,0.0,0.0,0.0,0.0,0.0,0.0,0.0,0.0,0.0,0.0,0.0,0.0,0.0,0.0,0.0,0.0,0.0,0.0,0.0,0.0,0.0,0.0,0.0,0.0,0.0,0.0,0.0,0.0,0.0,0.0,0.0,0.0,0.0,0.0,0.0,0.0,0.0,0.0,0.0,0.0,0.0,0.0,0.0,0.0,0.0,0.0,0.0,0.0,0.0,0.0,0.0,0.0,0.0,0.0,0.0,0.0,0.0,0.0,-0.1696,0.0,0.0,0.0,0.0,0.0,0.0,0.0,0.0,0.0,0.0,0.0,0.0,0.0,0.0,0.0,0.0,0.0,0.0,0.0,0.0,0.0,0.0,0.0,0.0,0.0,0.0,0.0,0.0,0.0,0.0,0.0,0.0,0.0,0.0,0.0,0.0,0.0,0.0,0.0,0.0,0.0,0.0,0.0,0.0,0.0,0.0,0.0,0.0,0.0807,0.1245,0.111,0.1667,0.0,0.0,0.0,0.0,0.0,0.0,0.0,0.0,0.0,0.0,0.0,0.0,0.0,0.0,0.0,0.0,0.0,0.0,0.0,0.0,0.0,0.0,0.0,0.0,0.0,0.0,0.0,0.0,0.0,0.0,0.0,0.0,0.0,0.0,0.0,0.0,0.0,0.0,0.0,0.0,0.0,0.0,0.0,0.0,0.0,0.0,0.0,0.0,0.0,0.0,0.0,0.0,0.0,0.0,0.0,0.0,0.0,0.0,0.0,0.0,-0.1364,0.0,0.0,0.0,0.0,0.0,0.0,0.0,0.0,0.0,0.0,0.0,0.0,0.0,0.0,0.0,0.0,0.0,0.0,0.0,0.0,0.0,0.0,0.0,0.0,0.0,0.0,0.0,0.0,0.0,0.0,0.0,0.0,0.0,0.0,0.0,0.0,0.0,0.0,0.0,0.0,0.0,0.0,0.0,0.0,0.0,0.0,0.0,0.0886,0.1369,0.1208,0.1921,0.0,0.0,0.0,0.0,0.0,0.0,0.0,0.0,0.0,0.0,0.0,0.0,0.0,0.0,0.0,0.0,0.0,0.0,0.0,0.0,0.0,0.0,0.0,0.0,0.0,0.0,0.0,0.0,0.0,0.0,0.0,0.0,0.0,0.0,0.0,0.0,0.0,0.0,0.0,0.0,0.0,0.0,0.0,0.0,0.0,0.0,0.0,0.0,0.0,0.0,0.0,0.0,0.0,-0.4996,-0.4698,-0.3655,-0.3255,-0.281,-0.2342,-0.2173,-0.1869,-0.1579,-0.2845,0.0,0.0,0.0,0.0,0.0,0.0,0.0,0.0,0.0,0.0,0.0,0.0,0.0,0.0,0.0,0.0,0.0,0.0,0.0,0.0,0.0,0.0,0.0,0.0,0.0,0.0,0.0,0.0,0.0,0.0,0.0,0.0,0.0,0.0,0.0,0.0,0.0,0.0,0.0,0.0,0.0,0.0,0.0,0.0045,0.0157,0.1034,0.1523,0.1354,0.2116,0.2446,0.0,0.0,0.0,0.0,0.0,0.0,0.0,0.0,0.0,0.0,0.0,0.0,0.0,0.0,0.0,0.0,0.0,0.0,0.0,0.0,0.0,0.0,0.0,0.0,0.0,0.0,0.0,0.0,0.0,0.0,0.0,0.0,-0.1653,-0.1571,0.0,0.0,0.0,0.0,0.0,0.0,0.0,0.0,0.0,0.0,0.0,0.0,0.0,-0.3245,-0.3484,-0.3484,-0.3822,-0.4491,-0.4573,-0.4799,-0.5096,-0.4769,-0.4581,-0.4476,-0.4458,0.0,-0.0403,-0.2639,0.0,0.0,0.0,0.0,0.0,0.0,0.0,0.0,0.0,0.0,0.0,0.0,0.0,0.0,0.0,0.0,0.0,0.0,0.0,0.0,0.0,0.0,0.0,0.0,0.0,0.0,0.0,0.0,0.0,0.0,0.0,0.0,0.0,0.0,0.0,0.0,0.0,0.0,0.0,0.0,0.0,0.0,0.0,0.0202,0.0739,0.1291,0.1586,0.1571,0.1888,0.202,0.1856,0.1554,0.0,0.0,0.0,0.0,0.0,0.0,0.0,0.0,0.0,0.0,0.0,0.0,0.0,0.0,0.0,0.0,0.0,0.0,0.0,0.0,0.0,0.0,0.0,0.0,0.0,0.0,0.0,0.0,0.0,-0.1467,-0.1714,-0.2249,-0.23,-0.2065,0.0,0.0,0.0,0.0,0.0,0.0,0.0,0.0,0.0,-0.3198,-0.3788,-0.4102,-0.4102,-0.4102,-0.4232,-0.4494,-0.4836,-0.5051,-0.5114,-0.5152,-0.5169,-0.5169,-0.5169,-0.4354,-0.31,-0.3818,-0.4102,-0.404,0.0,0.0,0.0,0.0,-0.3064,-0.4064,-0.3798,-0.4051,-0.4436,-0.4098,0.0,0.0,0.0,0.0,0.0,0.0,0.0,0.0,0.0,0.0,0.0,0.0,0.0,0.0,0.0,0.0,0.0,0.0,0.0,0.0,0.0,0.0,0.0,0.0,0.0,0.0,0.0,0.0,0.0,0.0,0.0,0.0247,0.0851,0.1407,0.1689,0.1612,0.2029,0.2048,0.1538,0.156,0.1615,0.0,0.0,0.0,0.0,0.0,0.0,0.0,0.0,0.0,0.0,0.0,0.0,0.0,0.0,0.0,0.0,0.0,0.0,0.0,0.0,0.0,0.0,0.0,0.0,0.0,0.0,0.0,0.0,-0.1581,-0.1779,-0.2711,-0.3411,-0.3488,0.0,0.0,0.0,0.0,0.0,0.0,-0.4331,-0.4522,-0.4334,-0.371,-0.4221,-0.4491,-0.4491,-0.4644,-0.472,-0.4726,-0.5177,-0.5279,-0.5009,-0.4338,-0.402,-0.4084,-0.499,-0.5395,-0.5358,-0.4907,-0.472,-0.4662,-0.4064,-0.3552,-0.3157,-0.3157,-0.3723,-0.4491,-0.4491,-0.4491,-0.4416,-0.3972,-0.4129,-0.4491,-0.4491,0.0,0.0,0.0,0.0,0.0,0.0,0.0,0.0,0.0,0.0,0.0,0.0,0.0,0.0,0.0,0.0,0.0,0.0,0.0,0.0,0.0,0.0,0.0,0.0,0.0,0.0,0.0,0.0,0.0314,0.1073,0.1407,0.1602,0.1642,0.1928,0.1805,0.1168,0.1378,0.1557,0.1645,0.0,0.0,0.0,0.0,0.0,0.0,0.0,0.0,0.0,0.0,0.0,0.0,0.0,0.0,0.0,0.0,0.0,0.0,0.0,0.0,0.0,0.0,0.0,0.0,0.0,0.0,0.0,0.0,0.0,-0.306,-0.531,0.0,0.0,0.0,0.0,-0.2782,-0.3737,-0.4303,-0.4028,-0.4557,-0.4591,-0.3991,-0.4327,-0.4491,-0.4491,-0.5061,-0.5347,-0.5351,-0.5382,-0.5388,-0.5272,-0.1843,-0.0269,-0.0471,-0.3918,-0.5395,-0.5392,-0.5361,-0.5347,-0.5289,-0.4682,-0.4426,-0.4399,-0.4399,-0.444,-0.4491,-0.4491,-0.4491,-0.4484,-0.4453,-0.4464,-0.4491,-0.4491,-0.2378,0.0,0.0,0.0,0.0,0.0,0.0,0.0,0.0,0.0,0.0,0.0,0.0,0.0,0.0,0.0,0.0,0.0,0.0,0.0,0.0,0.0,0.0,0.0,0.0,0.0,0.0,0.0,0.0471,0.1652,0.1252,0.1184,0.1755,0.1281,0.0899,0.0746,0.0741,0.1073,0.1775,0.1482,0.0,0.0,0.0,0.0,0.0,0.0,0.0,0.0,0.0,0.0,0.0,0.0,0.0,0.0,0.0,0.0,0.0,0.0,0.0,0.0,0.0,0.0,0.0,0.0,0.0,0.0,0.0,0.0,-0.4252,-0.5616,0.0,-0.6815,-0.5749,-0.4632,-0.3622,-0.4501,-0.4911,-0.4545,-0.4765,-0.479,-0.4577,-0.4539,-0.4679,-0.5068,-0.5286,-0.422,-0.1913,-0.1913,-0.1913,-0.1879,-0.0572,-0.1276,-0.3551,-0.4858,-0.5395,-0.5426,-0.5815,-0.5747,-0.5375,-0.5156,-0.5071,-0.5071,-0.5071,-0.5071,-0.5071,-0.5071,-0.5071,-0.5071,-0.5071,-0.3496,-0.2049,-0.4378,-0.2708,0.0,0.0,0.0,0.0,0.0,0.0,0.0,0.0,0.0,0.0,0.0,0.0,0.0,0.0,0.0,0.0,0.0,0.0,0.0,0.0,0.0,0.0,0.0,0.0,0.0,0.0,0.0,0.0337,0.114,0.1029,0.1128,0.1632,0.1184,0.083,0.0713,0.0697,0.0815,0.1091,0.114,0.1277,0.0,0.0,0.0,0.0,0.0,0.0,0.0,0.0,0.0,0.0,0.0,0.0,0.0,0.0,0.0,0.0,0.0,0.0,0.0,0.0,0.0,0.0,0.0,0.0,0.0,0.0,-0.4699,-0.5242,-0.6237,-0.7024,-0.737,-0.6342,-0.5334,-0.459,-0.4965,-0.5129,-0.4859,-0.488,-0.487,-0.4769,-0.4795,-0.4396,-0.3582,-0.3585,-0.2382,0.0,0.0,0.0,0.0,0.0,-0.198,-0.5405,-0.561,-0.5699,-0.5733,-0.6136,-0.6061,-0.5689,-0.5583,-0.5484,-0.5395,-0.5395,-0.5395,-0.5395,-0.5395,-0.5395,-0.5395,-0.5395,-0.3349,-0.1243,-0.3049,-0.1896,0.0,0.0,0.0,0.0,0.0,0.0,0.0,0.0,0.0,0.0,0.0,0.0,0.0,0.0,0.0,0.0,0.0,0.0,0.0,0.0,0.0,0.0,0.0,0.0,0.0,0.0,0.0,0.0247,0.0851,0.0861,0.0988,0.1338,0.1021,0.0729,0.048,0.0463,0.0538,0.0689,0.1124,0.1327,0.1296,0.0,0.0,0.0,0.0,0.0,0.0,0.0,0.0,0.0,0.0,0.0,0.0,0.0,0.0,0.0,0.0,0.0,0.0,0.0,0.0,0.0,0.0,0.0,-0.4083,-0.5127,-0.5932,-0.5969,-0.7302,-0.7746,-0.6556,-0.6817,-0.6664,-0.5691,-0.5192,-0.4897,-0.4887,-0.4897,-0.4796,-0.4528,-0.5088,-0.3651,-0.0034,0.0,0.0,0.0,0.0,0.0,0.0,-0.0136,-0.2124,-0.5457,-0.6044,-0.63,-0.63,-0.63,-0.63,-0.6269,-0.5932,-0.564,-0.5423,-0.5412,-0.5402,-0.5395,-0.5395,-0.5395,-0.5395,-0.5395,-0.4151,-0.2344,-0.0605,-0.0034,0.0,0.0,0.0,0.0,0.0,0.0,0.0,0.0,0.0,0.0,0.0,0.0,0.0,0.0,0.0,0.0,0.0,0.0,0.0,0.0,0.0,0.0,0.0,0.0,0.0,0.0,0.0,0.0247,0.0828,0.0754,0.0748,0.0891,0.0752,0.0486,0.0059,0.0036,0.0236,0.0691,0.141,0.1604,0.1263,0.0,0.0,0.0,0.0,0.0,0.0,0.0,0.0,0.0,0.0,0.0,0.0,0.0,0.0,0.0,0.0,0.0,0.0,0.0,0.0,0.0,-0.5094,-0.5538,-0.5023,-0.5968,-0.6865,-0.7299,-0.8105,-0.8242,-0.7298,-0.674,-0.6322,-0.6065,-0.5547,-0.5145,-0.4897,-0.5121,-0.5231,-0.515,-0.5306,-0.3651,-0.0034,0.0,0.0,0.0,0.0,0.0,-0.0113,-0.3156,-0.511,-0.6061,-0.6228,-0.63,-0.63,-0.63,-0.63,-0.6289,-0.6204,-0.6122,-0.6023,-0.5762,-0.5579,-0.5395,-0.5395,-0.5395,-0.5395,-0.5395,-0.3882,-0.2044,-0.1977,-0.1041,0.0,0.0,0.0,0.0,0.0,0.0,0.0,0.0,0.0,0.0,0.0,0.0,0.0,0.0,0.0,0.0,0.0,0.0,0.0,0.0,0.0,0.0,0.0,0.0,0.0,0.0,0.0,0.0067,0.0224,0.0222,0.035,0.0727,0.0401,0.0484,0.1135,0.0828,0.0711,0.0835,0.1147,0.1033,0.0,0.0,0.0,0.0,0.0,0.0,0.0,0.0,0.0,0.0,0.0,0.0,0.0,0.0,0.0,0.0,0.0,0.0,0.0,0.0,0.0,0.0,-0.5508,-0.5604,-0.5339,-0.6356,-0.7146,-0.7193,-0.7669,-0.7685,-0.6879,-0.6426,-0.6066,-0.5749,-0.5527,-0.5317,-0.5114,-0.53,-0.5395,-0.5395,-0.5395,-0.3664,-0.0036,0.0,0.0,0.0,0.0,0.0,-0.0079,-0.2543,-0.4613,-0.63,-0.63,-0.63,-0.63,-0.63,-0.63,0.0,0.0,0.0,0.0,0.0,-0.5767,-0.5586,-0.5631,-0.5648,-0.5641,-0.5593,-0.4052,-0.2313,-0.2596,-0.1443,0.0,0.0,0.0,0.0,0.0,0.0,0.0,0.0,0.0,0.0,0.0,0.0,0.0,0.0,0.0,0.0,0.0,0.0,0.0,0.0,0.0,0.0,0.0,0.0,0.01,0.0343,0.014,0.0112,0.0359,0.0552,0.0,0.0,0.0,0.1233,0.166,0.1179,0.0,0.0,0.0,0.0,0.0,0.0,0.0,0.0,0.1398,0.1255,0.0,0.0,0.0,0.0,0.0,0.0,0.0,0.0,0.0,0.0,0.0,0.0,0.0,0.0,0.0,0.0,-0.5375,-0.5147,-0.5263,-0.6354,-0.6929,-0.6343,-0.6683,-0.6668,-0.5918,-0.611,-0.5982,-0.5192,-0.5293,-0.5395,-0.5395,0.0,0.0,0.0,0.0,-0.3246,-0.0039,0.0,0.0,0.0,0.0,0.0,0.0,-0.0235,-0.2543,-0.63,-0.63,-0.63,-0.63,-0.63,-0.63,-0.63,-0.63,-0.619,-0.603,-0.603,-0.5972,-0.5864,-0.5972,0.0,0.0,-0.5689,-0.4388,-0.2844,-0.2646,-0.1389,0.0,0.0,0.0,0.0,0.0,0.0,0.0,0.0,0.0,0.0,0.0,0.0,0.0,0.0,0.0,0.0,0.0,0.0,0.0,0.0,0.0,0.0,0.0,0.0,0.0202,0.0731,0.0,0.0,0.0851,0.134,0.144,0.1027,0.1951,0.2334,0.1926,0.1437,0.1123,0.1005,0.0862,0.0742,0.0626,0.0977,0.1157,0.114,0.0956,0.0937,0.0,0.0,0.0,0.0,0.0,0.0,0.0,0.0,0.0,0.0,0.0,0.0,0.0,0.0,0.0,-0.5007,-0.5478,-0.5575,-0.5202,-0.5692,-0.6253,-0.6723,-0.7038,-0.6937,-0.6195,-0.6595,-0.6501,-0.5432,-0.5375,-0.5395,-0.5395,-0.5395,-0.5395,-0.5395,-0.2581,-0.0709,0.0,0.0,0.0,0.0,0.0,0.0,-0.0039,-0.1721,-0.3906,-0.63,-0.63,-0.63,-0.63,-0.63,-0.63,-0.63,-0.63,-0.6276,-0.6242,-0.6242,-0.6228,-0.619,-0.6047,-0.5999,-0.5832,-0.4818,-0.3774,-0.2797,-0.2152,-0.104,0.0,0.0,0.0,0.0,0.0,0.0,0.0,0.0,0.0,0.0,0.0,0.0,0.0,0.0,0.0,0.0,0.0,0.0,0.0,0.0,0.0,0.0,0.0,0.0,0.0051,0.0151,0.0494,0.0784,0.0895,0.142,0.1726,0.1628,0.2284,0.2615,0.2527,0.2727,0.2455,0.1651,0.1496,0.0998,0.0137,0.0216,0.026,0.0269,0.0581,0.0757,0.0,0.0,0.0,0.0,0.0,0.0,0.0,0.0,0.0,0.0,0.0,-0.2567,-0.2935,0.0,-0.4119,-0.467,-0.4917,-0.4988,-0.4828,-0.5074,-0.5374,-0.5743,-0.6045,-0.6061,-0.5683,-0.6003,-0.6013,-0.5428,-0.5395,-0.5395,-0.5395,-0.5535,-0.5127,-0.4082,-0.14,0.0,0.0,0.0,0.0,0.0,0.0,0.0,-0.0039,-0.1058,-0.2891,-0.5234,-0.5234,-0.5667,-0.63,-0.63,-0.63,-0.63,-0.63,-0.63,-0.63,-0.63,-0.63,-0.6205,-0.5565,-0.5342,-0.5144,-0.4004,-0.3016,-0.223,-0.2018,-0.1049,0.0,0.0,0.0,0.0,0.0,0.0,0.0,0.0,0.0,0.0,0.0,0.0337,0.0667,0.0648,0.0661,0.0641,0.0651,0.0286,0.0,0.0,0.0,0.0,0.0,0.0,0.0103,0.0429,0.0718,0.1029,0.132,0.1897,0.2386,0.2679,0.2993,0.3143,0.3144,0.277,0.2313,0.1814,0.1145,0.0526,0.0,0.0,0.0,0.0,0.0234,0.0357,0.0,0.0,0.0,0.0,0.0,0.0,0.0,0.0,-0.2788,-0.2812,-0.2846,-0.2972,-0.33,-0.3672,-0.4044,-0.4392,-0.4345,-0.4304,-0.4474,-0.4624,-0.4691,-0.4691,-0.4952,-0.511,-0.514,-0.532,-0.5395,-0.5395,-0.5395,-0.5412,-0.545,-0.5459,-0.466,-0.299,-0.1255,-0.0234,0.0,0.0,0.0,0.0,0.0,0.0,0.0,-0.0196,-0.1566,-0.3709,-0.4137,-0.5076,-0.63,-0.63,-0.63,-0.63,-0.63,-0.63,-0.63,-0.63,-0.63,-0.6141,-0.5079,-0.4688,-0.4491,-0.3203,-0.2268,-0.1606,-0.1683,-0.0889,0.0,0.0,0.0,0.0,0.0,0.0,0.0,0.0,0.0,0.0,0.0,0.0669,0.1258,0.1303,0.1381,0.1424,0.1308,0.069,0.0168,0.0028,0.0,0.0,0.0,0.0,0.0236,0.0835,0.0998,0.1356,0.2083,0.2586,0.3078,0.3578,0.3604,0.3604,0.3604,0.2544,0.1919,0.1808,0.0739,0.0112,0.0,0.0,0.0,0.0,0.0,0.0,-0.0695,-0.1128,-0.1707,-0.1943,-0.2531,-0.3044,0.0,0.0,-0.3096,-0.3215,-0.3375,-0.3515,-0.3559,-0.3795,-0.4038,-0.4217,-0.4365,-0.447,-0.4487,-0.4624,-0.4691,-0.4691,-0.4952,-0.5182,-0.5354,-0.5385,-0.5395,-0.5395,-0.5395,-0.5474,-0.5655,-0.4734,-0.4067,-0.3784,-0.2352,-0.1065,0.0,0.0,0.0,0.0,0.0,0.0,-0.0039,-0.098,-0.1606,-0.1997,-0.3828,-0.5276,-0.63,-0.63,-0.63,-0.63,-0.63,-0.63,-0.63,-0.63,-0.63,-0.6141,-0.5079,-0.4688,-0.4375,-0.2426,-0.1685,-0.1411,-0.051,-0.0118,0.0,0.0,0.0,0.0,0.0,0.0,0.0,0.0,0.0,0.0,0.0,0.0594,0.1172,0.1263,0.1719,0.1932,0.1403,0.1107,0.0755,0.0112,0.0,0.0,0.0,0.0,0.0236,0.0835,0.1386,0.2172,0.3299,0.3464,0.3534,0.3604,0.3604,0.3604,0.3604,0.2946,0.2339,0.1808,0.114,0.0538,0.0,0.0,0.0,0.0,0.0,0.0,-0.066,-0.1299,-0.196,0.0,-0.2628,-0.3101,-0.3101,-0.3168,-0.3226,-0.329,-0.3459,-0.3655,-0.3805,-0.3913,-0.4072,0.0,-0.445,-0.4491,-0.4491,-0.4624,-0.4691,-0.4691,-0.4952,-0.5123,-0.522,-0.5341,-0.5395,-0.5395,-0.5504,-0.5597,-0.5651,-0.4786,-0.401,-0.3338,-0.2246,-0.1159,0.0,0.0,0.0,0.0,0.0,0.0,0.0,-0.0471,-0.1332,-0.2542,-0.4062,-0.5315,-0.63,-0.63,-0.63,-0.63,-0.63,-0.63,-0.63,-0.63,-0.63,-0.6064,-0.4373,-0.3787,-0.3437,-0.1332,-0.0667,-0.0588,-0.0118,0.0,0.0,0.0,0.0,0.0,0.0,0.0,0.0,0.0,0.0,0.0,0.0,0.1065,0.2039,0.1997,0.2598,0.3037,0.2694,0.1786,0.1006,0.0699,0.028,0.0,0.0,0.0,0.0376,0.1317,0.2039,0.2755,0.3525,0.3604,0.3604,0.3604,0.3262,0.3236,0.3578,0.2344,0.1697,0.1808,0.0873,0.0247,0.0,0.0,0.0,0.0,0.0,0.0,-0.0863,-0.1458,0.0,-0.2309,-0.2769,-0.3148,-0.3162,-0.3283,-0.3391,-0.3391,-0.35,-0.3679,-0.391,-0.3958,-0.4056,-0.4355,-0.4429,-0.4447,-0.4484,-0.4586,-0.4672,-0.4684,-0.4914,-0.5056,-0.5096,-0.527,-0.5395,-0.5395,-0.5569,-0.5678,-0.5647,-0.4635,-0.3703,-0.2969,-0.1785,-0.0784,0.0,0.0,0.0,0.0,0.0,0.0,0.0,0.0,-0.0979,-0.2735,-0.3787,-0.4882,-0.5867,-0.618,-0.63,-0.63,-0.63,-0.63,-0.63,-0.63,-0.63,-0.5983,-0.3826,-0.3085,-0.2773,-0.0666,0.0,0.0,0.0,0.0,0.0,0.0,0.0,0.0,0.0,0.0,0.0,0.0,0.0,0.0,0.0,0.1402,0.2638,0.2574,0.335,0.3958,0.369,0.2583,0.1647,0.1424,0.0783,0.0224,0.0028,0.0333,0.0863,0.1722,0.2619,0.3268,0.3569,0.3604,0.3604,0.3604,0.3192,0.3148,0.3578,0.2032,0.1362,0.1784,0.0605,0.0,0.0,0.0,0.0,0.0,0.0,0.0,-0.1565,0.0,-0.1972,-0.2692,-0.3093,-0.3286,-0.3289,-0.3438,-0.3593,-0.3593,-0.36,-0.3648,-0.3771,-0.3799,-0.3897,-0.4153,-0.4204,-0.4277,-0.447,-0.4494,-0.4552,-0.4674,-0.483,-0.4948,0.0,-0.527,-0.5395,-0.5395,-0.5539,-0.565,-0.5786,-0.3976,-0.3011,-0.308,-0.1096,-0.0039,0.0,0.0,0.0,0.0,0.0,0.0,0.0,0.0,-0.0588,-0.1685,-0.2696,-0.3748,-0.4844,-0.5867,-0.63,-0.63,-0.63,-0.63,-0.63,-0.63,-0.63,-0.5983,-0.3826,-0.3085,-0.2773,-0.0666,0.0,0.0,0.0,0.0,0.0,0.0,0.0,0.0,0.0,0.0,0.0,0.0,0.0,0.0,0.0,0.1315,0.253,0.2661,0.3776,0.4474,0.3909,0.3493,0.2982,0.2286,0.1535,0.0811,0.0084,0.1142,0.1916,0.1817,0.2984,0.3734,0.3614,0.3604,0.3604,0.3604,0.3578,0.3578,0.3604,0.2433,0.1784,0.1808,0.0605,0.0,0.0,0.0,0.0,0.0,0.0,0.0,-0.1141,0.0,-0.2456,-0.2714,-0.3134,-0.3505,-0.3497,-0.3544,-0.3604,-0.3604,-0.3604,-0.3648,-0.3765,-0.3792,-0.389,-0.4147,-0.4197,-0.4271,-0.447,-0.458,-0.4662,-0.4684,-0.4908,0.0,0.0,0.0,0.0,-0.5395,-0.5589,-0.5749,-0.58,-0.4035,-0.3059,-0.3083,-0.1097,0.0,0.0,0.0,0.0,0.0,0.0,0.0,0.0,0.0,-0.0588,-0.1646,-0.2657,-0.3709,-0.4766,-0.5867,-0.63,-0.63,-0.63,-0.63,-0.63,-0.63,-0.63,-0.5983,-0.3826,-0.3085,-0.2773,-0.0666,0.0,0.0,0.0,0.0,0.0,0.0,0.0,0.0,0.0,0.0,0.0,0.0,0.0,0.0,0.0,0.14,0.2635,0.2579,0.3877,0.4843,0.4463,0.3888,0.3031,0.1681,0.1257,0.1006,0.0755,0.1466,0.1991,0.1943,0.2694,0.2985,0.2442,0.241,0.241,0.241,0.241,0.2588,0.299,0.223,0.1808,0.1808,0.1006,0.0409,0.0,0.0,0.0,0.0,0.0493,0.0718,-0.0891,-0.1736,-0.2612,-0.2687,-0.3156,-0.3604,-0.3604,-0.3604,-0.3587,-0.351,-0.3497,-0.351,-0.3544,-0.3621,-0.3757,-0.4011,-0.4105,-0.4227,-0.4535,-0.4658,-0.4728,-0.4836,-0.4982,-0.512,0.0,0.0,0.0,-0.5474,-0.5667,-0.5827,-0.5881,-0.4125,-0.3085,-0.3085,-0.1097,0.0,0.0,0.0,0.0,0.0,0.0,0.0,0.0,0.0,-0.0392,-0.1097,-0.2501,-0.3476,-0.4256,-0.5709,-0.63,-0.63,-0.63,-0.63,-0.63,-0.63,-0.63,-0.6064,-0.4295,-0.3435,-0.2812,-0.1136,-0.0314,0.0,0.0,0.0,0.0,0.0,0.0,0.0,0.0,0.0,0.0,0.0,0.0,0.0,0.0,0.141,0.2664,0.2585,0.3908,0.4965,0.4806,0.43,0.3457,0.2099,0.1898,0.1703,0.1174,0.1671,0.2045,0.1997,0.2336,0.2371,0.1839,0.1808,0.1808,0.1808,0.2006,0.2295,0.2694,0.2317,0.2117,0.2117,0.1318,0.0709,0.031,0.0097,0.0,0.0,0.0485,0.0849,-0.0901,-0.162,-0.242,-0.2639,-0.3126,-0.3556,-0.3556,-0.3575,-0.3527,-0.3294,-0.3282,-0.3252,-0.3128,0.0,-0.3492,-0.3767,-0.3921,-0.4178,-0.4626,-0.4697,-0.4809,0.0,0.0,0.0,0.0,0.0,0.0,-0.5599,0.0,-0.5867,-0.5983,-0.416,-0.3085,-0.3085,-0.1097,0.0,0.0,0.0,0.0,0.0,0.0,0.0,0.0,0.0,0.0,-0.0118,-0.2189,-0.3085,-0.3279,-0.5434,-0.63,-0.63,-0.63,-0.63,-0.63,-0.63,-0.63,-0.6141,-0.5118,-0.4059,-0.2929,-0.1919,-0.0863,0.0,0.0,0.0,0.0,0.0,0.0,0.0,0.0,0.0,0.0,0.0,0.0,0.0,0.0,0.141,0.2711,0.2711,0.39,0.4887,0.4877,0.466,0.4236,0.3428,0.3345,0.2815,0.1341,0.1756,0.2118,0.1982,0.1938,0.1881,0.1718,0.1703,0.1701,0.1701,0.2299,0.2652,0.2652,0.2719,0.2741,0.2696,0.1544,0.094,0.0907,0.0298,0.0,0.0,0.0028,0.0448,-0.0896,-0.1412,-0.2083,-0.2576,-0.2807,-0.2921,-0.2921,-0.3159,-0.3248,-0.2793,-0.2933,-0.3148,-0.3108,-0.3226,0.0,-0.3744,-0.3921,0.0,-0.4626,-0.4789,0.0,-0.5076,0.0,-0.5395,-0.5549,-0.5532,0.0,0.0,-0.5844,-0.5867,-0.5983,-0.416,-0.3085,-0.3085,-0.1097,0.0,0.0,0.0,0.0,0.0,0.0,0.0,0.0,0.0,0.0,-0.0118,-0.2189,-0.3085,-0.3279,-0.5434,-0.63,-0.63,-0.63,-0.63,-0.63,-0.63,-0.63,-0.6261,-0.5983,-0.4647,-0.2929,-0.1919,-0.0863,0.0,0.0,0.0,0.0,0.0,0.0,0.0,0.0,0.0,0.0,0.0,0.0,0.0,0.0,0.141,0.2711,0.2711,0.39,0.488,0.4769,0.4617,0.4236,0.3428,0.3818,0.3649,0.212,0.1995,0.187,0.1389,0.1228,0.0975,0.0491,0.0454,0.047,0.047,0.1455,0.2029,0.2029,0.2901,0.317,0.2719,0.1955,0.136,0.0895,0.0284,0.0,0.0,0.0557,0.1202,-0.058,-0.1142,-0.1808,-0.1895,-0.2119,-0.235,-0.257,-0.2618,-0.259,-0.2399,-0.2543,0.0,-0.2559,-0.2903,0.0,0.0,0.0,0.0,-0.4626,-0.4823,-0.4996,0.0,-0.5341,0.0,-0.5576,-0.5589,-0.5711,0.0,-0.5912,-0.5969,-0.6122,-0.4653,-0.3593,-0.3124,-0.1527,-0.0471,0.0,0.0,0.0,0.0,0.0,0.0,0.0,0.0,0.0,-0.0118,0.0,-0.3085,-0.3279,-0.5434,-0.63,-0.63,-0.63,-0.63,-0.63,-0.63,-0.63,-0.63,-0.63,-0.5198,-0.3632,-0.2581,-0.1567,-0.0628,-0.0157,0.0,0.0,0.0,0.0,0.0,0.0,0.0,0.0,0.0,0.0,0.0,0.0,0.141,0.2891,0.3533,0.4338,0.485,0.4658,0.4545,0.4349,0.3901,0.4208,0.3932,0.2397,0.2141,0.1835,0.1169,0.0731,0.0359,0.0025,0.0,0.0,0.0,0.1195,0.1884,0.1884,0.3058,0.3563,0.3269,0.2294,0.166,0.1394,0.0448,0.0,0.0028,0.0755,0.1507,-0.0134,-0.0764,-0.1461,-0.1008,-0.1297,-0.1787,-0.22,-0.2032,-0.1822,-0.1965,0.0,-0.2074,-0.1865,-0.2499,-0.3064,-0.3121,0.0,-0.4155,-0.4626,-0.4823,-0.503,-0.5358,-0.5395,-0.5463,-0.5599,-0.5616,-0.5742,-0.6,-0.6023,-0.6118,-0.6293,-0.5276,-0.4139,-0.2929,-0.1918,-0.0941,0.0,0.0,0.0,0.0,0.0,0.0,0.0,0.0,0.0,-0.0118,-0.2072,-0.2968,-0.324,-0.5273,-0.618,-0.63,-0.63,-0.63,-0.63,-0.63,-0.63,-0.63,-0.63,-0.5709,-0.4727,-0.3515,-0.2425,-0.1411,-0.0314,0.0,0.0,0.0,0.0,0.0,0.0,0.0,0.0,0.0,0.0,0.0,0.0,0.141,0.313,0.4624,0.4901,0.4826,0.4569,0.4505,0.4491,0.4491,0.4491,0.3987,0.2538,0.2258,0.1876,0.1046,0.0375,0.0,0.0,0.0,0.0,0.0,0.1162,0.1887,0.1987,0.3088,0.3787,0.3994,0.2565,0.1894,0.1992,0.0641,0.0054,0.0168,0.0811,0.1535,-0.0023,-0.0161,-0.0398,-0.079,-0.0984,-0.1083,-0.1164,-0.1422,0.0,0.0,-0.144,-0.1889,-0.196,-0.2408,-0.2876,-0.3209,0.0,0.0,0.0,0.0,-0.503,0.0,0.0,0.0,0.0,0.0,0.0,0.0,0.0,-0.6272,-0.6296,-0.5276,-0.3828,-0.1919,-0.0824,-0.0196,0.0,0.0,0.0,0.0,0.0,0.0,0.0,0.0,0.0,-0.0079,-0.1332,0.0,-0.3202,-0.4453,-0.5512,-0.63,-0.63,-0.63,-0.63,-0.63,-0.63,-0.63,-0.63,-0.618,-0.5709,-0.3748,-0.2425,-0.1411,-0.0314,0.0,0.0,0.0,0.0,0.0,0.0,0.0,0.0,0.0,0.0,0.0,0.0,0.141,0.3181,0.4741,0.4968,0.4863,0.468,0.4576,0.4491,0.4491,0.4491,0.4181,0.3317,0.2621,0.1671,0.0333,0.0083,0.0,0.0,0.0,0.0,0.0,0.0692,0.136,0.1987,0.267,0.3343,0.3994,0.265,0.1968,0.1992,0.0657,0.0306,0.0923,0.1034,0.1813,0.0,0.0,-0.0069,-0.0361,-0.0441,-0.049,-0.0735,0.0,0.0,0.0,-0.0984,-0.1268,-0.1406,0.0,0.0,0.0,0.0,0.0,0.0,0.0,0.0,0.0,0.0,0.0,0.0,0.0,0.0,0.0,0.0,-0.63,-0.63,-0.4766,-0.3398,-0.2425,-0.0823,0.0,0.0,0.0,0.0,0.0,0.0,0.0,0.0,0.0,0.0,-0.0079,-0.1683,-0.2347,-0.2425,-0.4023,-0.5002,-0.5473,-0.5473,-0.5825,-0.63,-0.63,-0.63,-0.63,-0.63,-0.63,-0.5944,-0.3787,-0.2773,-0.2073,-0.0471,0.0,0.0,0.0,0.0,0.0,0.0,0.0,0.0,0.0,0.0,0.0269,0.1209,0.2078,0.3185,0.4772,0.4985,0.487,0.4718,0.4593,0.4491,0.4491,0.4491,0.4236,0.3483,0.3037,0.2343,0.1257,0.0811,0.056,0.056,0.0221,0.0,0.0,0.0618,0.1171,0.1516,0.2481,0.3208,0.3635,0.2947,0.2597,0.267,0.1634,0.134,0.1675,0.2093,0.2676,0.0,0.0,0.0,0.0,0.0,-0.0103,-0.0467,-0.026,0.0,0.0,-0.0599,-0.0687,-0.083,0.0,-0.2225,0.0,0.0,0.0,0.0,0.0,0.0,0.0,0.0,0.0,0.0,0.0,0.0,0.0,0.0,0.0,-0.63,-0.4491,-0.3318,-0.3124,-0.1292,-0.0236,0.0,0.0,0.0,0.0,0.0,0.0,0.0,0.0,0.0,-0.0079,-0.1721,-0.2112,-0.1724,-0.3595,-0.4491,-0.4727,-0.496,-0.555,-0.63,-0.63,-0.63,-0.63,-0.63,-0.63,-0.5944,-0.3787,-0.3085,-0.2695,-0.0627,0.0,0.0,0.0,0.0,0.0,0.0,0.0,0.0,0.0,0.0,0.0505,0.231,0.2711,0.3191,0.4845,0.5032,0.4884,0.4765,0.4641,0.4528,0.4494,0.4491,0.4294,0.3707,0.3594,0.3345,0.276,0.187,0.134,0.134,0.0671,0.0224,0.0224,0.0643,0.0922,0.109,0.2123,0.2877,0.3287,0.3044,0.3042,0.3317,0.2565,0.2286,0.2454,0.3093,0.3483,0.0,0.0,0.0,0.0,0.0,-0.0021,-0.0056,0.0,0.0,-0.0052,-0.0263,-0.0488,-0.0677,-0.1326,-0.1933,0.0,0.0,-0.3467,0.0,0.0,0.0,0.0,0.0,0.0,0.0,0.0,0.0,0.0,0.0,0.0,-0.63,-0.5196,-0.41,-0.3124,-0.2035,-0.098,0.0,0.0,0.0,0.0,0.0,0.0,0.0,0.0,0.0,0.0,-0.0196,0.0,0.0,-0.2774,-0.3826,-0.4805,-0.5786,-0.6222,-0.63,-0.63,-0.63,-0.63,-0.63,-0.63,-0.5944,-0.3787,-0.3085,-0.2695,-0.0627,0.0,0.0,0.0,0.0,0.0,0.0,0.0,0.0,0.0,0.0,0.0505,0.231,0.2711,0.3243,0.5041,0.5216,0.5032,0.4891,0.4772,0.4651,0.4511,0.4491,0.4487,0.4405,0.4405,0.4377,0.4294,0.2982,0.2093,0.2093,0.1424,0.1006,0.1006,0.0448,0.0392,0.1062,0.1226,0.192,0.3287,0.2641,0.2641,0.34,0.2593,0.2538,0.3204,0.3345,0.3763,0.0,0.0,0.0,0.0,0.0,0.0,0.0,0.0,0.0,0.0,-0.008,-0.0237,-0.0477,-0.0985,-0.1538,-0.1998,-0.249,-0.3032,-0.3666,0.0,0.0,0.0,0.0,0.0,0.0,0.0,0.0,0.0,0.0,0.0,-0.63,-0.5276,-0.4491,-0.4062,-0.2465,-0.1411,-0.098,-0.0321,0.0,0.0,0.0,0.0,0.0,0.0,0.0,-0.0039,-0.0667,0.0,0.0,-0.1761,-0.2815,-0.3787,-0.4217,-0.5157,-0.63,-0.63,-0.63,-0.63,-0.63,-0.63,-0.6064,-0.4569,-0.3632,-0.2695,-0.0627,0.0,0.0,0.0,0.0,0.0,0.0,0.0,0.0,0.0,0.0,0.0337,0.1574,0.231,0.3078,0.4317,0.4841,0.5079,0.5026,0.485,0.467,0.4638,0.4549,0.4491,0.4491,0.4491,0.4491,0.4491,0.3566,0.2899,0.2871,0.1786,0.1174,0.1341,0.0504,0.014,0.042,0.0448,0.0923,0.1952,0.2565,0.301,0.3345,0.3511,0.3735,0.4015,0.4042,0.4211,0.0,0.0,0.0,0.0,0.0,0.0,0.0,0.0,0.0,0.0,0.0,-0.0056,-0.0246,-0.0766,-0.13,-0.1723,-0.2252,-0.2857,-0.3508,0.0,0.0,0.0,0.0,0.0,0.0,0.0,0.0,0.0,0.0,0.0,-0.63,-0.5589,-0.504,-0.4727,-0.3285,-0.2232,-0.1607,-0.0837,-0.0319,0.0,0.0,0.0,0.0,0.0,0.0,-0.0039,-0.0784,0.0,0.0,-0.1176,-0.2035,-0.2735,-0.3318,-0.4491,-0.5867,-0.618,-0.63,-0.63,-0.63,-0.63,-0.6141,-0.504,-0.4178,-0.3203,-0.1097,-0.0235,0.0,0.0,0.0,0.0,0.0,0.0,0.0,0.0,0.0,0.0236,0.1106,0.2043,0.2945,0.3846,0.4644,0.5172,0.5052,0.4918,0.4788,0.4672,0.4559,0.4491,0.4491,0.4491,0.4491,0.4491,0.4042,0.3707,0.3649,0.2426,0.1676,0.1704,0.0644,0.0,0.0,0.0,0.0336,0.109,0.2343,0.3093,0.3314,0.4098,0.4491,0.4491,0.4491,0.4491,0.0,0.0,0.0,0.0,0.0,0.0,0.0,0.0,0.0,0.0,0.0,0.0,0.0,-0.0711,-0.1305,-0.1307,-0.2201,-0.3063,-0.3539,-0.3832,0.0,0.0,0.0,0.0,0.0,0.0,0.0,0.0,0.0,0.0,-0.63,-0.63,-0.5786,-0.4727,-0.4686,-0.3675,-0.1607,-0.1607,-0.1059,0.0,0.0,0.0,0.0,0.0,0.0,0.0,0.0,0.0,0.0,-0.1176,-0.1607,-0.1802,-0.3869,-0.4688,-0.4844,-0.5906,-0.63,-0.63,-0.63,-0.63,-0.6141,-0.504,-0.4686,-0.4297,-0.2232,-0.0824,0.0,0.0,0.0,0.0,0.0,0.0,0.0,0.0,0.0,0.0236,0.1106,0.2043,0.2945,0.3846,0.4752,0.53,0.4972,0.4999,0.4952,0.4552,0.4491,0.4491,0.4491,0.4491,0.4491,0.4491,0.4491,0.4491,0.4491,0.3572,0.2764,0.2232,0.0811,0.0,0.0,0.0,0.0336,0.109,0.184,0.2565,0.3314,0.4098,0.4491,0.4491,0.4491,0.4491,0.0,0.0,0.0,0.0,0.0,0.0,0.0,0.0,0.0,0.0,0.0,0.0,0.0,-0.0631,-0.1108,-0.092,-0.1601,-0.2344,0.0,0.0,0.0,0.0,0.0,0.0,0.0,0.0,0.0,0.0,0.0,0.0,-0.63,-0.63,-0.6141,-0.5786,-0.5079,-0.4375,-0.3711,-0.2309,-0.1411,-0.1097,-0.0353,0.0,0.0,0.0,0.0,0.0,0.0,0.0,-0.0039,-0.0353,-0.0941,-0.1646,-0.2309,-0.3439,-0.4727,-0.5079,-0.567,-0.63,-0.63,-0.63,-0.6261,-0.5906,-0.5315,-0.4453,-0.3047,-0.1918,-0.0935,-0.0188,0.0,0.0,0.0,0.0,0.0,0.0,0.0,0.0236,0.1106,0.2043,0.2945,0.3846,0.4755,0.533,0.5066,0.5064,0.5003,0.4737,0.458,0.4491,0.4491,0.4491,0.4491,0.4491,0.4491,0.4491,0.4491,0.3572,0.2764,0.2232,0.0811,0.0,0.0,0.0,0.0112,0.0336,0.1062,0.1814,0.2538,0.3345,0.4015,0.4491,0.4491,0.4491,0.0,0.0,0.0,0.0,0.0,0.0,0.0,0.0,0.0,0.0,0.0,0.0,0.0,-0.0644,-0.1077,-0.0752,-0.1363,-0.1991,0.0,0.0,0.0,0.0,0.0,0.0,0.0,0.0,0.0,0.0,0.0,0.0,-0.63,-0.63,-0.63,-0.63,-0.567,-0.5118,-0.4688,-0.301,-0.1957,-0.1568,-0.051,0.0,0.0,0.0,0.0,0.0,0.0,0.0,0.0,0.0,-0.0392,-0.102,-0.145,-0.2387,-0.3634,-0.4414,-0.5118,-0.5747,-0.6141,-0.63,-0.63,-0.63,-0.5315,-0.3984,-0.3318,-0.2098,-0.0844,-0.0184,0.0,0.007,0.0406,0.0504,0.0572,0.0941,0.1008,0.1175,0.1708,0.2544,0.3313,0.3749,0.4688,0.5365,0.5233,0.5225,0.5085,0.473,0.4569,0.4491,0.4491,0.4491,0.4491,0.4491,0.4491,0.4491,0.4491,0.3935,0.3267,0.2539,0.1453,0.0588,0.0028,0.028,0.028,0.0,0.0727,0.1452,0.2202,0.3289,0.4042,0.4491,0.4491,0.4491,0.0,0.0,0.0,0.0,0.0,0.0,0.0,0.0,0.0,0.0,0.0,0.0,0.0,-0.0711,-0.1162,-0.0721,-0.1384,0.0,0.0,0.0,0.0,0.0,0.0,0.0,0.0,0.0,0.0,0.0,0.0,0.0,-0.63,-0.63,-0.63,-0.63,-0.63,-0.5825,-0.4844,-0.3748,-0.2696,-0.1685,-0.0628,-0.0079,0.0,0.0,0.0,0.0,0.0,0.0,0.0,0.0,0.0,-0.0118,-0.1097,-0.1528,-0.1841,-0.375,-0.4569,-0.4844,-0.5828,-0.6219,-0.63,-0.63,-0.4844,-0.3085,-0.3085,-0.1652,0.0,0.0,0.0036,0.0278,0.108,0.134,0.1608,0.2476,0.2711,0.2711,0.2778,0.3413,0.3915,0.3754,0.4625,0.5395,0.5395,0.5395,0.519,0.458,0.4491,0.4491,0.4491,0.4491,0.4491,0.4491,0.4491,0.4491,0.4491,0.4491,0.4101,0.3158,0.2428,0.148,0.0196,0.0727,0.0699,0.0,0.0671,0.1396,0.2148,0.3735,0.4491,0.4491,0.4491,0.4491,0.0,0.0,0.0,0.0,0.0,0.0,0.0,0.0,0.0,0.0,0.0,0.0,0.0,-0.0713,-0.1048,-0.0281,-0.0887,0.0,0.0,0.0,0.0,0.0,0.0,0.0,0.0,0.0,0.0,0.0,0.0,-0.63,-0.63,-0.63,-0.63,-0.63,-0.63,-0.618,-0.5944,-0.4844,-0.3789,-0.2735,-0.1723,-0.0784,0.0,0.0,0.0,0.0,0.0,0.0,0.0,0.0,0.0,-0.0039,-0.0275,-0.0863,-0.1646,-0.2154,-0.3322,-0.4727,-0.5002,-0.5628,-0.63,-0.63,-0.4844,-0.3085,-0.3085,-0.1632,0.0,0.0,0.0493,0.1049,0.1242,0.1842,0.2444,0.2644,0.2711,0.2878,0.3547,0.3685,0.3954,0.4824,0.5193,0.5395,0.5395,0.5395,0.519,0.458,0.4491,0.4491,0.4491,0.4491,0.4491,0.4491,0.4491,0.4491,0.4491,0.4491,0.4405,0.4156,0.187,0.0866,0.1647,0.0755,0.0168,0.0,0.0168,0.0727,0.1676,0.3569,0.4491,0.4491,0.4491,0.4491,0.0,0.0,0.0,0.0,0.0,0.0,0.0,0.0,0.0,0.0,0.0,0.0,0.0,-0.0566,0.0,-0.0569,-0.1083,0.0,0.0,0.0,0.0,0.0,0.0,0.0,0.0,0.0,0.0,0.0,0.0,-0.63,-0.63,-0.63,-0.63,-0.63,-0.63,-0.63,-0.63,-0.5237,-0.4414,-0.3826,-0.2309,-0.1293,-0.0706,-0.0236,0.0,0.0,0.0,0.0,0.0,0.0,0.0,0.0,0.0,-0.0353,-0.0941,-0.1411,-0.2309,-0.34,-0.4375,-0.5079,-0.555,-0.555,-0.4142,-0.2419,-0.2432,-0.1282,0.0,0.0,0.063,0.1407,0.1842,0.2609,0.3413,0.3849,0.3949,0.4082,0.4553,0.4522,0.4625,0.5259,0.5395,0.5395,0.5395,0.5163,0.4866,0.4539,0.4491,0.4012,0.2621,0.2426,0.2426,0.2426,0.2426,0.2426,0.2426,0.3707,0.4491,0.4491,0.2954,0.2425,0.3231,0.2482,0.1424,0.0028,0.0,0.028,0.0812,0.3289,0.4491,0.4491,0.4491,0.4491,0.0,0.0,0.0,0.0,0.0,0.0,0.0,0.0,0.0,0.0,0.0,0.0,0.0,0.0,0.0,0.0,0.0,0.0,0.0,0.0,0.0,0.0,0.0,0.0,0.0,0.0,0.0,0.0,0.0,-0.6289,-0.6265,-0.6286,-0.63,-0.63,-0.63,-0.63,-0.63,-0.5395,-0.4844,-0.4686,-0.2932,-0.1919,-0.1568,-0.0667,-0.0157,0.0,0.0,0.0,0.0,0.0,0.0,0.0,0.0,-0.0118,-0.0353,-0.1254,-0.1685,-0.2075,-0.3828,-0.4453,-0.4453,-0.4453,-0.3166,-0.1601,-0.1644,-0.0905,0.0,0.0,0.0525,0.1341,0.241,0.3447,0.4417,0.5226,0.5395,0.5395,0.5395,0.5395,0.5395,0.5395,0.5395,0.5395,0.5395,0.489,0.4491,0.4491,0.4098,0.2899,0.0336,0.0,0.0,0.0,0.0,0.0,0.0,0.276,0.4491,0.4491,0.4491,0.4491,0.4491,0.4491,0.3095,0.0056,0.0,0.0,0.0,0.2565,0.4042,0.4491,0.4491,0.4491,0.0,0.0,0.0,0.0,0.0,0.0,0.0,0.0,0.0,0.0,0.0,0.0,0.0,0.0,0.0,0.0,0.0,0.0,0.0,0.0,0.0,0.0,0.0,0.0,0.0,0.0,0.0,0.0,0.0,-0.6242,-0.6071,-0.619,-0.63,-0.63,-0.63,-0.63,-0.63,-0.6141,-0.5589,-0.4688,-0.4375,-0.3285,-0.1607,-0.1411,-0.0863,0.0,0.0,0.0,0.0,0.0,0.0,0.0,0.0,-0.0549,-0.1372,-0.1528,-0.2152,-0.2929,-0.324,-0.3357,-0.3357,-0.3357,-0.2542,-0.1644,-0.1947,-0.1069,0.0,0.0,0.0105,0.0572,0.2278,0.3949,0.5226,0.5362,0.5395,0.5395,0.5395,0.5395,0.5395,0.5395,0.5395,0.5395,0.5395,0.489,0.4491,0.4491,0.2315,0.0532,0.0056,0.0,0.0,0.0,0.0,0.0,0.0,0.276,0.4491,0.4491,0.4491,0.4491,0.4491,0.4491,0.3095,0.0056,0.0,0.0,0.0,0.0476,0.2009,0.4491,0.4491,0.4491,0.0,0.0,0.0,0.0,0.0,0.0,0.0,0.0,0.0,0.0,0.0,0.0,0.0,0.0,0.0,0.0,0.0,0.0,0.0,0.0,0.0,0.0,0.0,0.0,0.0,0.0,0.0,0.0,0.0,0.0,-0.5878,-0.5591,-0.5633,-0.6139,-0.6135,-0.6176,-0.63,-0.6176,-0.5943,-0.555,-0.496,-0.4219,-0.3244,-0.2659,-0.184,-0.0863,0.0,-0.0549,0.0,0.0,0.0,0.0,0.0,-0.0667,-0.1607,-0.1607,-0.2231,-0.3007,-0.2462,-0.2308,-0.2308,-0.2501,-0.1721,-0.0745,-0.0902,-0.0505,0.0,0.0,0.0,0.0404,0.2243,0.4048,0.5395,0.5395,0.5395,0.5395,0.5395,0.5395,0.5395,0.5395,0.5395,0.5395,0.5395,0.5163,0.4321,0.2368,0.0891,0.0,0.0,0.0,0.0,0.0,0.0,0.0,0.0,0.276,0.4491,0.4491,0.4491,0.4491,0.4491,0.4491,0.3846,0.2454,0.0839,0.0,0.0,0.0,0.0699,0.212,0.3735,0.4491,0.0012,0.0,0.0,0.0,0.0,0.0,0.0,0.0,0.0,0.0,0.0,0.0,0.0,0.0,0.0,0.0,0.0,0.0,0.0,0.0,0.0,0.0,0.0,0.0,0.0,0.0,0.0,0.0,0.0,0.0,-0.5396,-0.4726,-0.4647,-0.5306,-0.5303,-0.5407,-0.5547,-0.5629,-0.5916,-0.63,-0.5473,-0.496,-0.4686,-0.3865,-0.293,-0.1957,-0.1685,-0.1137,-0.0353,-0.0118,0.0,0.0,0.0,-0.0667,-0.1607,-0.1607,-0.2074,-0.2618,-0.1567,-0.1215,-0.1254,-0.1527,-0.0862,0.0,0.0,0.0,0.0,0.0,0.0,0.0505,0.2746,0.435,0.5395,0.5395,0.5395,0.5395,0.5395,0.5395,0.5395,0.5395,0.5395,0.5395,0.5395,0.4685,0.3181,0.0426,0.0,0.0,0.0,0.0,0.0,0.0,0.0,0.028,0.1006,0.3178,0.4491,0.4491,0.4491,0.4491,0.4491,0.4491,0.4491,0.4491,0.2232,0.0699,0.0,0.0,0.0,0.0084,0.3093,0.4491,0.0061,0.0,0.0,0.0,0.0,0.0,0.0,0.0,0.0,0.0,0.0,0.0,0.0,0.0,0.0,0.0,0.0,0.0,0.0,0.0,0.0,0.0,0.0,0.0,0.0,0.0,0.0,0.0,0.0,0.0,-0.4308,-0.3631,-0.3247,-0.3314,-0.3314,-0.3318,-0.3328,-0.4298,-0.5301,-0.63,-0.6219,-0.567,-0.4688,-0.4608,-0.3984,-0.2929,-0.1996,-0.1568,-0.1411,-0.0392,0.0,0.0,0.0,-0.0667,-0.1607,-0.1607,-0.1645,-0.1568,-0.0471,-0.0118,-0.0118,-0.0157,-0.0079,0.0,0.0,0.0,0.0,0.0,0.0,0.0807,0.4287,0.5292,0.5395,0.5395,0.5395,0.5395,0.5395,0.5395,0.5395,0.5395,0.5395,0.5395,0.5395,0.26,0.0311,0.0028,0.0,0.0,0.0,0.0,0.0,0.0,0.0,0.1146,0.3929,0.4377,0.4491,0.4491,0.4491,0.4491,0.4491,0.4491,0.4491,0.4491,0.4294,0.2788,0.0,0.0,0.0,0.0084,0.3093,0.4491,0.007,0.0,0.0,0.0,0.0,0.0,0.0,0.0,0.0,0.0,0.0,0.0,0.0,0.0,0.0,0.0,0.0,0.0,0.0,0.0,0.0,0.0,0.0,0.0,0.0,0.0,0.0,0.0,0.0,0.0,-0.3269,-0.2555,-0.2416,-0.2942,-0.2976,-0.3299,-0.3971,-0.4376,-0.5103,-0.6118,-0.6252,-0.6103,-0.5709,-0.5709,-0.5118,-0.4062,-0.3711,-0.2778,-0.1568,-0.1176,-0.0588,-0.0079,-0.0745,-0.1254,-0.1607,-0.1607,-0.1607,-0.145,-0.0353,0.0,0.0,0.0,0.0,0.0,0.0,0.0,0.0,0.0,0.0,0.0841,0.4456,0.5395,0.5395,0.5395,0.5395,0.5395,0.5395,0.5395,0.5395,0.5395,0.5395,0.4688,0.2415,0.0908,0.0,0.0,0.0,0.0,0.0,0.0,0.0866,0.3111,0.3355,0.3681,0.4438,0.4491,0.4491,0.4491,0.4491,0.4491,0.4491,0.4491,0.4491,0.4491,0.4491,0.301,0.0,0.0,0.0,0.0084,0.3093,0.4491,0.0209,0.0067,0.0,0.0,0.0,0.0,0.0,0.0,0.0,0.0,0.0,0.0,0.0,0.0,0.0,0.0,0.0,0.0,0.0,0.0,0.0,0.0,0.0,0.0,0.0,0.0,0.0,0.0,0.0,0.0,0.0,-0.153,-0.1373,-0.1967,-0.224,-0.2755,-0.3472,-0.4147,-0.4843,-0.5538,-0.6068,-0.63,-0.63,-0.63,-0.5906,-0.5196,-0.4844,-0.3908,-0.2543,-0.2231,-0.1644,-0.1058,-0.1801,-0.188,-0.1607,-0.1607,-0.1372,-0.098,-0.0235,0.0,0.0,0.0,0.0,0.0,0.0,0.0,0.0,0.0,0.0,0.0841,0.4456,0.5395,0.5395,0.5395,0.5395,0.5395,0.5395,0.5395,0.5395,0.5395,0.5395,0.4253,0.0639,0.0,0.0,0.0,0.0,0.0,0.0,0.0,0.1382,0.5015,0.5395,0.5225,0.4812,0.46,0.4491,0.4491,0.4491,0.4491,0.4491,0.4491,0.4491,0.4491,0.4491,0.301,0.0,0.0,0.0,0.0084,0.3093,0.4491,0.0489,0.0209,0.0,0.0,0.0,0.0,0.0,0.0,0.0,0.0,0.0,0.0,0.0,0.0,0.0,0.0,0.0,0.0,0.0,0.0,0.0,0.0,0.0,0.0,0.0,0.0,0.0,0.0,0.0,0.0,0.0,-0.0471,0.0,0.0,-0.0839,-0.129,-0.1327,-0.3432,-0.4512,-0.4515,-0.5717,-0.63,-0.63,-0.63,-0.63,-0.6257,-0.5157,-0.4727,-0.4608,-0.3552,-0.3085,-0.3085,-0.3085,-0.2501,-0.1607,-0.1607,-0.0941,0.0,0.0,0.0,0.0,0.0,0.0,0.0,0.0,0.0,0.0,0.0,0.0034,0.0875,0.4456,0.5395,0.5395,0.5395,0.5395,0.5395,0.5395,0.5395,0.5395,0.5395,0.5362,0.422,0.0605,0.0,0.0,0.0,0.0,0.0,0.0,0.0031,0.1411,0.5027,0.5395,0.5395,0.5395,0.4846,0.4498,0.4498,0.4494,0.4491,0.4491,0.4491,0.4491,0.4491,0.4491,0.301,0.0,0.0,0.0,0.0084,0.3098,0.4498,0.061,0.0447,0.0,0.0,0.0,0.0,0.0,0.0,0.0,0.0,0.0,0.0,0.0,0.0,0.0,0.0,0.0,0.0,0.0,0.0,0.0,0.0,0.0,0.0,0.0,0.0,0.0,0.0,0.0,0.0,0.0,-0.0135,0.0,0.0,-0.0839,-0.1614,-0.227,-0.3756,-0.4801,-0.5428,-0.6018,-0.63,-0.63,-0.63,-0.63,-0.63,-0.5983,-0.5395,-0.4608,-0.3552,-0.3085,-0.3085,-0.3085,-0.2929,-0.2579,-0.188,-0.1567,-0.1331,-0.0353,0.0,0.0,0.0,0.0,0.0,0.0,0.0,0.0,0.0,0.1846,0.4054,0.5126,0.5395,0.5395,0.5395,0.5395,0.5395,0.5395,0.5395,0.5395,0.5395,0.3351,0.1276,0.0168,0.0,0.0,0.0,0.0,0.0,0.0,0.2233,0.422,0.5292,0.5395,0.5395,0.5395,0.5228,0.5126,0.5126,0.4726,0.4491,0.4491,0.4491,0.4491,0.4491,0.4491,0.301,0.0,0.0,0.0,0.0084,0.3516,0.5126,0.0821,0.0,0.0,0.0,0.0,0.0,0.0,0.0,0.0,0.0,0.0,0.0,0.0,0.0,0.0,0.0,0.0,0.0,0.0,0.0,0.0,0.0,0.0,0.0,0.0,0.0,0.0,0.0,0.0,0.0,0.0,0.0,0.0,0.0,-0.1208,-0.2143,-0.2711,-0.4194,-0.5213,-0.5722,-0.6023,-0.6169,-0.6173,-0.6272,-0.63,-0.63,-0.63,-0.5944,-0.5276,-0.4647,-0.4373,-0.4373,-0.4373,-0.41,-0.3593,-0.2581,-0.2074,-0.1722,-0.0431,0.0,0.0,0.0,0.0,0.0,0.0,0.0,0.0,0.0,0.1577,0.3251,0.3251,0.432,0.5395,0.5395,0.5395,0.499,0.3551,0.3251,0.3251,0.3251,0.1478,0.0,0.0,0.0,0.0,0.0,0.0,0.0,0.0,0.3151,0.5395,0.5395,0.5395,0.5395,0.5395,0.5395,0.4791,0.3351,0.2906,0.2704,0.2704,0.3873,0.4491,0.4491,0.4491,0.301,0.0,0.0,0.0725,0.2203,0.4379,0.5395,0.1145,0.0,0.0,0.0,0.0,0.0,0.0,0.0,0.0,0.0,0.0,0.0,0.0,0.0,0.0,0.0,0.0,0.0,0.0,0.0,0.0,0.0,0.0,0.0,0.0,0.0,0.0,0.0,0.0,0.0,0.0,0.0,0.0,0.0,-0.1743,-0.2711,-0.2711,-0.4614,-0.5589,-0.5593,-0.5874,-0.5973,-0.5976,-0.6169,-0.6279,-0.6279,-0.6279,-0.6286,-0.63,-0.63,-0.63,-0.63,-0.63,-0.5709,-0.4727,-0.3632,-0.2618,-0.1567,-0.0392,0.0,0.0,0.0,0.0,0.0,0.0,0.0,0.0,0.0,0.0,0.0,0.0,0.2447,0.4924,0.4924,0.4924,0.402,0.0706,0.0,0.0,0.0,0.0,0.0,0.0,0.0,0.0,0.0,0.0,0.0,0.0,0.3151,0.5395,0.5395,0.5395,0.5395,0.5395,0.5395,0.3851,0.0236,0.0,0.0,0.0,0.2637,0.4098,0.4098,0.4098,0.2749,0.0,0.032,0.2181,0.5395,0.5395,0.5395,0.0,0.1347,0.0,0.0,0.0,0.0,0.0,0.0,0.0,0.0,0.0,0.0,0.0,0.0,0.0,0.0,0.0,0.0,0.0,0.0,0.0,0.0,0.0,0.0,0.0,0.0,0.0,0.0,0.0,0.0,0.0,0.0,0.0,0.0,-0.1743,-0.2711,-0.2711,-0.4614,-0.5589,-0.5593,-0.5769,-0.585,-0.5857,-0.601,-0.6078,-0.6078,-0.6078,-0.6149,-0.63,-0.63,-0.63,-0.63,-0.63,-0.6141,-0.5825,-0.4766,-0.3671,-0.2501,-0.0627,0.0,0.0,0.0,0.0,0.0,0.0,0.0,0.0,0.0,0.0,0.0,0.0,0.0572,0.1176,0.1176,0.1176,0.0941,0.0168,0.0,0.0,0.0,0.0,0.0,0.0,0.0,0.0,0.0,0.0,0.0,0.0,0.3151,0.5395,0.5395,0.5395,0.5395,0.5395,0.5395,0.3851,0.0236,0.0,0.0,0.0,0.0621,0.0978,0.0978,0.0978,0.0648,0.0,0.2849,0.4655,0.5395,0.5395,0.5395,0.0,0.0,0.0,0.0,0.0,0.0,0.0,0.0,0.0,0.0,0.0,0.0,0.0,0.0,0.0,0.0,0.0,0.0,0.0,0.0,0.0,0.0,0.0,0.0,0.0,0.0,0.0,0.0,0.0,0.0,0.0,0.0,0.0,0.0,-0.1308,-0.2242,-0.2711,-0.411,-0.5067,-0.5518,-0.563,-0.5701,-0.5705,-0.585,-0.5922,-0.5922,-0.5922,-0.5966,-0.6078,-0.6078,-0.6084,-0.6149,-0.6149,-0.6235,-0.6141,-0.4921,-0.4098,-0.3279,-0.0862,0.0,0.0,0.0,0.0,0.0,0.0,0.0,0.0,0.0,0.0,0.0,0.0,0.0,0.0,0.0,0.0,0.0,0.0,0.0,0.0,0.0,0.0,0.0,0.0,0.0,0.0,0.0,0.0,0.0,0.0,0.1646,0.3485,0.5226,0.5395,0.5395,0.5395,0.5395,0.3851,0.0236,0.0,0.0,0.0,0.0,0.0,0.0,0.1715,0.2587,0.2581,0.4489,0.5395,0.5395,0.5395,0.5395,0.0,0.0,0.0,0.0,0.0,0.0,0.0,0.0,0.0,0.0,0.0,0.0,0.0,0.0,0.0,0.0,0.0,0.0,0.0,0.0,0.0,0.0,0.0,0.0,0.0,0.0,0.0,0.0,0.0,0.0,0.0,0.0,0.0,0.0,-0.0839,-0.1742,-0.2678,-0.358,-0.4486,-0.5395,-0.5525,-0.5552,-0.5555,-0.5671,-0.5739,-0.5762,-0.5584,-0.5561,-0.5545,-0.5401,-0.5414,-0.5501,-0.5501,-0.5664,-0.5786,-0.4644,-0.437,-0.4215,-0.1879,-0.0628,0.0,0.0,0.0,0.0,0.0,0.0,0.0,0.0,0.0,0.0,0.0,0.0,0.0,0.0,0.0,0.0,0.0,0.0,0.0,0.0,0.0,0.0,0.0,0.0,0.0,0.0,0.0,0.0,0.0,0.0,0.1377,0.5027,0.5395,0.5395,0.5395,0.4824,0.3451,0.1076,0.0337,0.0,0.0,0.0,0.0,0.0,0.3551,0.5395,0.5395,0.5395,0.5395,0.5395,0.5395,0.5395,0.0,0.0,0.0,0.0,0.0,0.0,0.0,0.0,0.0,0.0,0.0,0.0,0.0,0.0,0.0,0.0,0.0,0.0,0.0,0.0,0.0,0.0,0.0,0.0,0.0,0.0,0.0,0.0,0.0,0.0,0.0,0.0,0.0,0.0,-0.0839,-0.1742,-0.2678,-0.358,-0.4486,-0.5395,-0.5416,-0.5426,-0.5426,-0.5443,-0.5528,-0.5582,-0.4769,-0.451,-0.4601,-0.3808,-0.3465,-0.3469,-0.3469,-0.3901,-0.4448,-0.4254,-0.4957,-0.5983,-0.5592,-0.3051,0.0,0.0,0.0,0.0,0.0,0.0,0.0,0.0,0.0,0.0,0.0,0.0,0.0,0.0,0.0,0.0,0.0,0.0,0.0,0.0,0.0,0.0,0.0,0.0,0.0,0.0,0.0,0.0,0.0,0.0,0.1377,0.5027,0.5395,0.5395,0.5395,0.2515,0.1846,0.4522,0.1745,0.0,0.0,0.0,0.0,0.0,0.3551,0.5395,0.5395,0.5395,0.5395,0.5395,0.5395,0.5395,0.1842,0.1895,0.1909,0.0,0.0,0.0,0.0,0.0,0.0,0.0,0.0,0.0,0.0,0.0,0.0,0.0,0.0,0.0,0.0,0.0,0.0,0.0,0.0,0.0,0.0,0.0,0.0,0.0,0.0,0.0,0.0,0.0,0.0,0.0,-0.037,-0.1241,-0.2678,-0.3078,-0.3982,-0.5395,-0.5395,-0.5395,-0.5395,-0.5395,-0.5433,-0.5427,-0.4501,-0.4151,-0.4161,-0.3263,-0.2928,-0.3,-0.3,-0.3469,-0.4286,-0.4886,-0.561,-0.5976,-0.3597,-0.155,0.0,0.0,0.0,0.0,0.0,0.0,0.0,0.0,0.0,0.0,0.0,0.0,0.0,0.0,0.0,0.0,0.0,0.0,0.0,0.0,0.0,0.0,0.0,0.0,0.0,0.0,0.0,0.0,0.0,0.0,0.0605,0.2214,0.2382,0.2382,0.2382,0.2781,0.3718,0.5292,0.3918,0.3015,0.3015,0.1076,0.0941,0.2982,0.4589,0.5395,0.5395,0.5395,0.5395,0.5395,0.5395,0.5395,0.1764,0.1833,0.1995,0.0,0.0,0.0,0.0,0.0,0.0,0.0,0.0,0.0,0.0,0.0,0.0,0.0,0.0,0.0,0.0,0.0,0.0,0.0,0.0,0.0,0.0,0.0,0.0,0.0,0.0,0.0,0.0,0.0,0.0,0.0,0.0,-0.0874,-0.2678,-0.3147,-0.4048,-0.5395,-0.5395,-0.5395,-0.5395,-0.5395,-0.5259,-0.499,-0.4082,-0.3547,-0.3245,-0.2377,-0.2078,-0.2166,-0.2171,-0.2543,-0.3215,-0.4027,-0.4472,-0.4249,-0.1107,0.0,0.0,0.0,0.0,0.0,0.0,0.0,0.0,0.0,0.0,0.0,0.0,0.0,0.0,0.0,0.0,0.0,0.0,0.0,0.0,0.0,0.0,0.0,0.0,0.0,0.0,0.0,0.0,0.0,0.0,0.0,0.0,0.0,0.0,0.0,0.0,0.3316,0.5395,0.5395,0.5395,0.5395,0.5395,0.2815,0.2649,0.5359,0.5395,0.5395,0.5395,0.5395,0.5395,0.5395,0.5395,0.5395,0.2221,0.2367,0.0,0.0,0.0,0.0,0.0,0.0,0.0,0.0,0.0,0.0,0.0,0.0,0.0,0.0,0.0,0.0,0.0,0.0,0.0,0.0,0.0,0.0,0.0,0.0,0.0,0.0,0.0,0.0,0.0,0.0,0.0,0.0,0.0,-0.0874,-0.2678,-0.4417,-0.5296,-0.5395,-0.5395,-0.5395,-0.5395,-0.5395,-0.4921,-0.4015,-0.3145,-0.2277,-0.1374,-0.0505,-0.0137,-0.0141,-0.0142,-0.018,-0.022,-0.0269,-0.0295,-0.0305,-0.0068,0.0,0.0,0.0,0.0,0.0,0.0,0.0,0.0,0.0,0.0,0.0,0.0,0.0,0.0,0.0,0.0,0.0,0.0,0.0,0.0,0.0,0.0,0.0,0.0,0.0,0.0,0.0,0.0,0.0,0.0,0.0,0.0,0.0,0.0,0.0,0.0,0.3316,0.5395,0.5395,0.5395,0.5395,0.5395,0.5226,0.5193,0.5395,0.5395,0.5395,0.5395,0.5395,0.5395,0.5395,0.5395,0.5395,0.1933,0.201,0.0,0.0,0.0,0.0,0.0,0.0,0.0,0.0,0.0,0.0,0.0,0.0,0.0,0.0,0.0,0.0,0.0,0.0,0.0,0.0,0.0,0.0,0.0,0.0,0.0,0.0,0.0,0.0,0.0,0.0,0.0,0.0,0.0,-0.0874,-0.2678,-0.3882,-0.4788,-0.5395,-0.5395,-0.5395,-0.5395,-0.5395,-0.4586,-0.3145,-0.2845,-0.2177,-0.124,-0.037,0.0,0.0,0.0,0.0,0.0,0.0,0.0,0.0,0.0,0.0,0.0,0.0,0.0,0.0,0.0,0.0,0.0,0.0,0.0,0.0,0.0,0.0,0.0,0.0,0.0,0.0,0.0,0.0,0.0,0.0,0.0,0.0,0.0,0.0,0.0,0.0,0.0,0.0,0.0,0.0,0.0,0.0,0.0,0.0,0.0,0.3316,0.5395,0.5395,0.5395,0.5395,0.5395,0.5395,0.5395,0.5395,0.5395,0.5395,0.5395,0.5395,0.5395,0.5395,0.5395,0.5395,0.173,0.0,0.0,0.0,0.0,0.0,0.0,0.0,0.0,0.0,0.0,0.0,0.0,0.0,0.0,0.0,0.0,0.0,0.0,0.0,0.0,0.0,0.0,0.0,0.0,0.0,0.0,0.0,0.0,0.0,0.0,0.0,0.0,0.0,-0.0269,-0.1175,-0.2678,-0.358,-0.4486,-0.5395,-0.5395,-0.5395,-0.5395,-0.509,-0.4115,-0.2678,-0.2376,-0.1708,-0.0806,-0.0236,0.0,0.0,0.0,0.0,0.0,0.0,0.0,0.0,0.0,0.0,0.0,0.0,0.0,0.0,0.0,0.0,0.0,0.0,0.0,0.0,0.0,0.0,0.0,0.0,0.0,0.0,0.0,0.0,0.0,0.0,0.0,0.0,0.0,0.0,0.0,0.0,0.0,0.0,0.0,0.0,0.0,0.0,0.0,0.0,0.0,0.2214,0.412,0.5329,0.5395,0.5395,0.5395,0.5395,0.5395,0.5395,0.5395,0.5395,0.5395,0.5395,0.5395,0.5395,0.5395,0.5395,0.0,0.0,0.0,0.0,0.0,0.0,0.0,0.0,0.0,0.0,0.0,0.0,0.0,0.0,0.0,0.0,0.0,0.0,0.0,0.0,0.0,0.0,0.0,0.0,0.0,0.0,0.0,0.0,0.0,0.0,0.0,0.0,0.0,0.0,-0.0805,-0.1708,-0.2644,-0.3513,-0.4417,-0.5359,-0.5359,-0.5359,-0.5329,-0.4417,-0.3513,-0.2611,-0.1708,-0.0806,0.0,0.0,0.0,0.0,0.0,0.0,0.0,0.0,0.0,0.0,0.0,0.0,0.0,0.0,0.0,0.0,0.0,0.0,0.0,0.0,0.0,0.0,0.0,0.0,0.0,0.0,0.0,0.0,0.0,0.0,0.0,0.0,0.0,0.0,0.0,0.0,0.0,0.0,0.0,0.0,0.0,0.0,0.0,0.0,0.0,0.0,0.0,0.0,0.1545,0.516,0.5395,0.5395,0.5395,0.5395,0.5395,0.5395,0.5395,0.5395,0.5395,0.5395,0.5395,0.5395,0.5395,0.5395,0.1775,0.0,0.0,0.0,0.0,0.0,0.0,0.0,0.0,0.0,0.0,0.0,0.0,0.0,0.0,0.0,0.0,0.0,0.0,0.0,0.0,0.0,0.0,0.0,0.0,0.0,0.0,0.0,0.0,0.0,0.0,0.0,0.0,0.0,-0.0233,-0.0773,-0.1675,-0.1941,-0.2845,-0.4384,-0.4384,-0.4384,-0.4384,-0.4115,-0.3145,-0.1675,-0.1407,-0.0806,0.0,0.0,0.0,0.0,0.0,0.0,0.0,0.0,0.0,0.0,0.0,0.0,0.0,0.0,0.0,0.0,0.0,0.0,0.0,0.0,0.0,0.0,0.0,0.0,0.0,0.0,0.0,0.0,0.0,0.0,0.0,0.0,0.0,0.0,0.0,0.0,0.0,0.0,0.0,0.0,0.0,0.0,0.0,0.0,0.0,0.0,0.0,0.0,0.1545,0.516,0.5395,0.5395,0.5395,0.5395,0.5395,0.5395,0.5395,0.5395,0.5395,0.5395,0.5395,0.5395,0.5395,0.5395,0.1937,0.2099,0.0,0.0,0.0,0.0,0.0,0.2573,0.0,0.0,0.0,0.0,0.0,0.0,0.0,0.0,0.0,0.0,0.0,0.0,0.0,0.0,0.0,0.0,0.0,0.0,0.0,0.0,0.0,0.0,0.0,0.0,0.0,0.0,0.0,-0.043,-0.1286,-0.13,-0.2043,-0.3447,-0.3447,-0.3447,-0.3447,-0.3045,-0.231,-0.1273,-0.0906,-0.0471,0.0,0.0,0.0,0.0,0.0,0.0,0.0,0.0,0.0,0.0,0.0,0.0,0.0,0.0,0.0,0.0,0.0,0.0,0.0,0.0,0.0,0.0,0.0,0.0,0.0,0.0,0.0,0.0,0.0,0.0,0.0,0.0,0.0,0.0,0.0,0.0,0.0,0.0,0.0,0.0,0.0,0.0,0.0,0.0,0.0,0.0,0.0,0.0,0.1545,0.516,0.5395,0.5395,0.5395,0.5395,0.5395,0.5395,0.5395,0.5395,0.5395,0.5395,0.5395,0.5395,0.5395,0.5395,0.2108,0.2302,0.2491,0.0,0.0,0.0,0.2892,0.2846,0.2791,0.0,0.0,0.0,0.0,0.0,0.0,0.0,0.0,0.0,0.0,0.0,0.0,0.0,0.0,0.0,0.0,0.0,0.0,0.0,0.0,0.0,0.0,0.0,0.0,0.0,0.0,-0.0387,-0.1159,-0.1159,-0.1608,-0.2544,-0.2544,-0.2544,-0.2511,-0.1675,-0.124,-0.1106,-0.0337,0.0,0.0,0.0,0.0,0.0,0.0,0.0,0.0,0.0,0.0,0.0,0.0,0.0,0.0,0.0,0.0,0.0,0.0,0.0,0.0,0.0,0.0,0.0,0.0,0.0,0.0,0.0,0.0,0.0,0.0,0.0,0.0,0.0,0.0,0.0,0.0,0.0,0.0,0.0,0.0,0.0,0.0,0.0,0.0,0.0,0.0,0.0,0.0,0.0,0.1545,0.516,0.5395,0.5395,0.5395,0.5395,0.5395,0.5395,0.5395,0.5395,0.5395,0.5395,0.5395,0.5395,0.5395,0.5395,0.2025,0.2326,0.2757,0.2582,0.0,0.0,0.2408,0.255,0.2686,0.0,0.0,0.0,0.0,0.0,0.0,0.0,0.0,0.0,0.0,0.0,0.0,0.0,0.0,0.0,0.0,0.0,0.0,0.0,0.0,0.0,0.0,0.0,0.0,0.0,0.0,-0.0097,-0.0258,-0.0266,-0.0706,-0.1574,-0.1574,-0.1574,-0.1574,-0.1374,-0.0906,-0.0236,-0.0067,0.0,0.0,0.0,0.0,0.0,0.0,0.0,0.0,0.0,0.0,0.0,0.0,0.0,0.0,0.0,0.0,0.0,0.0,0.0,0.0,0.0,0.0,0.0,0.0,0.0,0.0,0.0,0.0,0.0,0.0,0.0,0.0,0.0,0.0,0.0,0.0,0.0,0.0,0.0,0.0,0.0,0.0,0.0,0.0,0.0,0.0,0.0,0.0,0.0,0.1545,0.516,0.5395,0.5395,0.5395,0.5395,0.5395,0.5395,0.5395,0.5395,0.5395,0.5395,0.5395,0.5395,0.5395,0.5395,0.2135,0.2496,0.2959,0.2839,0.0,0.0,0.0,0.2571,0.262,0.2682,0.0,0.0,0.0,0.0,0.0,0.0,0.0,0.0,0.0,0.0,0.0,0.0,0.0,0.0,0.0027,0.0273,0.033,0.0028,0.0,0.0,0.0,0.0,0.0,0.0,0.0,0.0,0.0,0.0,-0.0236,-0.0638,-0.0638,-0.0638,-0.0638,-0.0638,-0.0404,0.0,0.0,0.0,0.0,0.0,0.0,0.0,0.0,0.0,0.0,0.0,0.0,0.0,0.0,0.0,0.0,0.0,0.0,0.0,0.0,0.0,0.0,0.0,0.0,0.0,0.0,0.0,0.0,0.0,0.0,0.0,0.0,0.0,0.0539,0.2347,0.1244,0.0,0.0,0.0,0.0,0.0,0.0,0.0,0.0,0.0,0.0,0.0,0.0,0.0,0.0,0.0,0.1545,0.516,0.5395,0.5395,0.5395,0.5395,0.5395,0.5395,0.5395,0.5395,0.5395,0.5395,0.5395,0.5395,0.5395,0.5395,0.0,0.0,0.0,0.0,0.0,0.2867,0.0,0.0,0.0,0.2747,0.0,0.0,0.0,0.0,0.0,0.0,0.0,0.0,0.0,0.0,0.0,0.0,0.0,0.0,0.0394,0.0759,0.0796,0.0249,0.0166,0.0166,0.0196,0.0084,0.0,0.0,0.0,0.0,0.0,0.0,0.0,0.0,0.0,0.0,0.0,0.0,0.0,0.0,0.0,0.0,0.0,0.0,0.0,0.0,0.0,0.0,0.0,0.0,0.0,0.0,0.0,0.0,0.0,0.0,0.0,0.0,0.0,0.0,0.0,0.0,0.0,0.0,0.0,0.0,0.0,0.0,0.0,0.0,0.0,0.0,0.0875,0.3785,0.2547,0.1042,0.1042,0.1042,0.1042,0.1042,0.0438,0.0,0.0,0.0,0.0,0.0,0.0,0.0,0.0,0.0639,0.2281,0.5226,0.5395,0.5395,0.5395,0.5395,0.5395,0.5395,0.5395,0.5395,0.5395,0.5395,0.5395,0.5399,0.5515,0.5569,0.0,0.0,0.0,0.0,0.33,0.0,0.0,0.0,0.2737,0.2361,0.0,0.0,0.0,0.0,0.0,0.0,0.0,0.0,0.0,0.0,0.0,0.0,0.0,0.0,0.0,0.1546,0.1363,0.1009,0.0753,0.0734,0.0975,0.0364,0.0,0.0,0.0,0.0,0.0,0.0,0.0,0.0,0.0,0.0,0.0,0.0,0.0,0.0,0.0,0.0,0.0,0.0,0.0,0.0,0.0,0.0,0.0,0.0,0.0,0.0,0.0,0.0,0.0,0.0,0.0,0.0,0.0,0.0,0.0,0.0,0.0,0.0,0.0,0.0,0.0,0.0,0.0,0.0,0.0,0.0,0.0135,0.0539,0.2882,0.4791,0.4791,0.4791,0.4791,0.4791,0.2047,0.0,0.0,0.0,0.0,0.0,0.0,0.0,0.0,0.2948,0.4957,0.5362,0.5395,0.5395,0.5395,0.5395,0.5395,0.5395,0.5395,0.5395,0.5395,0.5395,0.5395,0.5405,0.5948,0.6197,0.0,0.0,0.0,0.0,0.0,0.0,0.2846,0.0,0.2751,0.0,0.0,0.0,0.0,0.0,0.0,0.0,0.0,0.0,0.0,0.0,0.0,0.0,0.0,0.0,0.0,0.0,0.0,0.0,0.0995,0.0781,0.0975,0.0354,0.0,0.0,0.0,0.0,0.0,0.0,0.0,0.0,0.0,0.0,0.0,0.0,0.0,0.0,0.0,0.0,0.0,0.0,0.0,0.0,0.0,0.0,0.0,0.0,0.0,0.0,0.0,0.0,0.0,0.0,0.0,0.0,0.0,0.0,0.0,0.0,0.0,0.0,0.0,0.0,0.0,0.0,0.0,0.0,0.0,0.0,0.0,0.0,0.2915,0.5395,0.5395,0.5395,0.5395,0.5395,0.2315,0.0,0.0,0.0,0.0,0.0,0.0,0.0841,0.295,0.4522,0.5545,0.5897,0.559,0.5395,0.5395,0.5395,0.5395,0.5395,0.5395,0.5395,0.5395,0.5747,0.5921,0.5924,0.618,0.63,0.3016,0.0,0.0,0.0,0.0,0.0,0.0,0.0,0.0,0.0,0.0,0.0,0.0,0.0,0.0,0.0,0.0,0.0,0.0,0.0,0.0,0.0,0.0,0.0,0.0,0.0,0.0,0.0,0.0,0.1226,0.1482,0.0692,0.027,0.0308,0.0115,0.0,0.0,0.0,0.0,0.0,0.0,0.0,0.0,0.0,0.0,0.0,0.0,0.0,0.0,0.0,0.0,0.0,0.0,0.0,0.0,0.0,0.0,0.0,0.0,0.0,0.0,0.0,0.0,0.0,0.0,0.0,0.0,0.0,0.0,0.0,0.0,0.0,0.0,0.0,0.0,0.0,0.0,0.0,0.0,0.0,0.2915,0.5395,0.5395,0.5395,0.5395,0.5395,0.2315,0.0,0.0,0.0,0.0,0.0,0.0875,0.2547,0.5193,0.5395,0.5655,0.6262,0.573,0.5395,0.5395,0.5556,0.5566,0.5399,0.5395,0.5477,0.5644,0.6085,0.63,0.63,0.63,0.63,0.0,0.0,0.0,0.3256,0.0,0.0,0.0,0.0,0.305,0.0,0.0,0.0,0.0,0.0,0.3241,0.3694,0.3272,0.0,0.0,0.0,0.0,0.0,0.0,0.0,0.0,0.0,0.0,0.0,0.2347,0.0,0.3004,0.1649,0.0919,0.1061,0.0364,0.0,0.0,0.0,0.0,0.0,0.0,0.0,0.0,0.0,0.0,0.0,0.0,0.0,0.0,0.0,0.0,0.0,0.0,0.0,0.0,0.0,0.0,0.0,0.0,0.0,0.0,0.0,0.0,0.0,0.0,0.0,0.0,0.0,0.0,0.0,0.0,0.0,0.0,0.0,0.0,0.0,0.0,0.0,0.0,0.0,0.2915,0.5395,0.5395,0.5395,0.5395,0.5395,0.2315,0.0,0.0,0.0,0.0,0.0,0.3149,0.5259,0.5395,0.5395,0.5655,0.6262,0.573,0.5395,0.5395,0.5958,0.5996,0.5405,0.5395,0.5685,0.6272,0.6289,0.63,0.63,0.63,0.63,0.0,0.0,0.4024,0.3551,0.0,0.0,0.0,0.0,0.0,0.0,0.0,0.0,0.0,0.0,0.3581,0.3252,0.3032,0.2771,0.0,0.0,0.0,0.0,0.0,0.0,0.0,0.0,0.0,0.0,0.2499,0.0,0.2815,0.2073,0.1435,0.0974,0.0802,0.0483,0.0,0.0577,0.0876,0.087,0.1094,0.0773,0.0,0.0,0.0,0.0,0.0,0.0,0.0,0.0,0.0,0.0,0.0,0.0,0.0,0.0,0.0,0.0,0.0,0.0,0.0,0.0,0.0,0.0,0.0,0.0,0.0,0.0,0.0,0.0,0.0,0.0,0.0,0.0,0.0,0.0,0.0,0.0,0.0706,0.3115,0.4556,0.5395,0.5395,0.5395,0.5395,0.5395,0.2315,0.0,0.0,0.0,0.0908,0.3316,0.4655,0.5559,0.5958,0.5996,0.6081,0.6286,0.6105,0.5996,0.5996,0.619,0.6204,0.5999,0.5996,0.6095,0.63,0.63,0.63,0.63,0.63,0.63,0.4296,0.4297,0.0,0.3768,0.3679,0.0,0.3135,0.0,0.0,0.0,0.0,0.0,0.0,0.0,0.3754,0.3755,0.3268,0.2771,0.0,0.238,0.0,0.0,0.0,0.0,0.0,0.0,0.2852,0.3081,0.2689,0.0,0.0,0.2607,0.2123,0.1699,0.1291,0.0989,0.0779,0.1115,0.143,0.1743,0.2008,0.171,0.0941,0.0303,0.0706,0.1846,0.0572,0.0,0.0,0.0,0.0,0.0,0.0,0.0,0.0,0.0,0.0,0.0,0.0,0.0,0.0,0.0,0.0,0.0,0.0,0.0,0.0,0.0,0.0,0.0,0.0,0.0,0.0,0.0,0.0,0.0,0.0,0.0,0.1076,0.4688,0.5569,0.5648,0.5433,0.5573,0.5217,0.3723,0.1494,0.0,0.0,0.0,0.1458,0.5323,0.5525,0.5641,0.6248,0.63,0.63,0.63,0.63,0.63,0.63,0.63,0.63,0.63,0.63,0.63,0.63,0.63,0.63,0.63,0.63,0.63]}]]